     2              OBSERVATION DATA    GPS                 RINEX VERSION / TYPE
teqc 1997Jul24 19970902 21:12:11UTC                         PGM / RUN BY / DATE
                                                            COMMENT
BIT 2 OF LLI FLAGS DATA COLLECTED UNDER A-S CONDITION       COMMENT
BIT 2 OF LLI FLAGS DATA COLLECTED UNDER A-S CONDITION       COMMENT
Original Marker Name: SAN1                                  COMMENT
Campaign Name: Salt. Tr. Crust. Monit. May-Jun 1986         COMMENT
4-Character Station Name: SAN1                              COMMENT
6-Character Antenna Code: TI4100                            COMMENT
Vertical Measurement Point: PAE                             COMMENT
Vertical Offset to Rinex Ref. Point: 0.0000                 COMMENT
Radial Measurement Point: RRP                               COMMENT
Radial Offset to Rinex Ref. Point: 0.0000                   COMMENT
Antenna Height from Field Measurement: 1.3465 m             COMMENT
Original XYZ: -2428658.6480 -4801035.5445 3418008.8654      COMMENT
New XYZ position is based on association with SCEC monument COMMENT
E1C8G3P5+0011. Position of that monument is believed to be  COMMENT
valid to within 1 m horizontally; vertical accuracy         COMMENT
should be no worse than 3-times this value.                 COMMENT
                                                            COMMENT
Revised Rinex header created by UCSD GPS archive for        COMMENT
GSAC on 10-Apr-1999 (1999:100) 03:03:11 GMT                 COMMENT
For assistance contact dagnew@ucsd.edu or hjohnson@ucsd.edu COMMENT
                                                            COMMENT
SANDIE NASA RM 1                                            MARKER NAME
05 NATIONAL GEODETIC SURVEY                                 OBSERVER / AGENCY
UT-28 TI 4100 1.0                                           REC # / TYPE / VERS
4053 TI 4100                                                ANT # / TYPE
 -2428712.0000 -4799859.0000  3417162.0000                  APPROX POSITION XYZ
        1.3465        0.0000        0.0000                  ANTENNA: DELTA H/E/N
     1     1     0                                          WAVELENGTH FACT L1/2
     4    P1    P2    L1    L2                              # / TYPES OF OBSERV
     6                                                      INTERVAL
  1986     6    18     2    36   11.000000                  TIME OF FIRST OBS
  1986     6    18     4    12   53.000000                  TIME OF LAST OBS
     0                                                      # OF SATELLITES
                                                            END OF HEADER
 86  6 18  2 36 11.0800000  0  4G12G13G 9G11
  21158621.844    21158625.907     8251215.517 9 -19780752.354 9
  20739487.146    20739491.241    32113050.183 9 -45459933.382 9
  21098645.319    21098647.948    65220640.980 8-107778710.584 7
  24324887.629    24324891.141    94455282.509 9 -84710729.877 9
 86  6 18  2 36 17.0800000  0  4G12G13G 9G11
  21156786.517    21156790.482     8241569.566 9 -19788268.679 9
  20740412.433    20740416.759    32117914.214 9 -45456143.240 8
  21101749.212    21101752.338    65236952.864 8-107766000.043 8
  24327972.615    24327977.446    94471500.737 9 -84698092.283 8
 86  6 18  2 36 23.0800000  0  4G12G13G 9G11
  21154954.537    21154958.344     8231945.538 9 -19795767.927 9
  20741341.182    20741344.663    32122789.442 9 -45452344.359 9
  21104857.035    21104860.814    65253285.238 9-107753273.513 8
  24331058.440    24331063.922    94487716.448 9 -84685456.673 8
 86  6 18  2 36 29.0800000  0  4G12G13G 9G11
  21153127.394    21153131.575     8222343.483 9 -19803250.036 9
  20742270.367    20742274.533    32127675.796 9 -45448536.817 9
  21107968.693    21107971.241    65269638.069 8-107740531.056 8
  24334145.018    24334149.576    94503929.557 9 -84672823.074 9
 86  6 18  2 36 35.0800000  0  4G12G13G 9G11
  21151304.579    21151307.909     8212763.457 9 -19810714.998 8
  20743203.139    20743207.069    32132573.291 9 -45444720.592 9
  21111084.243    21111088.027    65286011.356 9-107727772.663 8
  24337229.587    24337233.951    94520140.102 9 -84660191.480 9
 86  6 18  2 36 41.0800000  0  4G12G13G 9G11
  21149485.621    21149490.069     8203205.368 9 -19818162.854 9
  20744136.576    20744139.977    32137481.884 9 -45440895.713 9
  21114203.227    21114206.643    65302404.944 9-107714998.434 9
  24340312.961    24340318.458    94536348.084 9 -84647561.892 8
 86  6 18  2 36 47.0800000  0  4G12G13G 9G11
  21147671.529    21147674.830     8193669.252 9 -19825593.593 9
  20745072.882    20745075.694    32142401.469 9 -45437062.266 8
  21117327.897    21117331.343    65318818.882 8-107702208.381 9
  24343396.464    24343402.653    94552553.482 8 -84634934.313 9
 86  6 18  2 36 53.0800000  0  4G12G13G 9G11
  21145860.787    21145864.175     8184155.147 9 -19833007.180 8
  20746011.341    20746014.943    32147332.122 9 -45433220.197 9
  21120454.560    21120458.713    65335253.390 8-107689402.266 9
  24346478.546    24346484.804    94568756.274 9 -84622308.779 9
 86  6 18  2 36 59.0800000  0  4G12G13G 9G11
  21144054.365    21144058.599     8174663.108 9 -19840403.572 8
  20746951.775    20746955.464    32152273.752 9 -45429369.578 8
  21123585.737    21123589.373    65351708.176 8-107676580.361 8
  24349562.083    24349568.193    94584956.518 8 -84609685.241 9
 86  6 18  2 37  5.0800000  0  4G12G13G 9G11
  21142252.748    21142255.981     8165193.137 9 -19847782.775 9
  20747894.412    20747898.294    32157226.363 8 -45425510.407 9
  21126720.442    21126724.860    65368183.297 9-107663742.614 8
  24352645.383    24352650.753    94601154.149 8 -84597063.708 9
 86  6 18  2 37 11.0800000  0  4G12G13G 9G11
  21140453.993    21140458.372     8155745.167 9 -19855144.822 8
  20748838.242    20748842.456    32162189.988 9 -45421642.641 9
  21129860.584    21129863.930    65384678.653 8-107650889.087 8
  24355727.977    24355732.438    94617349.211 9 -84584444.184 9
 86  6 18  2 37 17.0800000  0  4G12G13G 9G11
  21138660.282    21138664.875     8146319.302 9 -19862489.649 9
  20749784.628    20749787.791    32167164.687 9 -45417766.252 8
  21133002.712    21133006.215    65401194.417 9-107638019.668 8
  24358809.337    24358813.845    94633541.711 9 -84571826.641 9
 86  6 18  2 37 23.0800000  0  4G12G13G 9G11
  21136870.745    21136874.364     8136915.576 9 -19869817.235 9
  20750735.128    20750737.153    32172150.372 9 -45413881.300 9
  21136149.542    21136154.136    65417730.531 9-107625134.385 8
  24361890.239    24361893.726    94649731.640 9 -84559211.093 8
 86  6 18  2 37 29.0800000  0  4G12G13G 9G11
  21135086.240    21135089.290     8127533.962 9 -19877127.584 9
  20751685.552    20751687.851    32177147.056 9 -45409987.776 8
  21139299.910    21139303.752    65434286.883 9-107612233.353 8
  24364969.540    24364973.789    94665918.979 9 -84546597.565 9
 86  6 18  2 37 35.0800000  0  4G12G13G 9G11
  21133304.975    21133308.856     8118174.494 9 -19884420.675 9
  20752637.787    20752640.522    32182154.762 9 -45406085.659 9
  21142454.975    21142458.109    65450863.492 8-107599316.514 8
  24368048.300    24368052.685    94682103.708 8 -84533986.089 9
 86  6 18  2 37 41.0800000  0  4G12G13G 9G11
  21131528.259    21131531.838     8108837.201 9 -19891696.490 9
  20753592.567    20753596.244    32187173.348 9 -45402175.072 8
  21145612.698    21145616.448    65467460.261 9-107586383.970 7
  24371127.377    24371132.751    94698285.834 8 -84521376.635 8
 86  6 18  2 37 47.0800000  0  4G12G13G 9G11
  21129755.610    21129759.127     8099522.086 9 -19898955.019 9
  20754550.572    20754553.090    32192202.892 9 -45398255.944 9
  21148774.038    21148778.342    65484077.320 9-107573435.611 8
  24374205.088    24374211.271    94714465.286 7 -84508769.278 8
 86  6 18  2 37 53.0800000  0  4G12G13G 9G11
  21127987.221    21127990.542     8090229.189 9 -19906196.243 8
  20755509.629    20755512.234    32197243.412 9 -45394328.271 9
  21151940.386    21151944.403    65500714.527 8-107560471.559 7
  24377283.653    24377290.777    94730642.092 8 -84496163.998 9
 86  6 18  2 37 59.0800000  0  4G12G13G 9G11
  21126222.380    21126227.016     8080958.532 9 -19913420.124 8
  20756471.173    20756473.761    32202294.871 9 -45390392.064 9
  21155111.245    21155114.656    65517371.793 9-107547491.878 8
  24380362.478    24380368.096    94746816.247 8 -84483560.756 8
 86  6 18  2 38  5.0800000  0  4G12G13G 9G11
  21124463.091    21124468.042     8071710.156 9 -19920626.642 9
  20757434.764    20757436.705    32207357.224 9 -45386447.373 9
  21158284.538    21158287.835    65534049.450 9-107534496.296 9
  24383439.374    24383445.259    94762987.830 8 -84470959.534 9
 86  6 18  2 38 11.0800000  0  4G12G13G 9G11
  21122707.380    21122711.604     8062484.080 9 -19927815.790 9
  20758399.719    20758402.913    32212430.430 9 -45382494.232 8
  21161461.913    21161465.368    65550747.290 8-107521485.004 8
  24386518.388    24386522.966    94779156.803 9 -84458360.342 8
 86  6 18  2 38 17.0800000  0  4G12G13G 9G11
  21120956.824    21120960.519     8053280.362 9 -19934987.518 9
  20759366.966    20759369.648    32217514.548 9 -45378532.590 8
  21164642.694    21164646.970    65567465.193 9-107508458.071 9
  24389594.630    24389599.327    94795323.106 8 -84445763.225 9
 86  6 18  2 38 23.0800000  0  4G12G13G 9G11
  21119209.614    21119211.891     8044098.930 9 -19942141.880 9
  20760335.924    20760339.633    32222609.509 9 -45374562.488 9
  21167828.703    21167831.590    65584203.258 8-107495415.428 7
  24392670.763    24392674.941    94811486.746 9 -84433168.158 8
 86  6 18  2 38 29.0800000  0  4G12G13G 9G11
  21117466.583    21117469.872     8034939.740 9 -19949278.911 9
  20761307.573    20761310.696    32227715.359 9 -45370583.896 9
  21171017.268    21171020.579    65600961.317 9-107482357.202 8
  24395746.438    24395750.604    94827647.703 9 -84420575.198 8
 86  6 18  2 38 35.0800000  0  4G12G13G 9G11
  21115726.866    21115731.004     8025803.008 9 -19956398.446 9
  20762280.598    20762284.757    32232832.061 9 -45366596.864 9
  21174209.762    21174213.233    65617739.545 9-107469283.250 8
  24398820.608    24398824.693    94843806.029 8 -84407984.277 9
 86  6 18  2 38 41.0800000  0  4G12G13G 9G11
  21113991.993    21113996.382     8016688.597 9 -19963500.577 9
  20763256.490    20763260.352    32237959.565 9 -45362601.402 9
  21177406.275    21177409.386    65634537.859 9-107456193.669 8
  24401893.523    24401899.661    94859961.712 9 -84395395.438 9
 86  6 18  2 38 47.0800000  0  4G12G13G 9G11
  21112262.351    21112266.577     8007596.565 9 -19970585.275 9
  20764233.288    20764238.040    32243097.907 9 -45358597.494 9
  21180607.565    21180610.381    65651356.119 9-107443088.530 9
  24404966.071    24404973.802    94876114.755 8 -84382808.671 9
 86  6 18  2 38 53.0800000  0  4G12G13G 9G11
  21110536.895    21110540.800     7998526.918 9 -19977652.531 9
  20765214.329    20765218.048    32248246.963 9 -45354585.243 8
  21183810.821    21183814.295    65668194.282 9-107429967.892 8
  24408038.563    24408047.049    94892265.111 7 -84370224.021 9
 86  6 18  2 38 59.0800000  0  4G12G13G 9G11
  21108815.238    21108818.488     7989479.699 9 -19984702.309 9
  20766195.804    20766200.076    32253406.652 9 -45350564.705 8
  21187019.381    21187022.770    65685052.431 9-107416831.668 9
  24411111.703    24411119.666    94908412.700 7 -84357641.524 9
 86  6 18  2 39  5.0800000  0  4G12G13G 9G11
  21107098.422    21107101.569     7980454.878 9 -19991734.630 9
  20767179.930    20767184.040    32258577.085 9 -45346535.799 9
  21190232.081    21190235.155    65701930.445 8-107403679.976 8
  24414186.138    24414192.119    94924557.508 8 -84345061.157 9
 86  6 18  2 39 11.0800000  0  4G12G13G 9G11
  21105385.152    21105388.076     7971452.380 9 -19998749.559 9
  20768166.057    20768170.268    32263758.182 9 -45342498.571 9
  21193447.176    21193449.638    65718828.302 9-107390512.829 8
  24417258.740    24417262.905    94940699.522 9 -84332482.955 9
 86  6 18  2 39 17.0800000  0  4G12G13G 9G11
  21103675.830    21103679.351     7962472.235 9 -20005747.077 8
  20769154.006    20769158.244    32268949.855 9 -45338453.108 9
  21196666.382    21196670.390    65735746.026 8-107377330.187 8
  24420330.441    24420333.265    94956838.721 9 -84319906.941 9
 86  6 18  2 39 23.0800000  0  4G12G13G 9G11
  21101970.465    21101974.742     7953514.524 9 -20012727.106 8
  20770143.853    20770148.039    32274152.140 9 -45334399.387 9
  21199889.479    21199892.930    65752683.551 9-107364132.114 8
  24423402.192    24423405.645    94972975.171 9 -84307333.068 7
 86  6 18  2 39 29.0800000  0  4G12G13G 9G11
  21100270.154    21100274.765     7944579.313 9 -20019689.607 9
  20771135.993    20771139.741    32279365.039 9 -45330337.383 9
  21203116.661    21203119.124    65769640.927 9-107350918.568 8
  24426471.914    24426474.377    94989108.848 9 -84294761.342 9
 86  6 18  2 39 35.0800000  0  4G12G13G 9G11
  21098574.258    21098578.224     7935666.617 9 -20026634.568 9
  20772130.682    20772133.571    32284588.514 9 -45326267.147 9
  21206347.200    21206350.263    65786618.068 8-107337689.637 8
  24429541.465    24429544.411    95005239.795 9 -84282191.761 9
 86  6 18  2 39 41.0800000  0  4G12G13G 9G11
  21096882.422    21096886.603     7926776.446 9 -20033561.966 9
  20773126.204    20773128.799    32289822.654 9 -45322188.585 8
  21209582.051    21209585.325    65803615.157 9-107324445.161 8
  24432610.062    24432613.144    95021367.995 9 -84269624.329 8
 86  6 18  2 39 47.0800000  0  4G12G13G 9G11
  21095195.654    21095199.905     7917908.822 9 -20040471.802 9
  20774124.109    20774127.540    32295067.552 9 -45318101.650 9
  21212820.182    21212823.528    65820632.050 9-107311185.248 8
  24435677.880    24435681.284    95037493.483 8 -84257059.011 9
 86  6 18  2 39 53.0800000  0  4G12G13G 9G11
  21093512.635    21093516.568     7909063.725 9 -20047364.083 9
  20775124.378    20775127.867    32300323.085 9 -45314006.426 9
  21216061.596    21216064.034    65837668.738 9-107297909.903 9
  24438745.078    24438750.438    95053616.279 9 -84244495.793 9
 86  6 18  2 39 59.0800000  0  4G12G13G 9G11
  21091833.850    21091837.069     7900241.189 9 -20054238.790 8
  20776126.826    20776129.407    32305589.222 9 -45309902.942 9
  21219307.446    21219310.395    65854725.083 9-107284619.253 9
  24441812.795    24441817.335    95069736.287 8 -84231934.769 8
 86  6 18  2 40  5.0800000  0  4G12G13G 9G11
  21090159.104    21090162.608     7891441.268 9 -20061095.872 9
  20777130.917    20777133.740    32310865.883 9 -45305791.260 8
  21222557.025    21222559.812    65871801.268 9-107271313.131 9
  24444879.676    24444885.075    95085853.536 8 -84219375.873 9
 86  6 18  2 40 11.0800000  0  4G12G13G 9G11
  21088489.020    21088492.309     7882664.037 9 -20067935.272 9
  20778137.553    20778140.054    32316153.152 9 -45301671.305 8
  21225809.286    21225814.286    65888897.145 9-107257991.671 8
  24447947.732    24447951.567    95101967.986 9 -84206819.164 8
 86  6 18  2 40 17.0800000  0  4G12G13G 9G11
  21086822.769    21086826.605     7873909.461 9 -20074757.019 9
  20779146.356    20779148.229    32321451.025 9 -45297543.100 8
  21229066.859    21229070.472    65906012.760 9-107244654.837 8
  24451014.364    24451017.913    95118079.636 9 -84194264.616 9
 86  6 18  2 40 23.0800000  0  4G12G13G 9G11
  21085161.184    21085164.579     7865177.618 9 -20081561.052 8
  20780156.068    20780158.663    32326759.457 9 -45293406.654 9
  21232327.552    21232331.980    65923148.122 9-107231302.612 9
  24454079.460    24454083.289    95134188.499 9 -84181712.254 9
 86  6 18  2 40 29.0800000  0  4G12G13G 9G11
  21083503.550    21083507.530     7856468.478 9 -20088347.389 9
  20781168.469    20781170.872    32332078.549 9 -45289261.918 8
  21235592.043    21235595.473    65940303.170 9-107217935.031 8
  24457145.258    24457148.625    95150294.548 9 -84169162.082 9
 86  6 18  2 40 35.0800000  0  4G12G13G 9G11
  21081851.923    21081854.242     7847782.022 9 -20095116.059 8
  20782182.817    20782183.355    32337408.088 9 -45285109.034 9
  21238859.957    21238863.992    65957477.824 9-107204552.196 9
  24460208.901    24460213.441    95166397.776 9 -84156614.119 9
 86  6 18  2 40 41.0800000  0  4G12G13G 9G11
  21080203.165    21080205.035     7839118.315 9 -20101867.005 9
  20783198.002    20783200.311    32342748.158 9 -45280947.944 8
  21242132.202    21242136.010    65974672.107 9-107191154.052 8
  24463272.407    24463276.659    95182498.180 9 -84144068.353 9
 86  6 18  2 40 47.0800000  0  4G12G13G 9G11
  21078557.890    21078561.121     7830477.294 9 -20108600.270 9
  20784216.702    20784217.866    32348098.709 9 -45276778.682 9
  21245408.205    21245411.860    65991885.985 9-107177740.657 8
  24466334.001    24466340.666    95198595.832 7 -84131524.755 9
 86  6 18  2 40 53.0800000  0  4G12G13G 9G11
  21076917.909    21076921.839     7821859.020 9 -20115315.799 8
  20785236.094    20785238.157    32353459.688 9 -45272601.289 8
  21248686.861    21248690.889    66009119.276 8-107164312.108 8
  24469396.156    24469402.682    95214690.696 7 -84118983.331 9
 86  6 18  2 40 59.0800000  0  4G12G13G 9G11
  21075282.252    21075286.634     7813263.493 9 -20122013.615 9
  20786258.025    20786260.126    32358831.074 9 -45268415.798 8
  21251969.925    21251973.800    66026372.256 9-107150868.239 8
  24472457.902    24472464.424    95230782.754 7 -84106444.089 8
 86  6 18  2 41  5.0800000  0  4G12G13G 9G11
  21073650.664    21073654.242     7804690.795 9 -20128693.648 8
  20787281.135    20787283.324    32364212.926 8 -45264222.154 9
  21255257.013    21255261.560    66043644.794 9-107137409.115 8
  24475521.876    24475526.019    95246871.995 9 -84093907.028 9
 86  6 18  2 41 11.0800000  0  4G12G13G 9G11
  21072023.566    21072027.597     7796140.909 9 -20135355.900 9
  20788307.138    20788311.051    32369605.163 9 -45260020.410 8
  21258547.460    21258551.053    66060936.853 9-107123934.783 8
  24478582.809    24478585.937    95262958.338 8 -84081372.190 9
 86  6 18  2 41 17.0800000  0  4G12G13G 9G11
  21070401.014    21070404.538     7787613.821 9 -20142000.385 8
  20789334.655    20789338.409    32375007.809 8 -45255810.558 8
  21261842.754    21261845.898    66078248.320 9-107110445.337 9
  24481643.619    24481646.649    95279041.850 9 -84068839.567 8
 86  6 18  2 41 23.0800000  0  4G12G13G 9G11
  21068781.159    21068786.065     7779109.529 9 -20148627.109 9
  20790363.819    20790368.757    32380420.796 9 -45251592.642 8
  21265139.772    21265143.456    66095579.291 9-107096940.688 9
  24484704.063    24484706.391    95295122.461 9 -84056309.199 8
 86  6 18  2 41 29.0800000  0  4G12G13G 9G11
  21067168.139    21067172.457     7770628.036 9 -20155236.061 8
  20791395.496    20791401.256    32385844.123 8 -45247366.670 8
  21268441.169    21268445.522    66112929.631 8-107083420.931 8
  24487762.624    24487767.173    95311200.148 9 -84043781.122 9
 86  6 18  2 41 35.0800000  0  4G12G13G 9G11
  21065558.410    21065562.775     7762169.334 9 -20161827.253 9
  20792430.311    20792434.459    32391277.791 9 -45243132.639 8
  21271746.718    21271750.764    66130299.374 8-107069886.079 8
  24490821.083    24490826.114    95327274.951 8 -84031255.309 8
 86  6 18  2 41 41.0800000  0  4G12G13G 9G11
  21063953.719    21063957.125     7753733.488 9 -20168400.654 8
  20793466.611    20793472.008    32396721.729 8 -45238890.607 9
  21275055.365    21275059.974    66147688.446 9-107056336.160 8
  24493879.403    24493884.524    95343346.902 9 -84018731.721 9
 86  6 18  2 41 47.0800000  0  4G12G13G 9G11
  21062352.522    21062356.701     7745320.488 9 -20174956.229 9
  20794504.722    20794509.556    32402175.893 9 -45234640.602 9
  21278369.184    21278372.824    66165096.840 8-107042771.179 9
  24496936.750    24496942.934    95359415.942 9 -84006210.396 9
 86  6 18  2 41 53.0800000  0  4G12G13G 9G11
  21060755.928    21060760.432     7736930.400 9 -20181493.957 9
  20795545.169    20795549.410    32407640.324 9 -45230382.611 8
  21281684.910    21281689.491    66182524.593 9-107029191.114 9
  24499995.006    24500000.158    95375482.005 8 -83993691.395 9
 86  6 18  2 41 59.0800000  0  4G12G13G 9G11
  21059164.397    21059168.164     7728563.233 9 -20188013.824 9
  20796586.725    20796591.343    32413115.086 9 -45226116.553 9
  21285005.550    21285009.485    66199971.642 9-107015596.010 9
  24503051.456    24503055.600    95391545.128 9 -83981174.679 9
 86  6 18  2 42  5.0800000  0  4G12G13G 9G11
  21057575.850    21057580.974     7720219.090 9 -20194515.746 9
  20797630.987    20797634.157    32418600.098 9 -45221842.526 9
  21288329.479    21288333.077    66217437.983 8-107001985.888 9
  24506107.930    24506113.311    95407605.332 9 -83968660.227 9
 86  6 18  2 42 11.0800000  0  4G12G13G 9G11
  21055992.110    21055996.690     7711897.960 9 -20200999.763 8
  20798677.163    20798680.684    32424095.377 9 -45217560.483 8
  21291657.024    21291660.466    66234923.637 9-106988360.708 8
  24509164.253    24509169.100    95423662.663 9 -83956148.034 8
 86  6 18  2 42 17.0800000  0  4G12G13G 9G11
  21054413.142    21054417.585     7703599.822 9 -20207465.835 9
  20799724.973    20799728.548    32429600.852 9 -45213270.510 9
  21294987.975    21294992.198    66252428.575 9-106974720.492 9
  24512218.910    24512223.062    95439717.149 9 -83943638.019 8
 86  6 18  2 42 23.0800000  0  4G12G13G 9G11
  21052838.589    21052842.110     7695324.697 9 -20213913.983 9
  20800774.859    20800778.464    32435116.587 9 -45208972.527 8
  21298322.208    21298325.525    66269952.838 9-106961065.227 9
  24515273.213    24515277.003    95455768.742 9 -83931130.274 9
 86  6 18  2 42 29.0800000  0  4G12G13G 9G11
  21051268.384    21051271.335     7687072.577 9 -20220344.210 9
  20801826.824    20801829.691    32440642.563 9 -45204666.569 9
  21301660.982    21301664.589    66287496.281 9-106947395.022 9
  24518325.460    24518330.973    95471817.432 8 -83918624.800 9
 86  6 18  2 42 35.0800000  0  4G12G13G 9G11
  21049702.154    21049705.919     7678843.485 9 -20226756.479 9
  20802880.267    20802883.356    32446178.797 9 -45200352.625 8
  21305003.009    21305006.946    66305058.953 9-106933709.825 8
  24521378.784    24521384.915    95487863.201 8 -83906121.620 8
 86  6 18  2 42 41.0800000  0  4G12G13G 9G11
  21048141.193    21048144.484     7670637.425 9 -20233150.812 8
  20803936.106    20803938.368    32451725.207 9 -45196030.743 9
  21308347.972    21308352.391    66322640.804 9-106920009.685 8
  24524433.042    24524437.732    95503905.980 8 -83893620.752 8
 86  6 18  2 42 47.0800000  0  4G12G13G 9G11
  21046583.523    21046587.186     7662454.421 9 -20239527.189 8
  20804993.105    20804995.834    32457281.791 9 -45191700.930 8
  21311699.444    21311701.825    66340241.822 8-106906294.609 9
  24527486.033    24527491.121    95519945.802 8 -83881122.191 8
 86  6 18  2 42 53.0800000  0  4G12G13G 9G11
  21045030.513    21045034.219     7654294.421 9 -20245885.629 9
  20806052.615    20806055.785    32462848.510 9 -45187363.241 9
  21315051.229    21315054.407    66357861.896 8-106892564.700 9
  24530536.569    24530542.573    95535982.685 9 -83868625.912 9
 86  6 18  2 42 59.0800000  0  4G12G13G 9G11
  21043483.092    21043486.253     7646157.498 9 -20252226.088 8
  20807113.264    20807116.921    32468425.313 9 -45183017.672 9
  21318406.821    21318411.735    66375501.102 9-106878819.865 9
  24533587.943    24533593.616    95552016.578 8 -83856131.975 9
 86  6 18  2 43  5.0800000  0  4G12G13G 9G11
  21041939.613    21041942.575     7638043.624 9 -20258548.592 9
  20808176.531    20808180.121    32474012.152 9 -45178664.296 8
  21321767.668    21321772.292    66393159.410 9-106865060.144 9
  24536637.925    24536644.622    95568047.468 8 -83843640.389 9
 86  6 18  2 43 11.0800000  0  4G12G13G 9G11
  21040400.744    21040403.049     7629952.814 9 -20264853.120 8
  20809241.254    20809244.543    32479609.044 9 -45174303.082 9
  21325131.988    21325136.020    66410836.652 9-106851285.678 8
  24539688.638    24539695.104    95584075.308 8 -83831151.159 9
 86  6 18  2 43 17.0800000  0  4G12G13G 9G11
  21038864.594    21038867.757     7621885.102 9 -20271139.649 9
  20810308.613    20810312.116    32485215.998 9 -45169934.034 8
  21328499.400    21328504.037    66428532.933 8-106837496.372 9
  24542737.202    24542744.725    95600100.179 8 -83818664.258 9
 86  6 18  2 43 23.0800000  0  4G12G13G 9G11
  21037332.908    21037336.257     7613840.478 9 -20277408.183 9
  20811377.505    20811380.235    32490832.941 9 -45165557.188 9
  21331870.283    21331873.666    66446248.225 9-106823692.252 8
  24545786.740    24545793.081    95616121.998 9 -83806179.735 9
 86  6 18  2 43 29.0800000  0  4G12G13G 9G11
  21035806.521    21035809.940     7605818.995 9 -20283658.693 8
  20812447.892    20812450.276    32496459.924 9 -45161172.517 8
  21335245.506    21335248.098    66463982.529 9-106809873.331 9
  24548835.853    24548840.996    95632140.762 9 -83793697.579 9
 86  6 18  2 43 35.0800000  0  4G12G13G 9G11
  21034283.904    21034287.827     7597820.700 9 -20289891.140 9
  20813520.366    20813523.323    32502096.852 9 -45156780.115 9
  21338623.449    21338626.528    66481735.655 9-106796039.736 9
  24551883.752    24551888.282    95648156.528 8 -83781217.759 8
 86  6 18  2 43 41.0800000  0  4G12G13G 9G11
  21032766.443    21032771.207     7589845.614 8 -20296105.485 9
  20814594.586    20814597.937    32507743.795 9 -45152379.904 9
  21342004.883    21342009.254    66499507.781 9-106782191.325 9
  24554930.949    24554936.291    95664169.275 9 -83768740.284 9
 86  6 18  2 43 47.0800000  0  4G12G13G 9G11
  21031253.475    21031257.407     7581893.717 9 -20302301.764 8
  20815671.209    20815674.939    32513400.706 9 -45147971.915 9
  21345391.125    21345395.597    66517298.853 9-106768328.152 8
  24557977.262    24557982.138    95680179.036 8 -83756265.141 9
 86  6 18  2 43 53.0800000  0  4G12G13G 9G11
  21029744.736    21029748.589     7573965.022 9 -20308479.967 9
  20816749.350    20816753.152    32519067.605 9 -45143556.152 8
  21348780.181    21348784.343    66535108.849 9-106754450.245 8
  24561023.930    24561027.894    95696185.809 8 -83743792.312 9
 86  6 18  2 43 59.0800000  0  4G12G13G 9G11
  21028240.983    21028244.303     7566059.616 9 -20314640.033 9
  20817829.980    20817833.405    32524744.501 9 -45139132.595 9
  21352172.890    21352176.173    66552937.753 9-106740557.609 9
  24564068.887    24564073.544    95712189.590 8 -83731321.820 8
 86  6 18  2 44  5.0800000  0  4G12G13G 9G11
  21026740.208    21026743.200     7558177.518 9 -20320781.926 9
  20818911.991    20818916.571    32530431.367 9 -45134701.279 8
  21355569.330    21355572.495    66570785.585 8-106726650.205 8
  24567112.994    24567118.593    95728190.393 9 -83718853.663 9
 86  6 18  2 44 11.0800000  0  4G12G13G 9G11
  21025244.753    21025248.544     7550318.764 9 -20326905.621 8
  20819995.934    20819999.399    32536128.238 9 -45130262.155 9
  21358968.756    21358972.411    66588652.331 9-106712728.079 8
  24570157.144    24570162.428    95744188.175 9 -83706387.857 8
 86  6 18  2 44 17.0800000  0  4G12G13G 9G11
  21023754.221    21023757.457     7542483.396 9 -20333011.114 9
  20821081.973    20821085.891    32541835.066 9 -45125815.278 9
  21362372.732    21362375.738    66606537.790 9-106698791.357 8
  24573200.028    24573207.559    95760182.968 8 -83693924.411 9
 86  6 18  2 44 23.0800000  0  4G12G13G 9G11
  21022267.493    21022271.215     7534671.377 9 -20339098.396 9
  20822169.903    20822173.326    32547551.843 9 -45121360.640 9
  21365780.152    21365783.048    66624442.144 8-106684839.922 8
  24576243.982    24576249.342    95776174.708 8 -83681463.320 9
 86  6 18  2 44 29.0800000  0  4G12G13G 9G11
  21020785.885    21020790.126     7526882.726 9 -20345167.479 9
  20823260.207    20823262.840    32553278.509 9 -45116898.298 9
  21369189.669    21369193.295    66642365.320 9-106670873.823 8
  24579287.821    24579292.049    95792163.434 8 -83669004.589 9
 86  6 18  2 44 35.0800000  0  4G12G13G 9G11
  21019308.982    21019311.387     7519117.467 9 -20351218.328 9
  20824352.003    20824354.704    32559015.050 9 -45112428.269 9
  21372604.759    21372608.195    66660307.236 8-106656893.101 9
  24582330.190    24582334.972    95808149.132 9 -83656548.204 8
 86  6 18  2 44 41.0800000  0  4G12G13G 9G11
  21017834.103    21017838.296     7511375.584 9 -20357250.966 8
  20825444.942    20825448.705    32564761.449 9 -45107950.562 8
  21376022.147    21376025.373    66678267.925 9-106642897.769 9
  24585370.843    24585374.776    95824131.759 9 -83644094.208 9
 86  6 18  2 44 47.0800000  0  4G12G13G 9G11
  21016365.407    21016369.654     7503657.077 9 -20363265.390 9
  20826540.394    20826544.251    32570517.687 9 -45103465.179 8
  21379444.505    21379447.198    66696247.292 8-106628887.882 8
  24588411.940    24588415.925    95840111.299 9 -83631642.602 8
 86  6 18  2 44 53.0800000  0  4G12G13G 9G11
  21014900.829    21014905.174     7495961.892 9 -20369261.635 9
  20827637.565    20827640.661    32576283.751 9 -45098972.144 9
  21382869.259    21382871.163    66714245.335 9-106614863.439 9
  24591451.732    24591455.132    95856087.728 9 -83619193.416 8
 86  6 18  2 44 59.0800000  0  4G12G13G 9G11
  21013441.809    21013445.095     7488290.037 9 -20375239.695 9
  20828736.683    20828740.621    32582059.570 9 -45094471.514 9
  21386297.130    21386301.238    66732262.039 9-106600824.451 9
  24594491.154    24594496.163    95872061.051 9 -83606746.660 9
 86  6 18  2 45  5.0800000  0  4G12G13G 9G11
  21011986.990    21011990.270     7480641.576 9 -20381199.531 9
  20829838.863    20829841.513    32587845.219 9 -45089963.213 8
  21389728.589    21389731.881    66750297.397 8-106586770.924 8
  24597530.414    24597533.902    95888031.249 8 -83594302.339 9
 86  6 18  2 45 11.0800000  0  4G12G13G 9G11
  21010535.237    21010538.812     7473016.615 9 -20387141.065 8
  20830941.017    20830944.928    32593640.658 9 -45085447.290 8
  21393164.684    21393168.301    66768351.308 9-106572702.955 8
  24600568.764    24600572.990    95903998.345 9 -83581860.438 9
 86  6 18  2 45 17.0800000  0  4G12G13G 9G11
  21009088.546    21009092.181     7465415.085 9 -20393064.340 9
  20832045.660    20832049.191    32599445.847 9 -45080923.770 8
  21396603.660    21396606.742    66786423.774 8-106558620.519 8
  24603605.257    24603611.571    95919962.356 9 -83569420.949 9
 86  6 18  2 45 23.0800000  0  4G12G13G 9G11
  21007647.411    21007650.233     7457836.997 9 -20398969.343 9
  20833152.164    20833155.150    32605260.826 9 -45076392.623 8
  21400046.099    21400049.140    66804514.799 9-106544523.607 9
  24606642.411    24606648.702    95935923.233 9 -83556983.911 9
 86  6 18  2 45 29.0800000  0  4G12G13G 9G11
  21006209.536    21006212.840     7450282.468 9 -20404855.990 9
  20834260.268    20834264.225    32611085.579 9 -45071853.853 9
  21403492.325    21403494.715    66822624.403 9-106530412.246 9
  24609679.018    24609685.260    95951881.087 8 -83544549.242 9
 86  6 18  2 45 35.0800000  0  4G12G13G 9G11
  21004776.869    21004779.647     7442751.490 9 -20410724.278 9
  20835370.580    20835374.790    32616920.061 9 -45067307.515 8
  21406941.461    21406945.163    66840752.628 9-106516286.352 9
  24612715.582    24612720.979    95967835.892 9 -83532116.936 9
 86  6 18  2 45 41.0800000  0  4G12G13G 9G11
  21003348.097    21003351.490     7435244.071 9 -20416574.221 9
  20836483.388    20836486.631    32622764.312 9 -45062753.542 8
  21410394.955    21410398.992    66858899.431 8-106502146.000 8
  24615751.065    24615756.351    95983787.624 9 -83519687.017 9
 86  6 18  2 45 47.0800000  0  4G12G13G 9G11
  21001923.472    21001927.565     7427760.266 9 -20422405.767 9
  20837596.550    20837600.321    32628618.356 9 -45058191.966 9
  21413852.352    21413854.829    66877064.734 9-106487991.210 8
  24618786.241    24618791.355    95999736.275 9 -83507259.478 8
 86  6 18  2 45 53.0800000  0  4G12G13G 9G11
  21000504.082    21000507.021     7420300.039 9 -20428218.924 9
  20838712.310    20838715.734    32634482.093 9 -45053622.810 9
  21417312.162    21417315.417    66895248.459 8-106473822.082 8
  24621820.719    24621825.853    96015681.803 9 -83494834.385 9
 86  6 18  2 45 59.0800000  0  4G12G13G 9G11
  20999088.731    20999092.109     7412863.311 9 -20434013.789 9
  20839829.895    20839833.545    32640355.483 9 -45049046.143 9
  21420775.673    21420778.222    66913450.599 8-106459638.595 8
  24624853.567    24624859.446    96031624.180 9 -83482411.728 9
 86  6 18  2 46  5.0800000  0  4G12G13G 9G11
  20997678.849    20997680.948     7405450.134 9 -20439790.281 9
  20840948.938    20840952.793    32646238.522 9 -45044461.945 9
  21424243.650    21424246.805    66931671.223 9-106445440.719 9
  24627886.696    24627892.059    96047563.397 9 -83469991.557 9
 86  6 18  2 46 11.0800000  0  4G12G13G 9G11
  20996272.309    20996275.613     7398060.609 9 -20445548.357 9
  20842070.261    20842073.684    32652131.183 9 -45039870.268 9
  21427713.094    21427716.960    66949910.258 9-106431228.488 8
  24630918.802    24630925.763    96063499.472 8 -83457573.843 9
 86  6 18  2 46 17.0800000  0  4G12G13G 9G11
  20994870.895    20994873.931     7390694.671 9 -20451288.052 9
  20843193.429    20843198.311    32658033.377 9 -45035271.149 8
  21431187.844    21431191.666    66968167.559 9-106417002.016 8
  24633950.806    24633957.403    96079432.369 9 -83445158.593 9
 86  6 18  2 46 23.0800000  0  4G12G13G 9G11
  20993472.970    20993476.792     7383352.233 9 -20457009.438 9
  20844319.240    20844322.104    32663945.168 9 -45030664.552 8
  21434666.791    21434669.124    66986443.160 8-106402761.295 8
  24636982.259    24636988.122    96095362.039 7 -83432745.883 9
 86  6 18  2 46 29.0800000  0  4G12G13G 9G11
  20992080.601    20992083.777     7376033.408 9 -20462712.418 9
  20845445.657    20845448.925    32669866.434 9 -45026050.576 9
  21438147.788    21438150.265    67004737.100 9-106388506.276 9
  24640012.981    24640018.792    96111288.543 8 -83420335.616 9
 86  6 18  2 46 35.0800000  0  4G12G13G 9G11
  20990691.840    20990696.112     7368738.226 9 -20468396.980 8
  20846573.856    20846577.542    32675797.317 8 -45021429.119 8
  21441631.885    21441635.016    67023049.332 8-106374237.016 9
  24643043.394    24643049.288    96127211.857 9 -83407927.852 9
 86  6 18  2 46 41.0800000  0  4G12G13G 9G11
  20989308.737    20989312.230     7361466.721 9 -20474063.089 9
  20847704.420    20847707.607    32681737.780 9 -45016800.174 9
  21445120.552    21445123.636    67041379.853 8-106359953.481 8
  24646074.583    24646079.173    96143131.987 9 -83395522.544 8
 86  6 18  2 46 47.0800000  0  4G12G13G 9G11
  20987929.128    20987932.793     7354218.906 9 -20479710.736 8
  20848835.715    20848840.259    32687687.822 9 -45012163.776 8
  21448611.556    21448614.911    67059728.639 9-106345655.723 7
  24649103.731    24649107.072    96159048.947 9 -83383119.711 9
 86  6 18  2 46 53.0800000  0  4G12G13G 9G11
  20986554.242    20986558.319     7346994.751 9 -20485339.949 9
  20849970.289    20849973.702    32693647.382 9 -45007519.963 9
  21452107.941    21452110.246    67078095.617 9-106331343.801 8
  24652131.035    24652135.902    96174962.741 9 -83370719.344 8
 86  6 18  2 46 59.0800000  0  4G12G13G 9G11
  20985184.396    20985188.445     7339794.336 9 -20490950.670 9
  20851106.017    20851109.847    32699616.420 9 -45002868.773 9
  21455605.957    21455608.863    67096480.845 9-106317017.653 9
  24655159.496    24655162.943    96190873.377 9 -83358321.432 9
 86  6 18  2 47  5.0800000  0  4G12G13G 9G11
  20983818.521    20983822.977     7332617.643 9 -20496542.901 8
  20852243.220    20852246.895    32705594.952 9 -44998210.168 8
  21459108.218    21459110.838    67114884.263 9-106302677.323 9
  24658187.000    24658190.216    96206780.801 8 -83345926.026 9
 86  6 18  2 47 11.0800000  0  4G12G13G 9G11
  20982457.001    20982461.326     7325464.674 9 -20502116.643 9
  20853382.692    20853386.862    32711582.950 9 -44993544.196 9
  21462613.836    21462616.686    67133305.834 9-106288322.862 8
  24661212.965    24661216.512    96222685.019 9 -83333533.117 8
 86  6 18  2 47 17.0800000  0  4G12G13G 9G11
  20981099.862    20981104.729     7318335.459 9 -20507671.879 9
  20854524.675    20854528.540    32717580.357 8 -44988870.890 8
  21466123.098    21466125.758    67151745.450 9-106273954.329 9
  24664239.639    24664242.587    96238586.008 9 -83321142.723 9
 86  6 18  2 47 23.0800000  0  4G12G13G 9G11
  20979748.502    20979751.577     7311229.980 9 -20513208.623 8
  20855668.297    20855671.720    32723587.135 9 -44984190.288 8
  21469635.185    21469637.921    67170203.215 9-106259571.648 9
  24667264.150    24667267.448    96254483.697 9 -83308754.886 9
 86  6 18  2 47 29.0800000  0  4G12G13G 9G11
  20978400.602    20978403.823     7304148.281 9 -20518726.828 8
  20856813.660    20856815.849    32729603.286 9 -44979502.374 8
  21473150.516    21473154.157    67188679.098 9-106245174.867 8
  24670287.517    24670293.082    96270378.147 9 -83296369.591 9
 86  6 18  2 47 35.0800000  0  4G12G13G 9G11
  20977057.082    20977061.762     7297090.404 9 -20524226.466 8
  20857959.665    20857962.873    32735628.819 8 -44974807.161 9
  21476670.233    21476673.808    67207172.986 9-106230764.047 7
  24673312.233    24673316.409    96286269.388 9 -83283986.803 9
 86  6 18  2 47 41.0800000  0  4G12G13G 9G11
  20975718.771    20975723.322     7290056.419 9 -20529707.505 8
  20859108.633    20859112.210    32741663.795 9 -44970104.569 8
  21480192.203    21480196.383    67225684.922 9-106216339.153 8
  24676335.434    24676340.596    96302157.344 8 -83271606.581 9
 86  6 18  2 47 47.0800000  0  4G12G13G 9G11
  20974385.097    20974389.705     7283046.242 9 -20535169.977 9
  20860258.756    20860261.986    32747708.192 9 -44965394.650 9
  21483719.676    21483721.680    67244214.836 9-106201900.266 9
  24679356.581    24679362.595    96318042.101 8 -83259228.868 8
 86  6 18  2 47 53.0800000  0  4G12G13G 9G11
  20973055.600    20973059.437     7276059.915 9 -20540613.874 9
  20861410.480    20861413.768    32753761.957 9 -44960677.428 9
  21487248.762    21487251.082    67262762.731 9-106187447.366 8
  24682378.772    24682385.596    96333923.576 7 -83246853.723 9
 86  6 18  2 47 59.0800000  0  4G12G13G 9G11
  20971730.339    20971735.016     7269097.433 9 -20546039.184 9
  20862564.336    20862568.389    32759825.051 9 -44955952.942 8
  21490782.227    21490784.823    67281328.592 9-106172980.452 8
  24685401.440    24685407.607    96349801.760 8 -83234481.098 9
 86  6 18  2 48  5.0800000  0  4G12G13G 9G11
  20970410.199    20970414.735     7262158.797 9 -20551445.919 8
  20863720.353    20863723.723    32765897.513 9 -44951221.154 9
  21494318.811    21494320.816    67299912.536 9-106158499.473 9
  24688422.959    24688428.004    96365676.724 8 -83222111.002 9
 86  6 18  2 48 11.0800000  0  4G12G13G 9G11
  20969094.324    20969099.532     7255244.061 9 -20556834.020 9
  20864877.641    20864881.057    32771979.319 9 -44946482.090 8
  21497858.046    21497861.514    67318514.345 9-106144004.555 8
  24691442.866    24691448.274    96381548.459 8 -83209743.395 9
 86  6 18  2 48 17.0800000  0  4G12G13G 9G11
  20967783.348    20967787.652     7248353.215 9 -20562203.510 9
  20866036.748    20866039.787    32778070.426 9 -44941735.771 9
  21501402.071    21501404.081    67337134.117 9-106129495.639 8
  24694463.257    24694468.621    96397416.914 9 -83197378.354 9
 86  6 18  2 48 23.0800000  0  4G12G13G 9G11
  20966477.140    20966481.405     7241486.282 9 -20567554.367 8
  20867197.289    20867200.445    32784170.811 9 -44936982.226 9
  21504947.926    21504951.806    67355771.788 9-106114972.789 9
  24697481.646    24697487.427    96413282.135 9 -83185015.838 9
 86  6 18  2 48 29.0800000  0  4G12G13G 9G11
  20965174.921    20965178.886     7234643.261 9 -20572886.578 9
  20868360.454    20868363.570    32790280.486 9 -44932221.442 9
  21508498.000    21508501.516    67374427.299 9-106100436.035 8
  24700500.702    24700505.383    96429144.096 9 -83172655.862 8
 86  6 18  2 48 35.0800000  0  3G12G13G 9
  20963876.645    20963880.905     7227824.247 9 -20578200.103 8
  20869524.881    20869527.208    32796399.430 9 -44927453.426 9
  21512051.277    21512054.236    67393100.765 9-106085885.289 9
 86  6 18  2 48 41.0800000  0  3G12G13G 9
  20962584.251    20962588.121     7221029.231 9 -20583494.918 8
  20870690.395    20870693.531    32802527.673 9 -44922678.177 9
  21515607.598    21515611.267    67411792.022 8-106071320.672 8
 86  6 18  2 48 47.0800000  0  3G12G13G 9
  20961294.800    20961298.198     7214258.234 9 -20588771.022 8
  20871859.221    20871861.764    32808665.098 9 -44917895.770 9
  21519167.668    21519171.299    67430501.082 9-106056742.191 8
 86  6 18  2 48 53.0800000  0  3G12G13G 9
  20960010.865    20960016.105     7207511.192 9 -20594028.451 9
  20873028.712    20873031.895    32814811.784 8 -44913106.143 8
  21522731.697    21522735.419    67449227.966 9-106042149.823 8
 86  6 18  2 48 59.0800000  0  3G12G13G 9
  20958732.401    20958736.531     7200788.275 9 -20599267.091 9
  20874199.717    20874201.718    32820967.811 9 -44908309.242 8
  21526298.444    21526301.732    67467972.642 9-106027543.579 9
 86  6 18  2 49  5.0800000  0  3G12G13G 9
  20957457.583    20957460.993     7194089.369 9 -20604487.021 8
  20875373.786    20875376.052    32827132.994 9 -44903505.199 8
  21529869.065    21529872.615    67486734.914 9-106012923.631 9
 86  6 18  2 49 11.0800000  0  3G12G13G 9
  20956186.307    20956191.652     7187414.556 9 -20609688.175 9
  20876548.088    20876551.001    32833307.391 9 -44898693.977 9
  21533443.120    21533446.113    67505515.036 9-105998289.784 7
 86  6 18  2 49 17.0800000  0  3G12G13G 9
  20954920.831    20954925.615     7180763.755 9 -20614870.614 9
  20877724.644    20877727.199    32839490.934 9 -44893875.641 9
  21537020.208    21537023.195    67524312.802 9-105983642.169 8
 86  6 18  2 49 23.0800000  0  3G12G13G 9
  20953659.946    20953664.837     7174136.971 9 -20620034.338 8
  20878902.520    20878904.958    32845683.577 9 -44889050.224 8
  21540600.597    21540603.852    67543128.178 9-105968980.843 8
 86  6 18  2 49 29.0800000  0  3G12G13G 9
  20952403.224    20952408.685     7167534.181 9 -20625179.365 8
  20880083.284    20880086.157    32851885.317 9 -44884217.697 8
  21544184.649    21544188.080    67561961.133 9-105954305.818 8
 86  6 18  2 49 35.0800000  0  3G12G13G 9
  20951151.628    20951155.875     7160955.459 9 -20630305.647 9
  20881265.598    20881267.278    32858096.118 9 -44879378.112 8
  21547770.724    21547774.570    67580811.622 9-105939617.127 8
 86  6 18  2 49 41.0800000  0  3G12G13G 9
  20949904.738    20949908.481     7154400.891 9 -20635413.100 8
  20882448.907    20882451.066    32864316.021 9 -44874531.434 9
  21551361.377    21551365.119    67599679.772 9-105924914.682 8
 86  6 18  2 49 47.0800000  0  3G12G13G 9
  20948661.519    20948665.874     7147870.423 9 -20640501.770 9
  20883634.883    20883637.168    32870544.937 9 -44869677.737 9
  21554955.599    21554959.278    67618565.492 9-105910198.535 9
 86  6 18  2 49 53.0800000  0  3G12G13G 9
  20947423.610    20947428.129     7141364.198 9 -20645571.561 8
  20884821.973    20884825.169    32876782.950 9 -44864816.947 8
  21558552.490    21558555.665    67637468.775 9-105895468.707 8
 86  6 18  2 49 59.0800000  0  3G12G13G 9
  20946190.724    20946194.974     7134882.172 9 -20650622.498 9
  20886010.663    20886013.135    32883030.129 9 -44859949.014 9
  21562153.427    21562156.300    67656389.604 9-105880725.209 8
 86  6 18  2 50  5.0800000  0  3G12G13G 9
  20944961.001    20944965.156     7128424.215 8 -20655654.673 8
  20887202.106    20887203.803    32889286.338 9 -44855074.049 9
  21565756.273    21565760.338    67675327.905 9-105865968.100 8
 86  6 18  2 50 11.0800000  0  3G12G13G 9
  20943736.628    20943741.079     7121990.470 9 -20660667.977 8
  20888393.550    20888396.160    32895551.472 9 -44850192.116 9
  21569363.706    21569367.351    67694283.669 8-105851197.373 8
 86  6 18  2 50 17.0800000  0  3G12G13G 9
  20942516.759    20942522.268     7115580.934 9 -20665662.420 8
  20889587.162    20889589.962    32901825.561 9 -44845303.211 8
  21572974.412    21572977.771    67713257.024 9-105836412.955 8
 86  6 18  2 50 23.0800000  0  3G12G13G 9
  20941302.556    20941307.234     7109195.610 9 -20670637.999 9
  20890782.407    20890786.039    32908108.712 9 -44840407.248 8
  21576588.035    21576592.674    67732247.740 9-105821614.994 8
 86  6 18  2 50 29.0800000  0  3G12G13G 9
  20940091.785    20940095.222     7102834.556 9 -20675594.656 9
  20891980.486    20891983.315    32914400.846 9 -44835504.284 9
  21580204.713    21580209.298    67751255.827 8-105806803.510 8
 86  6 18  2 50 35.0800000  0  3G12G13G 9
  20938885.554    20938889.941     7096497.774 9 -20680532.409 8
  20893178.507    20893181.781    32920702.022 9 -44830594.269 9
  21583824.557    21583829.323    67770281.245 9-105791978.510 8
 86  6 18  2 50 41.0800000  0  3G12G13G 9
  20937684.389    20937688.667     7090185.161 9 -20685451.338 8
  20894379.649    20894383.026    32927012.077 9 -44825677.340 9
  21587447.816    21587453.318    67789323.949 7-105777140.043 8
 86  6 18  2 50 47.0800000  0  3G12G13G 9
  20936488.143    20936492.651     7083896.692 9 -20690351.433 8
  20895581.793    20895585.754    32933330.989 9 -44820753.511 9
  21591075.540    21591079.186    67808383.918 9-105762288.135 8
 86  6 18  2 50 53.0800000  0  3G12G13G 9
  20935296.018    20935300.195     7077632.504 9 -20695232.616 8
  20896785.656    20896789.483    32939658.865 9 -44815822.699 9
  21594704.952    21594709.843    67827461.128 8-105747422.768 8
 86  6 18  2 50 59.0800000  0  3G12G13G 9
  20934108.212    20934113.171     7071392.651 9 -20700094.838 8
  20897991.690    20897995.462    32945995.633 9 -44810884.957 9
  21598339.908    21598344.230    67846555.678 8-105732543.894 9
 86  6 18  2 51  5.0800000  0  3G12G13G 9
  20932925.362    20932930.842     7065177.152 9 -20704938.095 9
  20899199.501    20899202.226    32952341.282 9 -44805940.298 9
  21601976.007    21601980.454    67865667.567 9-105717651.531 9
 86  6 18  2 51 11.0800000  0  3G12G13G 9
  20931747.198    20931753.252     7058985.952 9 -20709762.399 9
  20900409.225    20900410.882    32958695.813 9 -44800988.707 8
  21605616.685    21605621.209    67884796.661 8-105702745.742 9
 86  6 18  2 51 17.0800000  0  3G12G13G 9
  20930573.974    20930578.994     7052819.008 9 -20714567.808 9
  20901619.443    20901622.615    32965059.261 9 -44796030.172 9
  21609259.825    21609263.928    67903942.969 9-105687826.551 8
 86  6 18  2 51 23.0800000  0  3G12G13G 9
  20929405.712    20929409.474     7046676.414 9 -20719354.246 8
  20902831.946    20902835.273    32971431.653 9 -44791064.678 8
  21612906.360    21612911.923    67923106.521 8-105672893.921 8
 86  6 18  2 51 29.0800000  0  3G12G13G 9
  20928241.669    20928244.636     7040558.142 9 -20724121.727 9
  20904046.451    20904050.080    32977812.881 9 -44786092.295 8
  21616556.730    21616561.718    67942287.223 9-105657947.925 8
 86  6 18  2 51 35.0800000  0  3G12G13G 9
  20927083.025    20927085.403     7034464.302 9 -20728870.168 8
  20905261.647    20905264.904    32984202.886 9 -44781113.063 9
  21620210.326    21620214.463    67961485.091 8-105642988.548 8
 86  6 18  2 51 41.0800000  0  3G12G13G 9
  20925927.353    20925930.583     7028394.898 9 -20733599.581 8
  20906480.159    20906484.060    32990601.681 9 -44776126.979 9
  21623865.867    21623870.739    67980700.150 8-105628015.780 8
 86  6 18  2 51 47.0800000  0  3G12G13G 9
  20924776.987    20924780.198     7022349.991 9 -20738309.901 9
  20907698.876    20907703.314    32997009.315 9 -44771134.023 9
  21627525.662    21627530.686    67999932.394 9-105613029.631 8
 86  6 18  2 51 53.0800000  0  3G12G13G 9
  20923630.441    20923634.816     7016329.536 9 -20743001.163 9
  20908919.417    20908922.949    33003425.761 9 -44766134.200 9
  21631188.796    21631193.954    68019181.766 8-105598030.114 9
 86  6 18  2 51 59.0800000  0  3G12G13G 9
  20922489.205    20922493.868     7010333.566 9 -20747673.348 9
  20910142.853    20910145.923    33009851.057 9 -44761127.464 9
  21634855.212    21634859.315    68038448.179 8-105583017.333 8
 86  6 18  2 52  5.0800000  0  3G12G13G 9
  20921353.289    20921358.383     7004362.052 9 -20752326.472 9
  20911366.485    20911370.346    33016285.243 9 -44756113.815 8
  21638524.757    21638529.862    68057731.676 9-105567991.235 8
 86  6 18  2 52 11.0800000  0  3G12G13G 9
  20920222.546    20920225.873     6998415.015 9 -20756960.528 9
  20912593.071    20912596.628    33022728.270 9 -44751093.282 8
  21642197.841    21642201.901    68077032.166 9-105552951.898 8
 86  6 18  2 52 17.0800000  0  3G12G13G 9
  20919094.336    20919097.719     6992492.424 9 -20761575.531 9
  20913820.800    20913824.128    33029179.923 9 -44746065.998 9
  21645873.367    21645877.761    68096349.615 9-105537899.335 8
 86  6 18  2 52 23.0800000  0  3G12G13G 9
  20917972.271    20917977.108     6986594.277 9 -20766171.502 9
  20915051.392    20915052.689    33035640.230 9 -44741031.993 9
  21649552.775    21649556.975    68115684.034 9-105522833.566 8
 86  6 18  2 52 29.0800000  0  3G12G13G 9
  20916854.315    20916857.998     6980720.569 9 -20770748.410 8
  20916281.270    20916284.397    33042109.157 9 -44735991.281 8
  21653234.836    21653239.346    68135035.280 9-105507754.674 9
 86  6 18  2 52 35.0800000  0  3G12G13G 9
  20915740.982    20915744.966     6974871.384 9 -20775306.210 8
  20917514.715    20917517.418    33048586.703 9 -44730943.834 9
  21656920.952    21656925.647    68154403.399 8-105492662.635 9
 86  6 18  2 52 41.0800000  0  3G12G13G 9
  20914632.886    20914636.775     6969046.619 9 -20779844.988 8
  20918749.455    20918751.342    33055072.796 9 -44725889.734 9
  21660610.672    21660613.373    68173788.340 8-105477557.491 9
 86  6 18  2 52 47.0800000  0  3G12G13G 9
  20913529.072    20913532.232     6963246.302 9 -20784364.721 8
  20919985.197    20919987.456    33061567.472 8 -44720828.944 9
  21664301.986    21664305.994    68193190.089 9-105462439.244 8
 86  6 18  2 52 53.0800000  0  3G12G13G 9
  20912430.308    20912433.353     6957470.480 9 -20788865.366 9
  20921221.858    20921225.214    33068070.694 9 -44715761.507 9
  21667997.306    21668001.748    68212608.640 9-105447307.909 8
 86  6 18  2 52 59.0800000  0  3G12G13G 9
  20911335.587    20911338.707     6951719.187 9 -20793346.884 8
  20922461.348    20922464.232    33074582.469 9 -44710687.393 9
  21671696.137    21671699.630    68232043.937 8-105432163.537 9
 86  6 18  2 53  5.0800000  0  3G12G13G 9
  20910246.034    20910249.072     6945992.432 9 -20797809.283 8
  20923703.012    20923706.354    33081102.853 9 -44705606.580 9
  21675398.717    21675401.042    68251496.011 8-105417006.068 8
 86  6 18  2 53 11.0800000  0  3G12G13G 9
  20909160.174    20909163.560     6940290.220 9 -20802252.563 8
  20924944.334    20924947.779    33087631.777 9 -44700519.100 9
  21679102.489    21679106.344    68270964.823 9-105401835.564 8
 86  6 18  2 53 17.0800000  0  3G12G13G 9
  20908079.944    20908084.480     6934612.546 8 -20806676.725 8
  20926189.119    20926192.389    33094169.204 9 -44695425.013 9
  21682811.412    21682814.018    68290450.339 8-105386652.051 8
 86  6 18  2 53 23.0800000  0  3G12G13G 9
  20907003.641    20907008.136     6928959.459 9 -20811081.734 7
  20927434.591    20927436.329    33100715.112 9 -44690324.299 9
  21686521.767    21686525.184    68309952.509 9-105371455.554 7
 86  6 18  2 53 29.0800000  0  3G12G13G 9
  20905932.999    20905937.156     6923330.983 9 -20815467.557 9
  20928681.522    20928684.882    33107269.558 9 -44685216.939 9
  21690236.205    21690238.805    68329471.325 9-105356246.091 8
 86  6 18  2 53 35.0800000  0  3G12G13G 9
  20904866.971    20904871.103     6917727.084 9 -20819834.219 8
  20929930.655    20929934.187    33113832.483 9 -44680102.974 9
  21693953.676    21693957.494    68349006.698 9-105341023.714 8
 86  6 18  2 53 41.0800000  0  3G12G13G 9
  20903804.883    20903809.007     6912147.786 8 -20824181.726 9
  20931180.650    20931184.978    33120403.909 9 -44674982.380 8
  21697674.324    21697677.721    68368558.680 9-105325788.418 8
 86  6 18  2 53 47.0800000  0  3G12G13G 9
  20902748.417    20902752.754     6906593.213 9 -20828509.963 8
  20932432.533    20932435.575    33126983.806 9 -44669855.182 9
  21701398.139    21701401.065    68388127.273 9-105310540.162 9
 86  6 18  2 53 53.0800000  0  3G12G13G 9
  20901696.572    20901700.317     6901063.288 9 -20832819.003 8
  20933686.247    20933690.320    33133572.132 9 -44664721.425 9
  21705126.227    21705128.676    68407712.480 8-105295278.964 8
 86  6 18  2 53 59.0800000  0  3G12G13G 9
  20900647.809    20900652.777     6895558.034 8 -20837108.800 9
  20934941.130    20934945.119    33140169.033 9 -44659580.979 9
  21708855.517    21708857.531    68427314.343 9-105280004.784 9
 86  6 18  2 54  5.0800000  0  3G12G13G 9
  20899606.038    20899609.749     6890077.418 8 -20841379.414 9
  20936198.823    20936202.241    33146774.368 9 -44654433.964 9
  21712588.347    21712591.916    68446932.821 9-105264717.664 8
 86  6 18  2 54 11.0800000  0  3G12G13G 9
  20898568.002    20898571.762     6884621.510 9 -20845630.766 9
  20937456.830    20937460.305    33153388.079 9 -44649280.418 9
  21716324.983    21716327.942    68466567.776 9-105249417.704 8
 86  6 18  2 54 17.0800000  0  3G12G13G 9
  20897534.650    20897538.837     6879190.345 9 -20849862.841 9
  20938717.126    20938720.615    33160010.135 9 -44644120.372 9
  21720064.299    21720068.011    68486219.163 9-105234104.933 8
 86  6 18  2 54 23.0800000  0  3G12G13G 9
  20896504.786    20896509.355     6873783.978 9 -20854075.592 9
  20939977.996    20939982.171    33166640.617 9 -44638953.762 9
  21723807.202    21723810.380    68505887.039 9-105218779.333 8
 86  6 18  2 54 29.0800000  0  3G12G13G 9
  20895480.672    20895485.101     6868402.392 9 -20858269.035 8
  20941242.297    20941245.584    33173279.545 9 -44633780.571 9
  21727552.662    21727556.084    68525571.374 9-105203440.883 8
 86  6 18  2 54 35.0800000  0  3G12G13G 9
  20894462.042    20894466.184     6863045.489 9 -20862443.236 8
  20942506.485    20942510.847    33179926.886 9 -44628600.822 9
  21731301.824    21731305.312    68545272.186 8-105188089.606 8
 86  6 18  2 54 41.0800000  0  3G12G13G 9
  20893447.429    20893451.627     6857713.397 9 -20866598.113 9
  20943773.076    20943777.308    33186582.582 9 -44623414.553 9
  21735053.788    21735057.182    68564989.416 8-105172725.534 9
 86  6 18  2 54 47.0800000  0  3G12G13G 9
  20892436.649    20892441.588     6852406.117 9 -20870733.654 9
  20945040.931    20945045.677    33193246.718 9 -44618221.729 9
  21738809.151    21738812.401    68584722.996 8-105157348.724 9
 86  6 18  2 54 53.0800000  0  3G12G13G 9
  20891431.186    20891436.285     6847123.583 9 -20874849.916 8
  20946310.042    20946314.900    33199919.196 9 -44613022.389 9
  21742567.527    21742570.673    68604472.931 9-105141959.175 8
 86  6 18  2 54 59.0800000  0  3G12G13G 9
  20890432.061    20890435.923     6841865.890 9 -20878946.816 9
  20947581.499    20947585.900    33206600.005 9 -44607816.562 9
  21746328.613    21746332.374    68624239.218 9-105126556.874 9
 86  6 18  2 55  5.0800000  0  3G12G13G 9
  20889435.421    20889439.552     6836632.992 9 -20883024.402 9
  20948854.899    20948860.276    33213288.982 9 -44602604.373 9
  21750093.141    21750095.914    68644021.710 9-105111141.955 9
 86  6 18  2 55 11.0800000  0  3G12G13G 9
  20888444.535    20888449.144     6831424.958 9 -20887082.602 9
  20950129.250    20950133.394    33219986.226 9 -44597385.740 9
  21753860.619    21753864.097    68663820.498 9-105095714.323 8
 86  6 18  2 55 17.0800000  0  3G12G13G 9
  20887458.710    20887462.433     6826241.737 9 -20891121.484 8
  20951405.741    20951410.287    33226691.741 9 -44592160.658 9
  21757631.969    21757634.279    68683635.620 9-105080273.975 8
 86  6 18  2 55 23.0800000  0  3G12G13G 9
  20886475.996    20886479.993     6821083.311 9 -20895141.037 9
  20952683.322    20952686.680    33233405.470 9 -44586929.178 9
  21761406.104    21761410.260    68703466.971 9-105064820.972 8
 86  6 18  2 55 29.0800000  0  3G12G13G 9
  20885499.932    20885503.464     6815949.790 9 -20899141.180 8
  20953962.453    20953966.076    33240127.535 9 -44581691.194 9
  21765184.008    21765185.721    68723314.571 9-105049355.314 8
 86  6 18  2 55 35.0800000  0  3G12G13G 9
  20884527.599    20884531.950     6810841.184 9 -20903121.913 8
  20955244.554    20955247.085    33246857.855 8 -44576446.793 9
  21768963.142    21768965.638    68743178.277 9-105033877.104 9
 86  6 18  2 55 41.0800000  0  3G12G13G 9
  20883560.017    20883563.794     6805757.364 9 -20907083.328 8
  20956526.318    20956529.343    33253596.367 9 -44571195.999 8
  21772745.538    21772748.502    68763058.081 9-105018386.351 9
 86  6 18  2 55 47.0800000  0  3G12G13G 9
  20882597.861    20882601.015     6800698.361 9 -20911025.406 9
  20957809.677    20957813.278    33260342.966 9 -44565938.901 9
  21776531.455    21776534.795    68782953.998 9-105002883.039 8
 86  6 18  2 55 53.0800000  0  3G12G13G 9
  20881639.669    20881644.137     6795664.184 8 -20914948.142 9
  20959095.361    20959098.101    33267097.636 9 -44560675.518 9
  21780320.739    21780324.723    68802865.925 9-104987367.249 8
 86  6 18  2 55 59.0800000  0  3G12G13G 9
  20880686.114    20880690.462     6790654.903 9 -20918851.481 8
  20960382.413    20960385.959    33273860.486 9 -44555405.758 9
  21784112.322    21784116.226    68822793.914 9-104971838.961 9
 86  6 18  2 56  5.0800000  0  3G12G13G 9
  20879737.472    20879740.985     6785670.526 9 -20922735.407 9
  20961671.783    20961674.226    33280631.449 9 -44550129.687 8
  21787908.037    21787910.932    68842738.039 9-104956298.087 9
 86  6 18  2 56 11.0800000  0  3G12G13G 9
  20878794.897    20878797.002     6780711.098 9 -20926599.893 8
  20962961.042    20962963.538    33287410.571 9 -44544847.246 9
  21791705.152    21791709.910    68862698.181 9-104940744.749 8
 86  6 18  2 56 17.0800000  0  3G12G13G 9
  20877855.441    20877857.775     6775776.599 9 -20930444.954 9
  20964253.389    20964255.632    33294197.721 9 -44539558.551 9
  21795506.808    21795510.912    68882674.287 9-104925178.943 8
 86  6 18  2 56 23.0800000  0  3G12G13G 9
  20876920.682    20876924.767     6770867.027 9 -20934270.596 8
  20965545.738    20965548.725    33300992.952 9 -44534263.562 9
  21799311.737    21799314.944    68902666.257 8-104909600.795 9
 86  6 18  2 56 29.0800000  0  3G12G13G 9
  20875991.386    20875994.877     6765982.465 9 -20938076.742 8
  20966841.376    20966842.989    33307796.310 9 -44528962.241 9
  21803119.052    21803122.750    68922674.167 9-104894010.218 8
 86  6 18  2 56 35.0800000  0  3G12G13G 9
  20875066.619    20875070.217     6761122.869 9 -20941863.452 8
  20968137.218    20968139.331    33314607.783 9 -44523654.602 9
  21806929.494    21806932.939    68942697.996 9-104878407.247 8
 86  6 18  2 56 41.0800000  0  3G12G13G 9
  20874146.246    20874150.254     6756288.245 9 -20945630.678 9
  20969435.346    20969437.532    33321427.301 9 -44518340.683 9
  21810742.798    21810746.092    68962737.724 9-104862791.874 9
 86  6 18  2 56 47.0800000  0  3G12G13G 9
  20873230.554    20873235.440     6751478.654 9 -20949378.415 8
  20970733.309    20970736.106    33328254.822 9 -44513020.535 9
  21814559.308    21814563.006    68982793.383 9-104847164.093 8
 86  6 18  2 56 53.0800000  0  3G12G13G 9
  20872321.187    20872325.729     6746694.121 9 -20953106.614 9
  20972034.357    20972037.371    33335090.405 9 -44507694.099 9
  21818379.337    21818382.641    69002864.912 8-104831523.949 8
 86  6 18  2 56 59.0800000  0  3G12G13G 9
  20871414.944    20871418.983     6741934.640 9 -20956815.301 9
  20973337.293    20973339.305    33341934.100 9 -44502361.353 9
  21822201.419    21822204.887    69022952.351 9-104815871.398 9
 86  6 18  2 57  5.0800000  0  3G12G13G 9
  20870513.787    20870518.581     6737200.284 9 -20960504.407 8
  20974640.317    20974643.973    33348785.829 9 -44497022.332 9
  21826027.983    21826030.785    69043055.671 8-104800206.473 8
 86  6 18  2 57 11.0800000  0  3G12G13G 9
  20869617.652    20869622.373     6732491.029 9 -20964173.943 8
  20975945.886    20975948.739    33355645.588 9 -44491677.066 9
  21829855.396    21829858.784    69063174.774 9-104784529.270 8
 86  6 18  2 57 17.0800000  0  3G12G13G 9
  20868726.122    20868730.934     6727806.778 8 -20967824.009 9
  20977253.318    20977255.458    33362513.281 9 -44486325.620 8
  21833688.600    21833690.404    69083309.634 9-104768839.771 8
 86  6 18  2 57 23.0800000  0  3G12G13G 9
  20867840.409    20867844.095     6723147.599 9 -20971454.532 8
  20978561.350    20978563.561    33369388.966 9 -44480967.935 9
  21837522.270    21837523.914    69103460.220 9-104753138.010 8
 86  6 18  2 57 29.0800000  0  3G12G13G 9
  20866957.930    20866962.946     6718513.494 9 -20975065.519 8
  20979871.727    20979873.670    33376272.545 9 -44475604.102 9
  21841360.101    21841362.764    69123626.475 9-104737424.042 9
 86  6 18  2 57 35.0800000  0  3G12G13G 9
  20866080.360    20866085.895     6713904.495 9 -20978656.941 8
  20981182.421    20981185.277    33383164.015 9 -44470234.131 9
  21845200.536    21845202.713    69143808.304 8-104721697.949 8
 86  6 18  2 57 41.0800000  0  3G12G13G 9
  20865208.587    20865213.356     6709320.470 9 -20982228.903 8
  20982495.631    20982498.132    33390063.395 9 -44464857.986 9
  21849043.279    21849046.434    69164005.785 9-104705959.663 9
 86  6 18  2 57 47.0800000  0  3G12G13G 9
  20864340.706    20864345.463     6704761.510 9 -20985781.331 8
  20983810.591    20983811.998    33396970.656 9 -44459475.694 9
  21852890.859    21852892.153    69184218.884 9-104690209.196 9
 86  6 18  2 57 53.0800000  0  3G12G13G 9
  20863478.067    20863482.216     6700227.752 9 -20989314.128 8
  20985125.659    20985128.585    33403885.791 9 -44454087.276 9
  21856739.212    21856742.067    69204447.588 9-104674446.563 9
 86  6 18  2 57 59.0800000  0  3G12G13G 9
  20862619.536    20862625.530     6695719.078 9 -20992827.372 9
  20986442.450    20986446.347    33410808.757 9 -44448692.763 9
  21860592.334    21860594.133    69224691.841 9-104658671.833 8
 86  6 18  2 58  5.0800000  0  3G12G13G 9
  20861766.292    20861770.950     6691235.464 9 -20996321.087 8
  20987761.528    20987765.031    33417739.634 9 -44443292.075 9
  21864447.297    21864449.665    69244951.656 9-104642884.956 9
 86  6 18  2 58 11.0800000  0  3G12G13G 9
  20860918.261    20860922.296     6686777.006 9 -20999795.208 9
  20989082.208    20989086.098    33424678.396 9 -44437885.240 8
  21868304.378    21868307.719    69265227.015 8-104627085.980 8
 86  6 18  2 58 17.0800000  0  3G12G13G 9
  20860073.978    20860079.266     6682343.655 9 -21003249.768 8
  20990403.120    20990407.176    33431624.947 9 -44432472.349 9
  21872166.506    21872169.531    69285517.834 9-104611274.958 8
 86  6 18  2 58 23.0800000  0  3G12G13G 9
  20859234.850    20859240.301     6677935.466 9 -21006684.712 8
  20991727.290    20991730.948    33438579.265 9 -44427053.396 9
  21876031.590    21876033.366    69305824.121 9-104595451.872 8
 86  6 18  2 58 29.0800000  0  3G12G13G 9
  20858401.381    20858406.013     6673552.362 9 -21010100.116 9
  20993051.466    20993056.164    33445541.268 9 -44421628.460 9
  21879897.667    21879901.108    69326145.809 8-104579616.802 8
 86  6 18  2 58 35.0800000  0  3G12G13G 9
  20857571.415    20857576.490     6669194.435 9 -21013495.903 9
  20994378.381    20994381.451    33452511.008 9 -44416197.492 9
  21883768.447    21883770.552    69346482.881 9-104563769.729 9
 86  6 18  2 58 41.0800000  0  3G12G13G 9
  20856747.397    20856751.720     6664861.714 9 -21016872.041 9
  20995706.334    20995710.191    33459488.495 9 -44410760.486 9
  21887640.266    21887644.213    69366835.312 9-104547910.703 8
 86  6 18  2 58 47.0800000  0  3G12G13G 9
  20855927.246    20855932.718     6660554.169 9 -21020228.563 9
  20997035.657    20997039.170    33466473.664 9 -44405317.490 9
  21891516.722    21891520.058    69387203.059 9-104532039.728 8
 86  6 18  2 58 53.0800000  0  3G12G13G 9
  20855113.204    20855117.111     6656271.876 9 -21023565.404 8
  20998366.239    20998369.979    33473466.636 9 -44399868.414 9
  21895395.305    21895398.507    69407586.149 9-104516156.804 9
 86  6 18  2 58 59.0800000  0  3G12G13G 9
  20854303.281    20854308.436     6652014.807 9 -21026882.608 9
  20999699.566    20999701.584    33480467.329 9 -44394413.332 9
  21899276.588    21899279.394    69427984.577 9-104500261.932 9
 86  6 18  2 59  5.0800000  0  3G12G13G 9
  20853497.668    20853502.135     6647782.900 8 -21030180.200 9
  21001031.411    21001034.783    33487475.714 9 -44388952.245 8
  21903161.420    21903164.712    69448398.306 9-104484355.130 9
 86  6 18  2 59 11.0800000  0  3G12G13G 9
  20852697.472    20852702.132     6643576.298 9 -21033458.067 9
  21002367.316    21002370.130    33494491.858 9 -44383485.114 8
  21907049.646    21907051.990    69468827.305 9-104468436.441 9
 86  6 18  2 59 17.0800000  0  3G12G13G 9
  20851902.521    20851905.578     6639395.043 9 -21036716.185 9
  21003703.363    21003706.685    33501515.712 9 -44378011.970 9
  21910939.095    21910942.593    69489271.633 8-104452505.789 8
 86  6 18  2 59 23.0800000  0  3G12G13G 9
  20851111.308    20851116.030     6635239.102 9 -21039954.579 8
  21005041.218    21005044.319    33508547.262 9 -44372532.838 9
  21914833.009    21914836.415    69509731.240 8-104436563.239 9
 86  6 18  2 59 29.0800000  0  3G12G13G 9
  20850325.382    20850328.897     6631108.462 8 -21043173.246 8
  21006381.131    21006384.783    33515586.499 9 -44367047.717 9
  21918728.848    21918731.435    69530206.177 8-104420608.755 9
 86  6 18  2 59 35.0800000  0  3G12G13G 9
  20849544.855    20849548.612     6627003.234 9 -21046372.136 9
  21007721.903    21007725.087    33522633.446 9 -44361556.589 9
  21922628.103    21922630.804    69550696.358 8-104404642.389 9
 86  6 18  2 59 41.0800000  0  3G12G13G 9
  20848767.585    20848772.013     6622923.325 9 -21049551.274 8
  21009064.306    21009068.003    33529688.091 9 -44356059.453 9
  21926529.581    21926532.343    69571201.628 9-104388664.255 8
 86  6 18  2 59 47.0800000  0  3G12G13G 9
  20847995.947    20848000.804     6618868.764 8 -21052710.666 8
  21010408.509    21010412.081    33536750.301 9 -44350556.432 9
  21930433.587    21930437.194    69591722.090 8-104372674.301 8
 86  6 18  2 59 53.0800000  0  3G12G13G 9
  20847229.760    20847233.368     6614839.477 9 -21055850.375 8
  21011753.258    21011756.643    33543820.039 9 -44345047.548 9
  21934343.078    21934346.060    69612257.658 8-104356672.557 8
 86  6 18  2 59 59.0800000  0  3G12G13G 9
  20846468.158    20846472.129     6610835.506 9 -21058970.346 8
  21013100.382    21013103.213    33550897.312 9 -44339532.778 9
  21938252.882    21938256.524    69632808.291 8-104340659.078 8
 86  6 18  3  0  5.0800000  0  3G12G13G 9
  20845711.209    20845714.801     6606856.798 8 -21062070.638 9
  21014448.079    21014452.852    33557982.105 9 -44334012.159 9
  21942166.313    21942171.361    69653373.919 9-104324633.921 8
 86  6 18  3  0 11.0800000  0  3G12G13G 9
  20844958.892    20844962.279     6602903.333 9 -21065151.254 8
  21015797.409    21015800.835    33565074.406 9 -44328485.686 9
  21946082.740    21946086.820    69673954.497 8-104308597.110 9
 86  6 18  3  0 17.0800000  0  3G12G13G 9
  20844212.092    20844214.076     6598975.213 8 -21068212.130 7
  21017148.710    21017152.749    33572174.271 8 -44322953.319 9
  21950001.847    21950005.509    69694550.036 9-104292548.640 8
 86  6 18  3  0 23.0800000  0  3G12G13G 9
  20843468.961    20843471.651     6595072.468 9 -21071253.232 9
  21018501.273    21018504.981    33579281.649 9 -44317415.100 9
  21953924.024    21953927.155    69715160.523 8-104276488.528 8
 86  6 18  3  0 29.0800000  0  4G12G13G 9G 7
  20842730.861    20842734.356     6591195.173 9 -21074274.497 9
  21019855.720    21019858.943    33586396.561 9 -44311871.009 9
  21957848.128    21957852.018    69735785.985 9-104260416.731 8
                  26407893.825    -8675519.246 9
 86  6 18  3  0 35.0800000  0  4G12G13G 9G 7
  20841998.889    20842001.011     6587343.262 6 -21077275.975 8
  21021210.335    21021214.624    33593519.025 5 -44306321.041 6
  21961776.837    21961781.026    69756426.410 8-104244333.292 6
                  26404122.694    -8695355.945 8
 86  6 18  3  0 41.0800000  0  4G12G13G 9G 7
  20841269.719    20841272.845     6583516.781 9 -21080257.651 8
  21022568.162    21022570.693    33600648.963 9 -44300765.240 9
  21965706.885    21965711.080    69777081.726 9-104228238.246 8
                  26400355.871    -8715173.661 9
 86  6 18  3  0 47.0800000  0  4G12G13G 9G 7
  20840545.346    20840549.217     6579715.720 9 -21083219.516 9
  21023926.819    21023929.749    33607786.362 9 -44295203.631 9
  21969640.469    21969644.699    69797751.890 9-104212131.622 9
                  26396586.436    -8734968.136 9
 86  6 18  3  0 53.0800000  0  4G12G13G 9G 7
  20839827.794    20839830.884     6575940.031 9 -21086161.598 9
  21025286.020    21025289.237    33614931.229 9 -44289636.205 9
  21973577.292    21973581.279    69818436.900 9-104196013.435 7
                  26392824.383    -8754741.739 9
 86  6 18  3  0 59.0800000  0  4G12G13G 9G 7
  20839113.709    20839117.245     6572189.743 9 -21089083.906 8
  21026646.312    21026649.860    33622083.487 9 -44284063.006 9
  21977515.668    21977519.874    69839136.762 9-104179883.678 8
                  26389097.818    -8774498.437 8
 86  6 18  3  1  5.0800000  0  4G12G13G 9G 7
  20838405.872    20838408.791     6568464.864 9 -21091986.406 9
  21028009.005    21028012.410    33629243.220 9 -44278483.988 9
  21981458.068    21981461.484    69859851.465 8-104163742.355 8
  26385340.593    26385435.763    -8794243.853 8  11350777.732 9
 86  6 18  3  1 11.0800000  0  4G12G13G 9G 7
  20837700.291    20837704.166     6564765.388 8 -21094869.104 8
  21029372.841    21029376.843    33636410.326 9 -44272899.232 9
  21985402.613    21985407.203    69880580.858 8-104147589.576 8
  26381585.002    26381587.916    -8813979.967 9  11335399.034 8
 86  6 18  3  1 17.0800000  0  4G12G13G 9G 7
  20837001.776    20837005.390     6561091.346 9 -21097731.990 9
  21030739.539    21030742.668    33643584.713 9 -44267308.796 8
  21989349.759    21989354.042    69901324.927 9-104131425.378 8
  26377830.623    26377832.940    -8833709.333 9  11320025.487 9
 86  6 18  3  1 23.0800000  0  4G12G13G 9G 7
  20836307.411    20836311.503     6557442.838 9 -21100574.979 8
  21032105.233    21032108.628    33650766.493 9 -44261712.604 9
  21993300.506    21993303.682    69922083.712 9-104115249.700 9
  26374075.652    26374080.808    -8853433.220 9  11304656.729 9
 86  6 18  3  1 29.0800000  0  4G12G13G 9G 7
  20835617.879    20835621.874     6553819.832 9 -21103398.100 9
  21033472.714    21033476.926    33657955.664 9 -44256110.645 9
  21997253.539    21997257.124    69942857.248 9-104099062.532 8
  26370325.661    26370328.805    -8873150.047 9  11289292.990 9
 86  6 18  3  1 35.0800000  0  4G12G13G 9G 7
  20834933.530    20834937.111     6550222.298 9 -21106201.372 9
  21034842.358    21034845.369    33665152.241 9 -44250502.915 9
  22001209.025    22001213.660    69963645.520 9-104082863.880 8
                  26366578.976                    11273939.271 9
 86  6 18  3  1 41.0800000  0  4G12G13G 9G 7
  20834253.521    20834256.965     6546650.216 9 -21108984.801 9
  21036212.636    21036217.493    33672356.069 9 -44244889.543 9
  22005167.917    22005172.002    69984448.371 9-104066653.874 8
  26362828.158    26362831.784    -8929007.396 9  11258601.158 9
 86  6 18  3  1 47.0800000  0  4G12G13G 9G 7
  20833578.195    20833582.367     6543103.660 9 -21111748.348 8
  21037585.058    21037588.787    33679567.218 9 -44239270.465 9
  22009128.587    22009132.786    70005265.825 8-104050432.485 9
  26359087.683    26359089.989    -8948667.944 9  11243281.268 8
 86  6 18  3  1 53.0800000  0  4G12G13G 9G 7
  20832907.989    20832912.490     6539582.626 9 -21114492.014 9
  21038957.996    21038962.813    33686785.690 9 -44233645.672 9
  22013093.463    22013097.279    70026097.946 8-104034199.663 8
  26355349.431    26355352.523    -8968307.184 9  11227977.564 9
 86  6 18  3  1 59.0800000  0  4G12G13G 9G 7
  20832243.548    20832247.571     6536087.166 9 -21117215.740 8
  21040333.284    21040338.027    33694011.535 8 -44228015.151 8
  22017059.612    22017064.394    70046944.639 8-104017955.486 9
  26351613.629    26351619.275    -8987930.475 9  11212686.713 8
 86  6 18  3  2  5.0800000  0  4G12G13G 9G 7
  20831583.218    20831587.171     6532617.237 9 -21119919.571 9
  21041709.020    21041714.238    33701244.747 8 -44222378.871 9
  22021030.507    22021033.958    70067805.928 8-104001699.944 9
  26347883.127    26347887.714    -9007541.709 8  11197405.252 9
 86  6 18  3  2 11.0800000  0  4G12G13G 9G 7
  20830927.456    20830932.360     6529172.872 9 -21122603.501 8
  21043086.997    21043091.671    33708485.206 9 -44216736.950 9
  22025003.299    22025006.243    70088681.753 8-103985433.068 9
  26344154.782    26344157.107    -9027143.931 8  11182130.798 9
 86  6 18  3  2 17.0800000  0  4G12G13G 9G 7
  20830277.002    20830281.870     6525754.072 9 -21125267.495 9
  21044466.916    21044470.923    33715732.945 9 -44211089.360 9
  22028977.889    22028982.211    70109572.102 8-103969154.887 8
  26340425.306    26340428.161    -9046739.381 9  11166861.611 9
 86  6 18  3  2 23.0800000  0  4G12G13G 9G 7
  20829630.937    20829634.934     6522360.807 9 -21127911.597 9
  21045846.297    21045851.989    33722987.925 9 -44205436.115 9
  22032955.820    22032960.046    70130476.879 9-103952865.450 9
  26336697.952    26336700.654    -9066329.036 9  11151596.940 9
 86  6 18  3  2 29.0800000  0  4G12G13G 9G 7
  20828990.780    20828994.065     6518993.100 9 -21130535.776 8
  21047229.244    21047233.694    33730250.127 9 -44199777.254 9
  22036936.249    22036941.095    70151396.092 9-103936564.776 8
  26332971.195    26332975.180    -9085911.064 9  11136338.226 9
 86  6 18  3  2 35.0800000  0  4G12G13G 9G 7
  20828355.033    20828358.255     6515650.942 9 -21133140.067 9
  21048612.150    21048616.981    33737519.542 8 -44194112.770 9
  22040920.885    22040924.234    70172329.704 8-103920252.877 9
                  26329251.736                    11121090.293 9
 86  6 18  3  2 41.0800000  0  4G12G13G 9G 7
  20827723.417    20827726.797     6512334.357 9 -21135724.403 9
  21049997.447    21050002.068    33744796.126 9 -44188442.702 9
  22044906.767    22044910.618    70193277.743 9-103903929.726 8
  26325527.633    26325531.539    -9141574.909 9  11105858.758 9
 86  6 18  3  2 47.0800000  0  4G12G13G 9G 7
  20827096.914    20827101.644     6509043.393 9 -21138288.798 9
  21051384.350    21051387.711    33752079.891 9 -44182767.034 9
  22048896.309    22048899.796    70214240.129 9-103887595.405 9
  26321813.295    26321817.063    -9161098.419 9  11090645.631 9
 86  6 18  3  2 53.0800000  0  4G12G13G 9G 7
  20826475.208    20826479.182     6505777.913 9 -21140833.331 9
  21052771.141    21052774.732    33759370.808 9 -44177085.795 9
  22052886.469    22052891.443    70235216.789 8-103871249.950 8
  26318102.244    26318105.726    -9180601.775 8  11075448.597 9
 86  6 18  3  2 59.0800000  0  4G12G13G 9G 7
  20825858.500    20825863.212     6502538.035 9 -21143357.908 9
  21054160.104    21054163.050    33766668.807 9 -44171399.040 9
  22056882.817    22056885.130    70256207.765 9-103854893.355 8
  26314393.173    26314398.033    -9200088.423 9  11060264.208 9
 86  6 18  3  3  5.0800000  0  4G12G13G 9G 7
  20825247.284    20825251.259     6499323.720 9 -21145862.575 9
  21055550.815    21055553.943    33773973.914 9 -44165706.751 9
  22060879.583    22060882.875    70277212.987 8-103838525.647 9
  26310687.363    26310690.426    -9219563.274 9  11045089.018 9
 86  6 18  3  3 11.0800000  0  4G12G13G 9G 7
  20824640.452    20824644.330     6496135.045 9 -21148347.250 9
  21056941.616    21056945.615    33781286.168 9 -44160008.887 9
  22064879.571    22064881.998    70298232.463 8-103822146.827 8
  26306982.246    26306986.417    -9239028.939 8  11029920.976 9
 86  6 18  3  3 17.0800000  0  4G12G13G 9G 7
  20824038.441    20824042.790     6492971.955 9 -21150811.993 9
  21058334.180    21058338.217    33788605.490 9 -44154305.507 9
  22068883.050    22068885.631    70319266.108 9-103805756.982 8
  26303279.157    26303283.578    -9258487.808 9  11014758.202 9
 86  6 18  3  3 23.0800000  0  4G12G13G 9G 7
  20823441.430    20823446.040     6489834.442 8 -21153256.805 8
  21059727.926    21059732.399    33795931.870 9 -44148596.644 9
  22072887.719    22072890.443    70340314.002 9-103789356.031 9
  26299576.815    26299581.571    -9277940.658 8  10999600.151 9
 86  6 18  3  3 29.0800000  0  4G12G13G 9G 7
  20822849.383    20822853.684     6486722.524 9 -21155681.683 9
  21061123.389    21061128.061    33803265.206 9 -44142882.361 9
  22076895.327    22076898.296    70361376.084 9-103772944.020 9
  26295875.867    26295880.384    -9297385.219 8  10984448.552 9
 86  6 18  3  3 35.0800000  0  4G12G13G 9G 7
  20822261.565    20822266.430     6483636.216 9 -21158086.590 8
  21062520.766    21062524.593    33810605.625 9 -44137162.546 9
  22080906.214    22080908.866    70382452.299 9-103756520.995 9
                  26292183.279                    10969308.553 8
 86  6 18  3  3 41.0800000  0  4G12G13G 9G 7
  20821679.501    20821683.656     6480575.546 8 -21160471.533 9
  21063918.658    21063922.791    33817953.038 9 -44131437.297 9
  22084920.531    22084921.760    70403542.556 9-103740087.032 9
  26288486.121    26288490.945    -9353017.864 9  10954185.469 8
 86  6 18  3  3 47.0800000  0  4G12G13G 9G 7
  20821101.529    20821106.387     6477540.528 9 -21162836.484 8
  21065318.267    21065322.644    33825307.584 9 -44125706.472 9
  22088935.326    22088939.127    70424646.869 8-103723642.113 8
  26284797.612    26284801.330    -9372402.051 9  10939080.887 8
 86  6 18  3  3 53.0800000  0  4G12G13G 9G 7
  20820529.647    20820533.047     6474531.141 9 -21165181.458 8
  21066719.367    21066723.782    33832669.196 9 -44119970.156 9
  22092954.590    22092956.703    70445765.297 8-103707186.199 9
  26281113.076    26281117.649    -9391765.777 9  10923992.277 9
 86  6 18  3  3 59.0800000  0  4G12G13G 9G 7
  20819961.341    20819966.149     6471547.400 9 -21167506.455 9
  21068121.782    21068125.256    33840037.805 9 -44114228.377 9
  22096975.510    22096978.737    70466897.815 8-103690719.306 9
  26277432.553    26277435.759    -9411113.410 9  10908916.214 9
 86  6 18  3  4  5.0800000  0  4G12G13G 9G 7
  20819398.654    20819402.779     6468589.350 9 -21169811.435 8
  21069525.228    21069529.802    33847413.405 9 -44108481.156 9
  22101000.747    22101003.015    70488044.407 8-103674241.440 8
  26273752.581    26273756.017    -9430449.186 9  10893849.363 9
 86  6 18  3  4 11.0800000  0  4G12G13G 9G 7
  20818841.173    20818844.791     6465657.087 9 -21172096.324 9
  21070930.214    21070933.404    33854795.955 9 -44102728.521 9
  22105026.373    22105029.788    70509204.989 9-103657752.683 9
  26270074.432    26270078.202    -9449775.910 9  10878789.570 9
 86  6 18  3  4 17.0800000  0  4G12G13G 9G 7
  20818288.294    20818291.997     6462750.567 8 -21174361.133 8
  21072336.123    21072339.301    33862185.554 9 -44096970.385 9
  22109056.005    22109058.681    70530379.523 9-103641253.035 9
  26266398.634    26266400.120    -9469095.707 9  10863735.177 9
 86  6 18  3  4 23.0800000  0  4G12G13G 9G 7
  20817738.515    20817743.051     6459869.817 9 -21176605.870 8
  21073743.917    21073747.304    33869582.197 9 -44091206.762 9
  22113088.147    22113090.403    70551568.034 8-103624742.512 9
  26262722.651    26262726.588    -9488409.073 8  10848685.807 8
 86  6 18  3  4 29.0800000  0  4G12G13G 9G 7
  20817196.056    20817200.714     6457014.752 9 -21178830.598 9
  21075152.115    21075156.516    33876985.789 9 -44085437.737 9
  22117122.636    22117126.076    70572770.472 8-103608221.140 9
  26259048.750    26259053.428    -9507713.166 9  10833643.660 9
 86  6 18  3  4 35.0800000  0  4G12G13G 9G 7
  20816657.656    20816661.315     6454185.465 9 -21181035.242 8
  21076563.200    21076566.041    33884396.305 9 -44079663.302 9
  22121160.159    22121162.711    70593986.897 8-103591688.867 9
                  26255382.624                    10818614.035 9
 86  6 18  3  4 41.0800000  0  4G12G13G 9G 7
  20816124.614    20816128.274     6451381.975 9 -21183219.782 9
  21077973.602    21077978.161    33891813.749 9 -44073883.473 8
  22125200.032    22125202.848    70615217.200 9-103575145.774 8
  26251713.552    26251716.408    -9563093.365 8  10803601.834 8
 86  6 18  3  4 47.0800000  0  4G12G13G 9G 7
  20815596.100    20815600.013     6448604.207 9 -21185384.278 8
  21079387.408    21079391.054    33899238.200 9 -44068098.183 8
  22129241.917    22129245.687    70636461.412 9-103558591.851 9
  26248051.724    26248053.580    -9582335.155 9  10788608.215 9
 86  6 18  3  4 53.0800000  0  4G12G13G 9G 7
  20815071.801    20815076.163     6445852.193 8 -21187528.707 8
  21080800.871    21080804.539    33906669.625 9 -44062307.467 9
  22133287.179    22133291.287    70657719.451 8-103542027.138 8
  26244393.632    26244397.983    -9601555.949 9  10773630.575 8
 86  6 18  3  4 59.0800000  0  4G12G13G 9G 7
  20814553.096    20814557.926     6443125.972 8 -21189653.033 8
  21082215.646    21082220.865    33914107.913 9 -44056511.384 9
  22137335.601    22137339.494    70678991.353 9-103525451.636 9
  26240737.867    26240742.871    -9620761.560 8  10758665.164 8
 86  6 18  3  5  5.0800000  0  4G12G13G 9G 7
  20814039.570    20814042.343     6440425.534 9 -21191757.274 8
  21083633.056    21083636.332    33921553.065 9 -44050709.965 9
  22141386.480    22141389.453    70700277.012 9-103508865.412 8
  26237085.161    26237090.021    -9639955.453 8  10743708.883 9
 86  6 18  3  5 11.0800000  0  4G12G13G 9G 7
  20813530.543    20813534.257     6437750.891 9 -21193841.411 8
  21085050.757    21085055.329    33929005.085 9 -44044903.199 9
  22145439.375    22145442.972    70721576.447 8-103492268.465 9
  26233435.148    26233440.595    -9659140.175 9  10728759.747 8
 86  6 18  3  5 17.0800000  0  4G12G13G 9G 7
  20813025.951    20813029.978     6435102.062 8 -21195905.438 9
  21086469.482    21086474.373    33936463.893 9 -44039091.138 9
  22149495.279    22149498.393    70742889.568 8-103475660.832 8
  26229785.296    26229791.064    -9678317.760 8  10713816.179 9
 86  6 18  3  5 23.0800000  0  4G12G13G 9G 7
  20812526.654    20812531.181     6432479.077 9 -21197949.320 9
  21087890.842    21087895.347    33943929.470 9 -44033273.799 9
  22153552.822    22153556.868    70764216.369 8-103459042.554 9
  26226136.840    26226143.470    -9697488.562 8  10698877.909 9
 86  6 18  3  5 29.0800000  0  4G12G13G 9G 7
  20812031.665    20812036.433     6429881.918 9 -21199973.089 8
  21089312.287    21089317.707    33951401.865 9 -44027451.161 9
  22157613.754    22157617.165    70785556.968 9-103442413.513 8
  26222491.522    26222496.524    -9716649.416 9  10683947.386 9
 86  6 18  3  5 35.0800000  0  4G12G13G 9G 7
  20811542.718    20811547.692     6427310.498 9 -21201976.798 8
  21090735.796    21090741.153    33958881.046 9 -44021623.222 9
  22161678.162    22161680.896    70806911.163 8-103425773.895 9
                  26218853.361                    10669030.236 9
 86  6 18  3  5 41.0800000  0  4G12G13G 9G 7
  20811058.359    20811063.412     6424764.861 9 -21203960.420 8
  21092161.278    21092165.463    33966367.123 9 -44015789.917 9
  22165743.951    22165747.670    70828278.826 9-103409123.763 8
  26215210.418    26215213.408    -9771996.613 9  10654131.145 9
 86  6 18  3  5 47.0800000  0  4G12G13G 9G 7
  20810579.290    20810584.030     6422245.059 9 -21205923.902 9
  21093587.184    21093591.275    33973859.991 9 -44009951.317 9
  22169812.774    22169815.664    70849660.115 8-103392463.023 8
  26211577.238    26211580.219    -9791093.245 9  10639250.666 9
 86  6 18  3  5 53.0800000  0  4G12G13G 9G 7
  20810104.693    20810109.447     6419751.047 9 -21207867.284 8
  21095014.559    21095018.601    33981359.539 9 -44004107.507 9
  22173883.682    22173887.726    70871054.996 8-103375791.681 8
  26207947.415    26207949.767    -9810169.764 9  10624385.838 8
 86  6 18  3  5 59.0800000  0  4G12G13G 9G 7
  20809635.581    20809640.550     6417282.854 8 -21209790.555 9
  21096443.702    21096446.835    33988865.836 9 -43998258.447 9
  22177958.592    22177961.124    70892463.510 9-103359109.727 8
  26204319.478    26204323.121    -9829230.597 8  10609533.237 9
 86  6 18  3  6  5.0800000  0  4G12G13G 9G 7
  20809170.620    20809174.689     6414840.465 9 -21211693.719 9
  21097872.733    21097876.689    33996378.834 9 -43992404.158 9
  22182034.823    22182038.363    70913885.591 8-103342417.204 8
  26200693.929    26200698.832    -9848279.968 9  10594689.560 9
 86  6 18  3  6 11.0800000  0  4G12G13G 9G 7
  20808711.589    20808715.931     6412423.925 8 -21213576.749 9
  21099304.452    21099307.952    34003898.600 9 -43986544.604 9
  22186113.283    22186117.993    70935321.096 8-103325714.224 9
  26197071.519    26197074.809    -9867320.092 9  10579853.117 9
 86  6 18  3  6 17.0800000  0  4G12G13G 9G 7
  20808255.808    20808259.615     6410033.195 9 -21215439.651 9
  21100736.544    21100739.674    34011425.051 9 -43980679.841 9
  22190194.640    22190199.136    70956769.957 8-103309000.820 9
  26193448.866    26193453.058    -9886353.155 8  10565022.156 9
 86  6 18  3  6 23.0800000  0  4G12G13G 9G 7
  20807806.340    20807810.318     6407668.232 9 -21217282.488 9
  21102170.725    21102172.665    34018958.198 9 -43974809.857 9
  22194280.119    22194283.276    70978232.226 9-103292276.979 9
  26189827.848    26189831.468    -9905379.174 8  10550196.698 8
 86  6 18  3  6 29.0800000  0  4G12G13G 9G 7
  20807361.096    20807365.119     6405329.166 9 -21219105.135 9
  21103604.764    21103607.969    34026497.918 9 -43968934.748 9
  22198366.902    22198369.113    70999707.878 9-103275542.688 8
                  26186213.590                    10535379.743 9
 86  6 18  3  6 35.0800000  0  4G12G13G 9G 7
  20806921.137    20806924.728     6403015.974 9 -21220907.627 9
  21105041.121    21105043.379    34034044.271 9 -43963054.481 9
  22202456.796    22202458.279    71021196.802 9-103258798.089 8
  26182591.175    26182598.376    -9960505.094 9  10520576.640 9
 86  6 18  3  6 41.0800000  0  4G12G13G 9G 7
  20806486.028    20806490.065     6400728.589 9 -21222689.998 8
  21106478.306    21106480.221    34041597.217 9 -43957169.058 9
  22206547.218    22206551.029    71042699.045 9-103242043.092 9
  26178984.619    26178987.109    -9979478.499 9  10505792.174 9
 86  6 18  3  6 47.0800000  0  4G12G13G 9G 7
  20806055.618    20806059.931     6398467.124 9 -21224452.189 9
  21107916.381    21107919.166    34049156.831 9 -43951278.448 9
  22210641.364    22210644.317    71064214.688 9-103225277.658 9
  26175379.667    26175382.108    -9998428.567 9  10491026.278 9
 86  6 18  3  6 53.0800000  0  4G12G13G 9G 7
  20805630.024    20805633.631     6396231.533 9 -21226194.212 9
  21109356.088    21109359.072    34056722.978 9 -43945382.762 9
  22214738.503    22214741.140    71085743.622 9-103208501.854 9
  26171776.283    26171779.560   -10017358.017 8  10476276.069 9
 86  6 18  3  6 59.0800000  0  4G12G13G 9G 7
  20805208.798    20805213.140     6394021.853 9 -21227916.049 8
  21110797.735    21110800.978    34064295.647 9 -43939481.975 9
  22218837.514    22218840.896    71107285.937 8-103191715.642 8
  26168176.385    26168180.196   -10036271.974 9  10461537.940 9
 86  6 18  3  7  5.0800000  0  4G12G13G 9G 7
  20804793.662    20804796.896     6391838.107 9 -21229617.673 9
  21112238.899    21112242.861    34071874.914 9 -43933576.054 9
  22222938.999    22222942.387    71128841.481 9-103174919.116 9
  26164580.720    26164582.771   -10055174.251 8  10446808.898 9
 86  6 18  3  7 11.0800000  0  4G12G13G 9G 7
  20804382.359    20804387.168     6389680.251 9 -21231299.121 8
  21113683.101    21113686.112    34079460.748 9 -43927665.008 9
  22227043.824    22227046.698    71150410.254 8-103158112.292 9
  26160985.197    26160987.453   -10074067.257 8  10432087.080 9
 86  6 18  3  7 17.0800000  0  4G12G13G 9G 7
  20803977.154    20803981.639     6387548.316 9 -21232960.370 8
  21115128.440    21115130.828    34087053.039 9 -43921748.935 9
  22231151.044    22231152.744    71171992.153 9-103141295.219 9
  26157392.640    26157393.719   -10092953.020 8  10417370.893 8
 86  6 18  3  7 23.0800000  0  4G12G13G 9G 7
  20803576.501    20803580.649     6385442.223 9 -21234601.488 8
  21116574.415    21116576.927    34094651.884 9 -43915827.755 9
  22235259.360    22235263.049    71193587.203 9-103124467.920 8
  26153798.825    26153802.370   -10111831.284 9  10402660.544 8
 86  6 18  3  7 29.0800000  0  4G12G13G 9G 7
  20803181.016    20803184.995     6383362.030 9 -21236222.410 9
  21118021.901    21118025.546    34102257.380 9 -43909901.397 9
  22239371.847    22239375.625    71215195.395 9-103107630.367 9
                  26150213.189                    10387959.381 8
 86  6 18  3  7 35.0800000  0  4G12G13G 9G 7
  20802790.188    20802793.799     6381307.814 9 -21237823.103 8
  21119470.222    21119473.007    34109869.496 9 -43903969.883 9
  22243485.797    22243489.397    71236816.748 8-103090782.563 8
  26146597.071    26146626.395   -10166922.836 9  10373272.916 9
 86  6 18  3  7 41.0800000  0  4G12G13G 9G 7
  20802404.420    20802407.965     6379279.538 9 -21239403.587 9
  21120920.314    21120921.914    34117488.188 9 -43898033.244 9
  22247603.512    22247606.152    71258451.254 8-103073924.509 9
  26143039.600    26143044.757   -10185745.829 9  10358605.737 9
 86  6 18  3  7 47.0800000  0  4G12G13G 9G 7
  20802023.056    20802026.391     6377277.296 9 -21240963.775 9
  21122371.266    21122373.551    34125113.569 9 -43892091.386 9
  22251722.188    22251726.083    71280098.956 9-103057056.173 9
  26139462.288    26139467.364   -10204544.371 8  10343957.146 9
 86  6 18  3  7 53.0800000  0  4G12G13G 9G 7
  20801646.678    20801650.756     6375301.069 9 -21242503.697 9
  21123823.363    21123825.423    34132745.432 9 -43886144.477 8
  22255844.114    22255848.472    71301759.743 9-103040177.644 8
  26135888.481    26135893.891   -10223323.538 9  10329324.039 9
 86  6 18  3  7 59.0800000  0  4G12G13G 9G 7
  20801276.840    20801279.569     6373350.897 9 -21244023.315 9
  21125277.661    21125279.145    34140383.821 9 -43880192.487 9
  22259968.588    22259972.037    71323433.629 8-103023288.900 8
  26132318.654    26132324.807   -10242087.370 9  10314702.903 9
 86  6 18  3  8  5.0800000  0  4G12G13G 9G 7
  20800909.640    20800913.149     6371426.788 9 -21245522.628 8
  21126732.334    21126733.280    34148028.711 9 -43874235.436 9
  22264095.519    22264099.737    71345120.560 9-103006389.998 8
  26128750.824    26128755.302   -10260839.510 9  10300090.864 9
 86  6 18  3  8 11.0800000  0  4G12G13G 9G 7
  20800548.889    20800552.186     6369528.645 8 -21247001.702 8
  21128188.381    21128190.810    34155680.094 9 -43868273.319 9
  22268225.556    22268227.869    71366820.475 8-102989480.984 9
  26125184.573    26125188.078   -10279582.265 9  10285486.136 9
 86  6 18  3  8 17.0800000  0  4G12G13G 9G 7
  20800192.174    20800196.444     6367656.455 8 -21248460.552 8
  21129645.002    21129647.743    34163337.898 9 -43862306.199 9
  22272356.006    22272360.376    71388533.366 8-102972561.845 9
  26121619.070    26121621.158   -10298317.516 9  10270887.260 8
 86  6 18  3  8 23.0800000  0  4G12G13G 9G 7
  20799841.318    20799844.219     6365810.225 9 -21249899.180 9
  21131103.964    21131105.850    34171002.105 9 -43856334.096 9
  22276491.388    22276493.872    71410259.126 8-102955632.684 8
  26118056.391    26118057.789   -10317044.837 9  10256294.551 9
 86  6 18  3  8 29.0800000  0  4G12G13G 9G 7
  20799494.843    20799498.977     6363990.027 9 -21251317.521 9
  21132562.786    21132565.788    34178672.671 9 -43850357.026 9
  22280628.629    22280631.277    71431997.658 9-102938693.574 8
                  26114497.115                    10241711.761 8
 86  6 18  3  8 35.0800000  0  4G12G13G 9G 7
  20799152.166    20799156.703     6362195.629 9 -21252715.755 9
  21134023.296    21134026.343    34186349.461 9 -43844375.109 9
  22284766.880    22284770.726    71453748.945 9-102921744.519 9
  26110931.973    26110939.376   -10371987.294 9  10227144.390 8
 86  6 18  3  8 41.0800000  0  4G12G13G 9G 7
  20798816.644    20798820.543     6360427.141 9 -21254093.801 8
  21135485.835    21135488.355    34194032.604 9 -43838388.253 9
  22288908.005    22288912.673    71475513.103 8-102904785.434 9
  26107384.229    26107385.336   -10390657.597 9  10212596.428 8
 86  6 18  3  8 47.0800000  0  4G12G13G 9G 7
  20798484.937    20798489.028     6358684.690 9 -21255451.555 8
  21136948.407    21136952.311    34201722.101 9 -43832396.439 9
  22293053.117    22293056.113    71497290.080 9-102887816.379 8
  26103835.430    26103837.325   -10409304.200 9  10198066.987 9
 86  6 18  3  8 53.0800000  0  4G12G13G 9G 7
  20798158.203    20798162.549     6356968.218 9 -21256789.063 8
  21138412.926    21138415.842    34209417.939 9 -43826399.683 9
  22297198.719    22297202.573    71519079.852 8-102870837.324 9
  26100291.378    26100292.756   -10427930.686 9  10183552.840 8
 86  6 18  3  8 59.0800000  0  4G12G13G 9G 7
  20797836.569    20797841.473     6355277.719 9 -21258106.342 8
  21139879.074    21139881.402    34217120.066 9 -43820398.033 9
  22301347.661    22301350.738    71540882.335 9-102853848.379 9
  26096749.542    26096752.623   -10446542.165 9  10169050.382 9
 86  6 18  3  9  5.0800000  0  4G12G13G 9G 7
  20797518.676    20797523.878     6353613.172 9 -21259403.403 9
  21141345.940    21141349.211    34224828.455 9 -43814391.492 9
  22305499.637    22305502.875    71562697.463 9-102836849.586 9
  26093210.712    26093213.302   -10465142.067 9  10154556.954 9
 86  6 18  3  9 11.0800000  0  4G12G13G 9G 7
  20797207.102    20797212.194     6351974.621 9 -21260680.185 9
  21142814.403    21142816.964    34232543.167 9 -43808380.034 9
  22309653.101    22309656.080    71584525.255 9-102819840.905 9
  26089671.557    26089674.973   -10483732.581 8  10140070.855 9
 86  6 18  3  9 17.0800000  0  4G12G13G 9G 7
  20796900.040    20796905.502     6350362.086 9 -21261936.710 8
  21144283.214    21144287.044    34240264.097 9 -43802363.721 8
  22313808.976    22313812.696    71606365.692 9-102802822.385 9
  26086135.084    26086139.134   -10502315.419 9  10125590.736 9
 86  6 18  3  9 23.0800000  0  4G12G13G 9G 7
  20796598.524    20796603.584     6348775.569 8 -21263172.965 9
  21145753.625    21145756.942    34247991.347 9 -43796342.488 9
  22317967.125    22317971.118    71628218.841 8-102785793.967 9
  26082600.780    26082604.792   -10520889.515 9  10111117.424 9
 86  6 18  3  9 29.0800000  0  4G12G13G 9G 7
  20796301.286    20796306.183     6347215.121 9 -21264388.894 8
  21147224.698    21147228.059    34255724.883 9 -43790316.364 9
  22322128.038    22322131.418    71650084.645 8-102768755.675 9
                  26079073.078                    10096654.752 9
 86  6 18  3  9 35.0800000  0  4G12G13G 9G 7
  20796010.326    20796014.017     6345680.755 9 -21265584.504 9
  21148697.657    21148700.427    34263464.718 9 -43784285.323 9
  22326291.535    22326295.602    71671963.079 8-102751707.551 9
  26075450.291    26075545.528   -10575559.951 8  10082208.321 9
 86  6 18  3  9 41.0800000  0  4G12G13G 9G 7
  20795722.724    20795727.494     6344172.509 9 -21266759.770 9
  21150171.504    21150174.802    34271210.898 9 -43778249.345 9
  22330457.247    22330461.612    71693854.110 8-102734649.611 9
  26072018.079    26072021.585   -10594074.222 9  10067781.735 9
 86  6 18  3  9 47.0800000  0  4G12G13G 9G 7
  20795440.627    20795446.044     6342690.372 9 -21267914.679 9
  21151647.239    21151650.454    34278963.381 9 -43772208.450 9
  22334624.288    22334628.713    71715757.776 8-102717581.812 9
  26068499.335    26068503.031   -10612564.157 8  10053373.597 9
 86  6 18  3  9 53.0800000  0  4G12G13G 9G 7
  20795164.317    20795168.640     6341234.358 9 -21269049.231 8
  21153123.429    21153125.922    34286722.077 9 -43766162.706 9
  22338794.629    22338799.753    71737673.945 8-102700504.281 8
  26064984.105    26064988.121   -10631035.103 9  10038980.664 8
 86  6 18  3  9 59.0800000  0  4G12G13G 9G 7
  20794892.708    20794895.672     6339804.441 9 -21270163.452 9
  21154601.084    21154604.487    34294487.039 9 -43760112.089 9
  22342968.064    22342971.776    71759602.643 8-102683416.995 9
  26061473.316    26061475.539   -10649491.101 9  10024599.388 9
 86  6 18  3 10  5.0800000  0  4G12G13G 9G 7
  20794625.906    20794628.759     6338400.619 9 -21271257.348 9
  21156079.111    21156083.224    34302258.190 9 -43754056.646 9
  22347143.253    22347147.621    71781543.831 9-102666319.974 8
  26057963.773    26057965.962   -10667935.506 9  10010227.110 9
 86  6 18  3 10 11.0800000  0  4G12G13G 9G 7
  20794364.245    20794366.911     6337022.871 9 -21272330.916 8
  21157558.221    21157563.098    34310035.460 9 -43747996.435 9
  22351321.194    22351325.302    71803497.486 9-102649213.226 8
  26054455.120    26054458.063   -10686370.607 9   9995862.090 9
 86  6 18  3 10 17.0800000  0  4G12G13G 9G 7
  20794106.113    20794110.686     6335671.164 9 -21273384.187 8
  21159040.137    21159044.055    34317818.850 9 -43741931.457 9
  22355500.472    22355505.277    71825463.531 8-102632096.830 8
  26050948.186    26050952.101   -10704797.684 9   9981503.338 9
 86  6 18  3 10 23.0800000  0  4G12G13G 9G 7
  20793854.594    20793857.630     6334345.547 9 -21274417.142 9
  21160522.285    21160526.632    34325608.436 9 -43735861.652 9
  22359683.834    22359686.960    71847441.935 8-102614970.810 9
  26047442.467    26047447.524   -10723215.640 9   9967151.697 9
 86  6 18  3 10 29.0800000  0  4G12G13G 9G 7
  20793606.269    20793609.479     6333045.969 9 -21275429.793 9
  21162005.686    21162010.091    34333404.095 9 -43729787.112 9
  22363868.083    22363871.868    71869432.677 8-102597835.165 8
                  26043944.441                     9952811.424 9
 86  6 18  3 10 35.0800000  0  4G12G13G 9G 7
  20793364.957    20793365.902     6331772.433 9 -21276422.163 8
  21163490.812    21163493.998    34341205.887 9 -43723707.786 9
  22368055.353    22368059.536    71891435.774 8-102580689.898 9
  26040440.066    26040446.362   -10777843.814 9   9938487.950 8
 86  6 18  3 10 41.0800000  0  4G12G13G 9G 7
  20793128.004    20793129.491     6330524.912 9 -21277394.255 9
  21164976.963    21164979.609    34349013.850 9 -43717623.660 9
  22372243.883    22372247.776    71913451.162 8-102563535.043 9
  26036947.558    26036952.780   -10796199.862 8   9924184.545 9
 86  6 18  3 10 47.0800000  0  4G12G13G 9G 7
  20792894.481    20792897.590     6329303.435 9 -21278346.055 9
  21166464.206    21166467.246    34356827.930 8 -43711534.770 9
  22376435.548    22376440.923    71935478.795 8-102546370.665 8
  26033457.177    26033464.438   -10814532.295 8   9909899.558 9
 86  6 18  3 10 53.0800000  0  4G12G13G 9G 7
  20792666.106    20792669.672     6328108.053 9 -21279277.515 8
  21167951.102    21167955.318    34364648.058 9 -43705441.166 8
  22380630.427    22380634.283    71957518.707 8-102529196.712 9
  26029975.461    26029979.645   -10832845.320 9   9895629.702 9
 86  6 18  3 10 59.0800000  0  4G12G13G 9G 7
  20792443.952    20792446.805     6326938.842 9 -21280188.592 8
  21169440.859    21169444.619    34372474.254 9 -43699342.825 9
  22384826.066    22384830.907    71979570.821 8-102512013.247 9
  26026493.057    26026496.358   -10851143.737 8   9881371.181 8
 86  6 18  3 11  5.0800000  0  4G12G13G 9G 7
  20792226.847    20792229.884     6325795.895 9 -21281079.208 9
  21170931.362    21170934.950    34380306.567 8 -43693239.736 8
  22389025.229    22389029.752    72001635.242 9-102494820.193 9
  26023012.995    26023018.118   -10869430.567 9   9867121.705 8
 86  6 18  3 11 11.0800000  0  4G12G13G 9G 7
  20792014.301    20792016.681     6324679.159 9 -21281949.387 7
  21172422.778    21172426.408    34388144.898 9 -43687131.940 9
  22393226.632    22393231.137    72023711.834 7-102477617.648 9
  26019536.457    26019540.203   -10887707.704 8   9852879.774 9
 86  6 18  3 11 17.0800000  0  4G12G13G 9G 7
  20791806.430    20791809.856     6323588.588 9 -21282799.185 7
  21173916.371    21173919.544    34395989.287 9 -43681019.430 9
  22397429.942    22397434.853    72045800.599 9-102460405.629 9
  26016059.438    26016064.146   -10905976.527 9   9838644.337 9
 86  6 18  3 11 23.0800000  0  4G12G13G 9G 7
  20791604.546    20791607.243     6322524.148 9 -21283628.625 9
  21175410.365    21175413.049    34403839.728 8 -43674902.201 9
  22401635.249    22401639.122    72067901.522 8-102443184.124 9
  26012585.024    26012589.426   -10924235.697 8   9824416.410 9
 86  6 18  3 11 29.0800000  0  4G12G13G 9G 7
  20791406.689    20791409.392     6321485.777 9 -21284437.732 9
  21176905.162    21176908.290    34411696.174 9 -43668780.306 9
  22405842.933    22405847.163    72090014.577 9-102425953.185 8
                  26009117.506                     9810200.531 9
 86  6 18  3 11 35.0800000  0  4G12G13G 9G 7
  20791213.775    20791217.243     6320473.584 9 -21285226.453 8
  21178400.469    21178404.073    34419558.479 9 -43662653.830 9
  22410055.016    22410057.404    72112139.609 9-102408712.894 8
  26005644.095    26005650.742   -10978706.116 8   9796002.213 9
 86  6 18  3 11 41.0800000  0  4G12G13G 9G 7
  20791026.585    20791029.763     6319487.476 9 -21285994.851 8
  21179897.842    21179901.687    34427426.707 9 -43656522.743 9
  22414266.950    22414269.983    72134276.644 8-102391463.259 9
  26002182.794    26002188.804   -10996901.409 8   9781824.071 9
 86  6 18  3 11 47.0800000  0  4G12G13G 9G 7
  20790842.828    20790846.502     6318527.442 9 -21286742.934 9
  21181396.417    21181399.688    34435300.891 9 -43650387.017 9
  22418481.772    22418484.762    72156425.653 8-102374204.290 8
  25998725.098    25998729.519   -11015073.674 9   9767664.282 9
 86  6 18  3 11 53.0800000  0  4G12G13G 9G 7
  20790665.545    20790669.485     6317593.480 9 -21287470.683 8
  21182896.359    21182899.749    34443181.009 9 -43644246.665 9
  22422699.595    22422701.853    72178586.702 9-102356935.939 9
  25995271.117    25995275.653   -11033226.302 8   9753519.393 9
 86  6 18  3 11 59.0800000  0  4G12G13G 9G 7
  20790493.377    20790496.150     6316685.692 9 -21288178.050 9
  21184397.397    21184399.810    34451067.106 9 -43638101.645 9
  22426918.852    22426922.279    72200759.705 9-102339658.273 8
  25991820.665    25991824.247   -11051364.210 9   9739385.961 9
 86  6 18  3 12  5.0800000  0  4G12G13G 9G 7
  20790325.445    20790328.502     6315804.117 9 -21288865.002 8
  21185898.631    21185901.760    34458959.098 9 -43631952.038 9
  22431140.461    22431142.207    72222944.598 8-102322371.339 9
  25988372.030    25988374.272   -11069490.405 9   9725261.670 9
 86  6 18  3 12 11.0800000  0  4G12G13G 9G 7
  20790162.267    20790165.582     6314948.720 9 -21289531.535 8
  21187402.642    21187405.038    34466857.025 9 -43625797.816 9
  22435364.554    22435366.753    72245141.375 8-102305075.152 8
  25984924.340    25984926.558   -11087607.195 9   9711144.684 9
 86  6 18  3 12 17.0800000  0  4G12G13G 9G 7
  20790004.502    20790007.594     6314119.472 9 -21290177.708 9
  21188906.881    21188909.136    34474760.934 9 -43619638.921 9
  22439590.439    22439593.713    72267350.034 9-102287769.702 8
  25981478.315    25981480.618   -11105715.404 9   9697034.377 8
 86  6 18  3 12 23.0800000  0  4G12G13G 9G 7
  20789850.962    20789855.406     6313316.327 9 -21290803.531 8
  21190411.230    21190413.860    34482670.766 9 -43613475.411 9
  22443819.443    22443821.930    72289570.679 9-102270454.917 9
  25978034.331    25978036.358   -11123813.335 9   9682932.080 9
 86  6 18  3 12 29.0800000  0  4G12G13G 9G 7
  20789703.247    20789707.597     6312539.423 9 -21291408.905 9
  21191918.563    21191920.746    34490586.539 9 -43607307.273 8
  22448049.233    22448052.459    72311803.066 8-102253130.963 9
                  25974596.525                     9668842.689 8
 86  6 18  3 12 35.0800000  0  4G12G13G 9G 7
  20789560.262    20789564.630     6311788.667 9 -21291993.905 9
  21193425.721    21193427.781    34498508.243 9 -43601134.520 9
  22452282.370    22452285.372    72334047.290 8-102235797.806 9
  25971154.499    25971159.781   -11178119.129 8   9654771.605 9
 86  6 18  3 12 41.0800000  0  4G12G13G 9G 7
  20789422.722    20789427.183     6311064.022 9 -21292558.558 9
  21194934.372    21194935.767    34506435.860 9 -43594957.152 9
  22456516.844    22456520.149    72356303.273 8-102218455.487 8
  25967724.586    25967728.837   -11196150.827 9   9640720.934 9
 86  6 18  3 12 47.0800000  0  4G12G13G 9G 7
  20789289.009    20789294.318     6310365.586 9 -21293102.793 9
  21196444.045    21196445.977    34514369.250 9 -43588775.286 9
  22460753.931    22460757.431    72378571.123 9-102201103.918 8
  25964297.191    25964301.938   -11214158.586 8   9626688.530 9
 86  6 18  3 12 53.0800000  0  4G12G13G 9G 7
  20789161.303    20789166.187     6309693.313 9 -21293626.634 8
  21197954.922    21197956.724    34522308.412 9 -43582588.929 9
  22464993.642    22464997.121    72400850.654 8-102183743.241 9
  25960874.748    25960880.010   -11232147.904 9   9612670.889 9
 86  6 18  3 12 59.0800000  0  4G12G13G 9G 7
  20789038.392    20789042.961     6309047.266 8 -21294130.059 8
  21199466.664    21199469.091    34530253.324 9 -43576398.085 9
  22469234.989    22469239.107    72423141.758 9-102166373.550 8
  25957454.541    25957459.226   -11250122.605 9   9598664.628 9
 86  6 18  3 13  5.0800000  0  4G12G13G 9G 7
  20788919.868    20788925.294     6308427.452 9 -21294613.021 8
  21200978.741    21200980.758    34538204.016 9 -43570202.743 9
  22473481.263    22473482.782    72445444.603 8-102148994.703 8
  25954036.967    25954041.513   -11268085.541 9   9584667.561 9
 86  6 18  3 13 11.0800000  0  4G12G13G 9G 7
  20788807.450    20788811.827     6307833.885 9 -21295075.546 8
  21202493.112    21202495.253    34546160.540 9 -43564002.857 9
  22477726.391    22477729.331    72467759.451 8-102131606.514 8
  25950619.965    25950624.411   -11286038.905 8   9570677.928 9
 86  6 18  3 13 17.0800000  0  4G12G13G 9G 7
  20788699.850    20788703.271     6307266.518 9 -21295517.629 8
  21204007.882    21204010.798    34554122.815 9 -43557798.485 9
  22481973.817    22481978.039    72490085.670 8-102114209.459 9
  25947205.105    25947209.160   -11303983.562 9   9556695.073 9
 86  6 18  3 13 23.0800000  0  4G12G13G 9G 7
  20788596.454    20788600.646     6306725.360 9 -21295939.322 8
  21205524.370    21205526.987    34562090.858 9 -43551589.619 9
  22486224.726    22486228.489    72512423.389 8-102096803.463 9
  25943792.215    25943795.731   -11321917.302 9   9542720.735 9
 86  6 18  3 13 29.0800000  0  4G12G13G 9G 7
  20788498.808    20788502.067     6306210.389 9 -21296340.595 9
  21207041.890    21207044.805    34570064.611 9 -43545376.309 9
  22490477.476    22490482.898    72534772.870 9-102079388.273 8
                  25940387.005                     9528760.065 9
 86  6 18  3 13 35.0800000  0  4G12G13G 9G 7
  20788405.338    20788409.206     6305721.604 8 -21296721.462 9
  21208560.324    21208562.465    34578044.034 9 -43539158.577 9
  22494733.046    22494736.859    72557133.776 9-102061964.197 9
  25936978.566    25936981.571   -11376054.014 9   9514818.260 8
 86  6 18  3 13 41.0800000  0  4G12G13G 9G 7
  20788317.209    20788322.480     6305259.112 8 -21297081.855 8
  21210080.130    21210082.845    34586029.174 9 -43532936.391 9
  22498989.756    22498994.349    72579506.155 8-102044531.180 8
  25933577.972    25933580.886   -11393919.576 9   9500897.058 8
 86  6 18  3 13 47.0800000  0  4G12G13G 9G 7
  20788234.361    20788239.303     6304822.788 9 -21297421.830 8
  21211599.940    21211603.295    34594020.019 9 -43526709.759 9
  22503251.128    22503253.486    72601890.054 9-102027089.186 9
  25930183.903    25930186.106   -11411762.247 9   9486994.075 8
 86  6 18  3 13 53.0800000  0  4G12G13G 9G 7
  20788156.780    20788161.187     6304412.713 9 -21297741.368 9
  21213121.579    21213124.151    34602016.648 9 -43520478.605 9
  22507512.025    22507515.873    72624285.486 8-102009638.200 8
  25926792.763    25926794.074   -11429585.596 9   9473105.748 9
 86  6 18  3 13 59.0800000  0  4G12G13G 9G 7
  20788083.886    20788087.677     6304028.830 9 -21298040.504 8
  21214644.707    21214648.706    34610019.044 9 -43514242.977 9
  22511776.357    22511779.401    72646692.316 9-101992178.339 8
  25923404.723    25923405.087   -11447394.524 9   9459228.652 9
 86  6 18  3 14  5.0800000  0  4G12G13G 9G 7
  20788015.709    20788020.011     6303671.186 9 -21298319.179 8
  21216168.521    21216172.381    34618027.154 9 -43508002.890 9
  22516041.874    22516046.104    72669110.535 8-101974709.595 9
  25920018.492    25920017.966   -11465191.617 9   9445360.759 9
 86  6 18  3 14 11.0800000  0  4G12G13G 9G 7
  20787952.782    20787956.696     6303339.868 9 -21298577.354 8
  21217693.939    21217696.583    34626040.964 9 -43501758.365 9
  22520311.205    22520314.056    72691540.213 8-101957231.923 9
  25916633.118    25916635.055   -11482979.025 9   9431500.430 9
 86  6 18  3 14 17.0800000  0  4G12G13G 9G 7
  20787894.812    20787898.378     6303034.842 9 -21298815.029 9
  21219220.181    21219223.753    34634060.472 9 -43495509.395 9
  22524580.512    22524584.933    72713981.357 9-101939745.319 8
  25913248.870    25913251.502   -11500757.295 9   9417647.237 9
 86  6 18  3 14 23.0800000  0  4G12G13G 9G 7
  20787841.410    20787845.301     6302755.961 9 -21299032.334 8
  21220746.746    21220750.446    34642085.544 9 -43489256.090 9
  22528853.339    22528856.678    72736433.757 9-101922249.944 9
  25909867.069    25909871.481   -11518523.956 9   9403803.085 8
 86  6 18  3 14 29.0800000  0  4G12G13G 9G 7
  20787794.510    20787797.411     6302503.227 9 -21299229.271 7
  21222274.533    21222279.183    34650116.168 9 -43482998.465 9
  22533127.258    22533130.948    72758897.374 9-101904745.830 9
                  25906494.960                     9389973.130 9
 86  6 18  3 14 35.0800000  0  4G12G13G 9G 7
  20787750.953    20787755.010     6302276.670 9 -21299405.804 9
  21223804.247    21223808.120    34658152.305 9 -43476736.539 9
  22537404.386    22537409.524    72781372.191 8-101887232.977 8
  25903117.485    25903121.806   -11572498.514 8   9376162.547 9
 86  6 18  3 14 41.0800000  0  4G12G13G 9G 7
  20787713.473    20787716.569     6302076.367 9 -21299561.893 8
  21225334.987    21225337.758    34666194.002 9 -43470470.271 9
  22541684.331    22541687.772    72803858.193 9-101869711.433 8
  25899748.509    25899754.310   -11590195.723 9   9362372.529 9
 86  6 18  3 14 47.0800000  0  4G12G13G 9G 7
  20787679.279    20787683.429     6301902.220 9 -21299697.583 9
  21226866.185    21226868.775    34674241.232 9 -43464199.703 9
  22545964.860    22545968.978    72826355.315 9-101852181.202 8
  25896385.234    25896390.143   -11607869.245 9   9348600.601 9
 86  6 18  3 14 53.0800000  0  4G12G13G 9G 7
  20787650.827    20787654.220     6301754.261 9 -21299812.877 8
  21228398.584    21228401.999    34682293.997 9 -43457924.815 9
  22550248.885    22550251.989    72848863.592 9-101834642.289 9
  25893025.464    25893031.385   -11625524.759 9   9334843.072 9
 86  6 18  3 14 59.0800000  0  4G12G13G 9G 7
  20787628.050    20787632.041     6301632.594 9 -21299907.676 9
  21229932.356    21229934.987    34690352.310 9 -43451645.608 9
  22554534.284    22554536.724    72871383.019 9-101817094.685 8
  25889670.407    25889673.609   -11643165.784 9   9321096.832 9
 86  6 18  3 15  5.0800000  0  4G12G13G 9G 7
  20787609.609    20787613.713     6301537.198 9 -21299982.012 8
  21231466.134    21231468.688    34698416.172 9 -43445362.089 9
  22558821.416    22558824.410    72893913.648 9-101799538.350 8
  25886315.784    25886318.685   -11660794.789 9   9307359.939 9
 86  6 18  3 15 11.0800000  0  4G12G13G 9G 7
  20787597.256    20787600.112     6301468.061 9 -21300035.873 8
  21233002.481    21233005.253    34706485.570 9 -43439074.246 9
  22563110.134    22563113.608    72916455.383 8-101781973.370 8
  25882963.286    25882965.579   -11678414.055 9   9293630.634 9
 86  6 18  3 15 17.0800000  0  4G12G13G 9G 7
  20787588.892    20787592.176     6301425.190 9 -21300069.282 8
  21234538.658    21234541.941    34714560.484 9 -43432782.096 9
  22567401.494    22567405.869    72939008.273 8-101764399.692 9
  25879612.071    25879613.782   -11696024.030 9   9279908.575 9
 86  6 18  3 15 23.0800000  0  4G12G13G 9G 7
  20787585.929    20787589.238     6301408.692 9 -21300082.138 9
  21236075.549    21236078.436    34722641.026 8 -43426485.564 9
  22571694.685    22571700.268    72961572.310 8-101746817.336 9
  25876263.496    25876266.111   -11713621.476 9   9266196.265 9
 86  6 18  3 15 29.0800000  0  4G12G13G 9G 7
  20787586.860    20787590.736     6301418.474 9 -21300074.505 8
  21237614.217    21237617.592    34730727.064 9 -43420184.756 9
  22575992.373    22575995.859    72984147.433 9-101729226.323 8
                  25872917.756   -11731200.992 9
 86  6 18  3 15 35.0800000  0  4G12G13G 9G 7
  20787594.038    20787597.224     6301454.533 9 -21300046.410 8
  21239155.111    21239157.587    34738818.617 8 -43413879.649 9
  22580288.589    22580293.241    73006733.631 8-101711626.694 8
  25869574.445    25869585.969   -11748754.013 9   9328545.796 9
 86  6 18  3 15 41.0800000  0  4G12G13G 9G 7
  20787606.168    20787609.758     6301516.883 9 -21299997.826 8
  21240694.811    21240698.399    34746915.612 9 -43407570.301 9
  22584589.491    22584593.601    73029330.737 8-101694018.576 9
  25866240.918    25866246.461   -11766279.904 9   9314889.299 8
 86  6 18  3 15 47.0800000  0  4G12G13G 9G 7
  20787622.738    20787625.870     6301605.461 9 -21299928.792 9
  21242236.570    21242240.033    34755018.041 9 -43401256.724 8
  22588891.930    22588896.381    73051938.833 8-101676401.878 9
  25862910.428    25862915.098   -11783782.541 9   9301250.894 9
 86  6 18  3 15 53.0800000  0  4G12G13G 9G 7
  20787644.235    20787647.917     6301720.356 9 -21299839.258 8
  21243779.274    21243783.247    34763125.950 9 -43394938.870 9
  22593196.891    22593198.910    73074557.846 9-101658776.674 9
  25859583.458    25859588.582   -11801266.764 9   9287626.839 9
 86  6 18  3 15 59.0800000  0  4G12G13G 9G 7
  20787671.989    20787675.960     6301861.546 7 -21299729.238 8
  21245323.407    21245327.397    34771239.338 9 -43388616.748 9
  22597502.864    22597506.651    73097187.800 7-101641142.933 7
  25856258.933    25856263.269   -11818736.450 8   9274014.094 9
 86  6 18  3 16  5.0800000  0  4G12G13G 9G 7
  20787703.947    20787707.578     6302029.026 9 -21299598.737 8
  21246868.707    21246872.034    34779358.262 9 -43382290.316 8
  22601811.404    22601814.977    73119828.515 8-101623500.832 9
  25852937.178    25852941.639   -11836194.278 8   9260410.593 9
 86  6 18  3 16 11.0800000  0  4G12G13G 9G 7
  20787740.379    20787744.202     6302222.888 9 -21299447.663 9
  21248414.721    21248418.171    34787482.650 9 -43375959.617 9
  22606120.831    22606125.566    73142480.192 8-101605850.174 8
  25849616.253    25849622.400   -11853642.137 9   9246814.865 9
 86  6 18  3 16 17.0800000  0  4G12G13G 9G 7
  20787782.877    20787786.385     6302443.130 9 -21299276.047 9
  21249961.760    21249965.051    34795612.515 9 -43369624.657 8
  22610434.538    22610438.070    73165142.843 8-101588190.968 7
  25846297.713    25846304.052   -11871080.131 9   9233226.827 9
 86  6 18  3 16 23.0800000  0  4G12G13G 9G 7
  20787829.712    20787832.522     6302689.610 9 -21299083.980 8
  21251509.821    21251512.654    34803747.686 9 -43363285.553 9
  22614748.259    22614752.118    73187816.311 7-101570523.328 8
  25842982.159    25842988.234   -11888504.968 9   9219649.049 9
 86  6 18  3 16 29.0800000  0  4G12G13G 9G 7
  20787882.123    20787885.298     6302962.354 9 -21298871.452 8
  21253058.427    21253062.481    34811888.399 9 -43356942.144 8
  22619064.497    22619069.720    73210500.619 8-101552847.261 7
                  25839672.834   -11905909.520 9
 86  6 18  3 16 35.0800000  0  4G12G13G 9G 7
  20787938.652    20787942.494     6303261.323 9 -21298638.498 8
  21254609.244    21254612.469    34820034.485 9 -43350594.547 9
  22623384.401    22623387.603    73233195.594 8-101535162.861 7
  25836363.687    25836369.855   -11923287.843 9   9259002.072 9
 86  6 18  3 16 41.0800000  0  4G12G13G 9G 7
  20788000.218    20788003.746     6303586.522 9 -21298385.098 8
  21256160.574    21256164.014    34828185.858 8 -43344242.813 9
  22627705.232    22627709.782    73255901.282 7-101517470.116 7
  25833061.618    25833066.769   -11940639.443 9   9245481.318 8
 86  6 18  3 16 47.0800000  0  4G12G13G 9G 7
  20788067.812    20788071.133     6303938.098 9 -21298111.150 8
  21257712.028    21257715.718    34836342.632 9 -43337886.892 9
  22632028.322    22632030.364    73278617.641 8-101499769.055 9
  25829765.157    25829767.780   -11957968.114 9   9231978.950 9
 86  6 18  3 16 53.0800000  0  4G12G13G 9G 7
  20788139.652    20788142.208     6304315.910 9 -21297816.745 9
  21259265.055    21259269.066    34844504.728 9 -43331526.806 9
  22636352.364    22636355.632    73301344.649 9-101482059.695 9
  25826470.350    25826473.717   -11975278.511 9   9218490.351 9
 86  6 18  3 16 59.0800000  0  4G12G13G 9G 7
  20788216.006    20788219.528     6304719.945 9 -21297501.908 9
  21260819.747    21260823.353    34852672.087 9 -43325162.636 8
  22640678.962    22640682.709    73324082.303 9-101464342.045 8
  25823178.478    25823183.890   -11992574.458 9   9205012.984 8
 86  6 18  3 17  5.0800000  0  4G12G13G 9G 7
  20788297.636    20788302.050     6305150.219 9 -21297166.632 8
  21262375.508    21262378.921    34860844.667 9 -43318794.387 9
  22645007.726    22645011.742    73346830.378 9-101446616.267 8
  25819889.783    25819894.524   -12009858.596 9   9191544.846 9
 86  6 18  3 17 11.0800000  0  4G12G13G 9G 7
  20788384.722    20788388.033     6305606.687 9 -21296810.939 8
  21263931.568    21263936.068    34869022.448 9 -43312422.088 9
  22649339.926    22649342.251    73369588.999 9-101428882.282 9
  25816603.248    25816606.472   -12027132.754 9   9178084.470 9
 86  6 18  3 17 17.0800000  0  4G12G13G 9G 7
  20788476.374    20788479.856     6306089.436 8 -21296434.781 8
  21265488.845    21265492.194    34877205.423 9 -43306045.737 9
  22653672.285    22653675.020    73392358.129 8-101411140.104 8
  25813318.129    25813320.795   -12044396.891 9   9164631.902 9
 86  6 18  3 17 23.0800000  0  4G12G13G 9G 7
  20788573.177    20788577.399     6306598.423 8 -21296038.143 8
  21267046.737    21267050.564    34885393.628 9 -43299665.315 9
  22658006.773    22658010.235    73415137.762 8-101393389.749 9
                  25810037.335                     9151190.206 9
 86  6 18  3 17 29.0800000  0  4G12G13G 9G 7
  20788674.676    20788679.183     6307133.746 9 -21295621.015 8
  21268606.151    21268609.350    34893587.067 9 -43293280.811 8
  22662343.614    22662347.666    73437927.934 9-101375631.180 9
  25806796.720    25806760.146   -12097896.392 9   9137764.994 8
 86  6 18  3 17 35.0800000  0  4G12G13G 9G 7
  20788781.932    20788786.587     6307695.344 9 -21295183.396 8
  21270165.861    21270169.866    34901785.709 9 -43286892.264 8
  22666682.665    22666685.793    73460728.497 8-101357864.498 8
  25803485.100    25803487.060   -12115098.616 9   9124360.808 9
 86  6 18  3 17 41.0800000  0  4G12G13G 9G 7
  20788893.250    20788897.185     6308283.266 8 -21294725.269 8
  21271727.423    21271730.306    34909989.566 9 -43280499.643 8
  22671022.586    22671025.987    73483539.503 9-101340089.687 8
  25800215.221    25800219.243   -12132274.091 9   9110977.306 9
 86  6 18  3 17 47.0800000  0  4G12G13G 9G 7
  20789010.286    20789014.345     6308897.559 9 -21294246.591 8
  21273289.358    21273294.001    34918198.673 9 -43274102.927 8
  22675364.715    22675370.328    73506361.036 9-101322306.677 8
  25796950.008    25796954.800   -12149426.282 9   9097611.593 8
 86  6 18  3 17 53.0800000  0  4G12G13G 9G 7
  20789132.331    20789136.193     6309538.237 9 -21293747.379 8
  21274852.345    21274856.448    34926412.978 9 -43267702.166 9
  22679709.783    22679714.414    73529192.984 9-101304515.555 8
  25793688.055    25793694.223   -12166560.753 9   9084260.085 9
 86  6 18  3 17 59.0800000  0  4G12G13G 9G 7
  20789258.491    20789263.724     6310205.304 8 -21293227.592 8
  21276416.081    21276420.223    34934632.615 9 -43261297.248 9
  22684057.413    22684061.629    73552035.387 9-101286716.276 9
  25790429.851    25790437.022   -12183680.601 9   9070919.956 9
 86  6 18  3 18  5.0800000  0  4G12G13G 9G 7
  20789390.999    20789395.075     6310898.677 8 -21292687.289 9
  21277981.291    21277985.541    34942857.432 9 -43254888.301 9
  22688405.897    22688410.826    73574888.303 9-101268908.802 8
  25787175.170    25787179.335   -12200788.494 8   9057589.162 9
 86  6 18  3 18 11.0800000  0  4G12G13G 9G 7
  20789528.045    20789532.239     6311618.394 9 -21292126.489 8
  21279547.535    21279551.939    34951087.492 9 -43248475.272 8
  22692756.675    22692760.581    73597751.500 9-101251093.323 9
  25783922.848    25783925.767   -12217886.094 9   9044266.370 8
 86  6 18  3 18 17.0800000  0  4G12G13G 9G 7
  20789670.153    20789673.773     6312364.501 9 -21291545.099 8
  21281114.068    21281118.675    34959322.891 9 -43242058.066 9
  22697109.417    22697112.528    73620625.064 8-101233269.764 8
  25780671.928    25780676.064   -12234973.076 9   9030951.834 9
 86  6 18  3 18 23.0800000  0  4G12G13G 9G 7
  20789817.257    20789821.275     6313136.925 9 -21290943.207 9
  21282682.219    21282686.412    34967563.558 9 -43235636.764 9
  22701463.995    22701467.964    73643508.902 9-101215438.207 8
                  25777427.719                     9017648.949 8
 86  6 18  3 18 29.0800000  0  4G12G13G 9G 7
  20789969.689    20789972.789     6313935.684 9 -21290320.805 9
  21284251.173    21284255.586    34975809.360 9 -43229211.462 9
  22705820.745    22705825.052    73666402.928 8-101197598.707 8
  25774204.060    25774182.124   -12288296.102 9   9004363.207 9
 86  6 18  3 18 35.0800000  0  4G12G13G 9G 7
  20790125.639    20790129.499     6314760.741 9 -21289677.899 9
  21285821.728    21285825.941    34984060.215 9 -43222782.224 9
  22710178.986    22710183.451    73689307.231 8-101179751.189 8
  25770940.605    25770942.238   -12305318.810 9   8991098.821 8
 86  6 18  3 18 41.0800000  0  4G12G13G 9G 7
  20790287.933    20790292.153     6315612.086 8 -21289014.512 8
  21287392.992    21287395.425    34992316.194 9 -43216348.975 8
  22714539.482    22714544.043    73712221.761 8-101161895.725 9
  25767705.726    25767708.589   -12322314.781 9   8977855.182 9
 86  6 18  3 18 47.0800000  0  4G12G13G 9G 7
  20790455.694    20790458.218     6316489.689 9 -21288330.669 8
  21288965.049    21288968.662    35000577.258 9 -43209911.781 8
  22718901.716    22718905.485    73735146.321 8-101144032.434 8
  25764475.870    25764479.805   -12339288.158 9   8964629.174 9
 86  6 18  3 18 53.0800000  0  4G12G13G 9G 7
  20790627.259    20790630.631     6317393.527 9 -21287626.379 9
  21290537.651    21290541.400    35008843.283 9 -43203470.727 9
  22723266.090    22723270.027    73758081.005 8-101126161.242 9
  25761248.189    25761253.111   -12356243.693 9   8951417.084 9
 86  6 18  3 18 59.0800000  0  4G12G13G 9G 7
  20790804.071    20790807.489     6318323.609 9 -21286901.642 9
  21292112.164    21292114.667    35017114.315 9 -43197025.757 9
  22727632.665    22727636.627    73781025.655 9-101108282.299 9
  25758025.102    25758029.766   -12373184.939 9   8938216.118 9
 86  6 18  3 19  5.0800000  0  4G12G13G 9G 7
  20790986.274    20790989.354     6319280.033 8 -21286156.382 9
  21293686.905    21293689.525    35025390.352 9 -43190576.890 9
  22731999.765    22732004.489    73803980.377 8-101090395.500 8
  25754802.672    25754808.309   -12390114.137 9   8925024.567 9
 86  6 18  3 19 11.0800000  0  4G12G13G 9G 7
  20791172.627    20791177.139     6320262.761 9 -21285390.622 8
  21295262.819    21295266.488    35033671.444 9 -43184124.095 9
  22736369.717    22736374.729    73826945.195 9-101072500.839 9
  25751583.604    25751588.969   -12407032.892 9   8911841.140 9
 86  6 18  3 19 17.0800000  0  4G12G13G 9G 7
  20791365.239    20791368.759     6321271.753 9 -21284604.388 7
  21296840.273    21296841.903    35041957.500 9 -43177667.417 9
  22740741.273    22740746.464    73849919.875 8-101054598.499 8
  25748366.426    25748370.948   -12423940.697 9   8898666.244 9
 86  6 18  3 19 23.0800000  0  4G12G13G 9G 7
  20791562.139    20791565.495     6322307.026 9 -21283797.689 8
  21298417.723    21298419.971    35050248.585 9 -43171206.825 9
  22745116.308    22745120.342    73872904.548 9-101036688.359 9
                  25745155.456                     8885503.527 8
 86  6 18  3 19 29.0800000  0  4G12G13G 9G 7
  20791763.248    20791767.896     6323368.634 9 -21282970.465 8
  21299995.806    21299999.921    35058544.674 9 -43164742.332 9
  22749491.194    22749495.406    73895899.185 8-101018770.461 9
  25741843.324    25741945.907   -12477080.629 9   8872358.619 9
 86  6 18  3 19 35.0800000  0  4G12G13G 9G 7
  20791969.828    20791975.068     6324456.611 8 -21282122.691 8
  21301575.977    21301578.618    35066845.842 9 -43158273.888 9
  22753869.279    22753872.950    73918903.929 8-101000844.694 8
  25738738.101    25738739.531   -12493922.028 9   8859235.476 9
 86  6 18  3 19 41.0800000  0  4G12G13G 9G 7
  20792182.989    20792187.678     6325570.950 8 -21281254.375 8
  21303157.165    21303159.732    35075152.017 9 -43151801.543 9
  22758249.833    22758252.822    73941918.585 8-100982911.188 8
  25735537.907    25735540.283   -12510737.250 9   8846133.094 9
 86  6 18  3 19 47.0800000  0  4G12G13G 9G 7
  20792400.423    20792403.518     6326711.618 9 -21280365.536 9
  21304738.145    21304741.221    35083463.275 9 -43145325.226 9
  22762630.748    22762634.618    73964943.231 9-100964969.913 9
  25732342.122    25732344.696   -12527529.502 9   8833048.217 8
 86  6 18  3 19 53.0800000  0  4G12G13G 9G 7
  20792621.615    20792625.346     6327878.687 8 -21279456.139 8
  21306320.212    21306323.703    35091779.615 9 -43138844.957 9
  22767013.698    22767017.854    73987977.695 8-100947020.976 9
  25729149.783    25729152.373   -12544304.032 9   8819977.162 9
 86  6 18  3 19 59.0800000  0  4G12G13G 9G 7
  20792848.780    20792853.043     6329072.094 9 -21278526.205 9
  21307904.554    21307907.631    35100100.949 9 -43132360.801 8
  22771398.660    22771402.254    74011022.053 7-100929064.336 8
  25725958.518    25725963.199   -12561064.118 9   8806917.367 9
 86  6 18  3 20  5.0800000  0  4G12G13G 9G 7
  20793081.310    20793085.379     6330291.832 9 -21277575.762 8
  21309489.383    21309491.508    35108427.219 9 -43125872.795 9
  22775786.845    22775790.423    74034076.172 8-100911100.083 9
  25722772.364    25722775.169   -12577812.139 9   8793866.981 9
 86  6 18  3 20 11.0800000  0  4G12G13G 9G 7
  20793318.376    20793321.955     6331537.898 9 -21276604.809 8
  21311074.177    21311077.317    35116758.387 9 -43119380.966 9
  22780174.439    22780178.855    74057140.033 8-100893128.271 9
  25719588.225    25719590.458   -12594549.543 9   8780824.848 9
 86  6 18  3 20 17.0800000  0  4G12G13G 9G 7
  20793560.821    20793564.372     6332810.254 9 -21275613.356 8
  21312661.052    21312664.577    35125094.483 9 -43112885.302 9
  22784565.290    22784570.434    74080213.693 8-100875148.787 9
  25716406.075    25716408.751   -12611275.276 9   8767791.823 9
 86  6 18  3 20 23.0800000  0  4G12G13G 9G 7
  20793807.444    20793811.889     6334108.921 9 -21274601.408 8
  21314248.035    21314251.418    35133435.468 9 -43106385.833 9
  22788958.273    22788962.969    74103297.109 9-100857161.716 8
                  25713228.875                     8754771.676 8
 86  6 18  3 20 29.0800000  0  4G12G13G 9G 7
  20794059.780    20794064.757     6335433.878 9 -21273568.978 9
  21315835.425    21315840.145    35141781.332 9 -43099882.565 9
  22793353.960    22793356.969    74126390.157 8-100839167.131 9
  25710018.624    25710055.255   -12664237.447 9   8741770.005 8
 86  6 18  3 20 35.0800000  0  4G12G13G 9G 7
  20794316.893    20794321.476     6336785.096 9 -21272516.077 9
  21317425.097    21317428.925    35150132.074 9 -43093375.478 9
  22797749.465    22797753.245    74149492.829 8-100821165.046 9
  25706881.750    25706885.828   -12680894.667 9   8728790.354 9
 86  6 18  3 20 41.0800000  0  4G12G13G 9G 7
  20794579.443    20794583.910     6338162.540 9 -21271442.749 8
  21319014.448    21319017.732    35158487.718 9 -43086864.580 9
  22802148.533    22802151.790    74172605.141 8-100803155.463 8
  25703716.884    25703721.894   -12697524.869 9   8715831.391 9
 86  6 18  3 20 47.0800000  0  4G12G13G 9G 7
  20794847.373    20794850.956     6339566.384 8 -21270348.845 9
  21320604.837    21320608.920    35166848.229 9 -43080349.904 9
  22806547.993    22806550.651    74195727.126 8-100785138.325 9
  25700555.528    25700560.822   -12714133.234 9   8702889.823 9
 86  6 18  3 20 53.0800000  0  4G12G13G 9G 7
  20795118.475    20795123.162     6340996.490 9 -21269234.469 9
  21322196.905    21322200.983    35175213.440 9 -43073831.561 8
  22810950.386    22810953.707    74218858.697 9-100767113.723 8
  25697398.146    25697403.586   -12730723.914 9   8689962.037 9
 86  6 18  3 20 59.0800000  0  4G12G13G 9G 7
  20795395.548    20795399.198     6342453.036 9 -21268099.502 9
  21323788.681    21323793.711    35183583.620 9 -43067309.337 9
  22815354.064    22815356.747    74241999.801 9-100749081.694 9
  25694244.416    25694249.266   -12747299.969 9   8677045.647 9
 86  6 18  3 21  5.0800000  0  4G12G13G 9G 7
  20795677.895    20795682.132     6343935.908 9 -21266944.012 8
  21325382.475    21325387.619    35191958.628 9 -43060783.359 9
  22819758.508    22819762.443    74265150.584 8-100731042.118 8
  25691092.888    25691097.868   -12763863.727 9   8664138.834 9
 86  6 18  3 21 11.0800000  0  4G12G13G 9G 7
  20795965.317    20795968.732     6345445.149 9 -21265767.980 8
  21326977.148    21326981.835    35200338.396 9 -43054253.665 9
  22824165.457    22824170.790    74288310.916 9-100712995.106 8
  25687942.806    25687947.155   -12780416.715 9   8651240.418 9
 86  6 18  3 21 17.0800000  0  4G12G13G 9G 7
  20796258.016    20796261.183     6346980.698 8 -21264571.443 9
  21328573.512    21328577.201    35208722.999 9 -43047720.211 9
  22828575.165    22828579.128    74311480.660 8-100694940.766 8
  25684794.740    25684798.102   -12796957.655 9   8638351.383 9
 86  6 18  3 21 23.0800000  0  4G12G13G 9G 7
  20796554.882    20796559.125     6348542.546 9 -21263354.416 8
  21330169.601    21330174.731    35217112.386 9 -43041183.026 9
  22832986.839    22832989.221    74334659.740 9-100676879.154 9
                  25681652.313                     8625475.880 8
 86  6 18  3 21 29.0800000  0  4G12G13G 9G 7
  20796857.951    20796860.538     6350130.655 9 -21262116.940 9
  21331767.344    21331771.344    35225506.545 9 -43034642.106 9
  22837399.558    22837402.755    74357848.334 8-100658810.107 9
  25678512.985    25678511.831   -12849731.649 8   8612619.604 9
 86  6 18  3 21 35.0800000  0  4G12G13G 9G 7
  20797164.357    20797168.018     6351745.023 9 -21260858.980 9
  21333365.588    21333369.822    35233905.419 9 -43028097.539 9
  22841813.636    22841816.454    74381046.296 9-100640733.777 8
  25675375.572    25675377.746   -12866202.235 8   8599785.377 8
 86  6 18  3 21 41.0800000  0  4G12G13G 9G 7
  20797476.977    20797479.974     6353385.671 9 -21259580.562 8
  21334964.770    21334968.740    35242308.999 9 -43021549.286 9
  22846228.770    22846233.138    74404253.667 9-100622650.118 9
  25672246.724    25672247.928   -12882646.761 9   8586971.840 8
 86  6 18  3 21 47.0800000  0  4G12G13G 9G 7
  20797793.504    20797797.400     6355052.498 9 -21258281.724 9
  21336564.867    21336568.756    35250717.221 9 -43014997.418 8
  22850647.346    22850651.314    74427470.195 8-100604559.309 8
  25669122.758    25669122.970   -12899068.808 9   8574175.444 8
 86  6 18  3 21 53.0800000  0  4G12G13G 9G 7
  20798115.487    20798119.259     6356745.653 9 -21256962.391 9
  21338166.474    21338169.813    35259130.276 9 -43008441.794 9
  22855066.609    22855070.695    74450696.051 9-100586461.248 9
  25666002.466    25666002.479   -12915473.166 9   8561392.847 9
 86  6 18  3 21 59.0800000  0  4G12G13G 9G 7
  20798443.099    20798446.890     6358465.064 9 -21255622.588 9
  21339768.073    21339771.370    35267547.965 9 -43001882.548 9
  22859487.841    22859492.690    74473931.240 8-100568355.907 9
  25662883.619    25662884.737   -12931863.000 9   8548621.533 8
 86  6 18  3 22  5.0800000  0  4G12G13G 9G 7
  20798774.969    20798778.822     6360210.827 9 -21254262.249 9
  21341371.504    21341374.164    35275970.404 9 -42995319.609 9
  22863911.630    22863915.198    74497175.729 8-100550243.329 8
  25659767.251    25659768.997   -12948240.630 9   8535859.743 9
 86  6 18  3 22 11.0800000  0  4G12G13G 9G 7
  20799112.832    20799115.889     6361982.896 9 -21252881.429 9
  21342975.463    21342978.175    35284397.505 9 -42988753.037 9
  22868335.264    22868340.344    74520429.448 9-100532123.540 8
  25656652.353    25656655.659   -12964607.210 9   8523106.556 9
 86  6 18  3 22 17.0800000  0  4G12G13G 9G 7
  20799454.963    20799457.978     6363781.252 9 -21251480.103 9
  21344579.853    21344581.985    35292829.291 9 -42982182.800 9
  22872763.787    22872767.363    74543692.308 8-100513996.633 8
  25653540.390    25653542.953   -12980961.285 9   8510363.132 9
 86  6 18  3 22 23.0800000  0  4G12G13G 9G 7
  20799801.651    20799805.585     6365605.908 9 -21250058.296 9
  21346185.652    21346188.678    35301265.825 9 -42975608.877 9
  22877191.932    22877196.188    74566964.373 8-100495862.560 8
                  25650434.409                     8497634.006 9
 86  6 18  3 22 29.0800000  0  4G12G13G 9G 7
  20800154.615    20800157.717     6367456.827 9 -21248616.024 9
  21347792.346    21347794.312    35309707.032 9 -42969031.312 8
  22881621.882    22881625.160    74590245.610 8-100477721.339 9
  25647324.552    25647330.532   -13033543.847 9   8484924.702 9
 86  6 18  3 22 35.0800000  0  4G12G13G 9G 7
  20800511.936    20800514.428     6369334.075 9 -21247153.233 9
  21349398.467    21349401.235    35318152.934 9 -42962450.092 9
  22886054.198    22886057.852    74613536.002 8-100459572.978 9
  25644226.223    25644232.075   -13049825.299 9   8472237.859 8
 86  6 18  3 22 41.0800000  0  4G12G13G 9G 7
  20800874.177    20800877.220     6371237.652 9 -21245669.922 9
  21351006.670    21351009.600    35326603.474 9 -42955865.253 9
  22890488.361    22890491.809    74636835.517 9-100441417.523 8
  25641134.380    25641138.144   -13066079.916 8   8459571.557 8
 86  6 18  3 22 47.0800000  0  4G12G13G 9G 7
  20801241.653    20801244.439     6373167.506 9 -21244166.145 9
  21352614.715    21352618.735    35335058.733 9 -42949276.731 9
  22894924.329    22894926.508    74660144.148 9-100423254.947 9
  25638045.670    25638048.444   -13082313.025 9   8446922.394 9
 86  6 18  3 22 53.0800000  0  4G12G13G 9G 7
  20801613.806    20801617.177     6375123.679 9 -21242641.847 8
  21354224.328    21354227.998    35343518.626 9 -42942684.609 9
  22899361.038    22899364.075    74683461.828 9-100405085.332 8
  25634960.608    25634962.811   -13098528.510 9   8434286.957 9
 86  6 18  3 22 59.0800000  0  4G12G13G 9G 7
  20801991.082    20801993.362     6377106.185 9 -21241097.047 8
  21355835.722    21355838.354    35351983.170 9 -42936088.854 9
  22903800.260    22903803.479    74706788.598 9-100386908.632 9
  25631877.850    25631879.124   -13114729.380 9   8421662.886 9
 86  6 18  3 23  5.0800000  0  4G12G13G 9G 7
  20802373.749    20802376.479     6379115.089 9 -21239531.659 9
  21357446.866    21357450.476    35360452.368 9 -42929489.480 9
  22908239.244    22908244.340    74730124.456 9-100368724.847 8
  25628797.525    25628797.782   -13130917.816 9   8409048.516 9
 86  6 18  3 23 11.0800000  0  4G12G13G 9G 7
  20802760.550    20802763.330     6381150.321 9 -21237945.765 9
  21359058.739    21359063.431    35368926.234 9 -42922886.467 9
  22912682.088    22912686.343    74753469.399 8-100350533.981 9
  25625719.088    25625720.105   -13147094.876 9   8396443.015 9
 86  6 18  3 23 17.0800000  0  4G12G13G 9G 7
  20803153.122    20803155.966     6383211.846 9 -21236339.378 9
  21360671.878    21360676.443    35377404.706 9 -42916279.864 8
  22917127.549    22917131.169    74776823.331 9-100332336.122 9
  25622642.240    25622645.146   -13163258.735 9   8383847.791 8
 86  6 18  3 23 23.0800000  0  4G12G13G 9G 7
  20803549.817    20803553.794     6385299.798 9 -21234712.403 9
  21362287.236    21362291.384    35385887.872 8 -42909669.599 9
  22921572.376    22921576.405    74800186.227 8-100314131.268 8
                  25619573.706                     8371267.540 9
 86  6 18  3 23 29.0800000  0  4G12G13G 9G 7
  20803952.496    20803955.939     6387413.997 9 -21233064.975 9
  21363902.501    21363906.549    35394375.667 7 -42903055.736 9
  22926019.131    22926023.477    74823557.992 8-100295919.509 8
  25616502.268    25616506.002   -13215654.396 8   8358707.693 9
 86  6 18  3 23 35.0800000  0  4G12G13G 9G 7
  20804360.485    20804363.746     6389554.485 9 -21231397.067 8
  21365518.460    21365522.379    35402867.929 9 -42896438.384 9
  22930468.819    22930472.764    74846938.654 8-100277700.819 9
  25613442.033    25613444.952   -13231743.811 9   8346170.489 9
 86  6 18  3 23 41.0800000  0  4G12G13G 9G 7
  20804772.823    20804775.782     6391721.176 9 -21229708.721 9
  21367135.576    21367139.354    35411364.557 9 -42889817.634 9
  22934920.158    22934923.540    74870328.046 8-100259475.303 9
  25610383.472    25610387.908   -13247807.550 9   8333653.688 9
 86  6 18  3 23 47.0800000  0  4G12G13G 9G 7
  20805189.705    20805193.921     6393914.236 8 -21227999.848 8
  21368753.561    21368756.515    35419865.831 9 -42883193.272 9
  22939372.965    22939375.975    74893726.303 9-100241242.896 9
  25607330.520    25607334.810   -13263848.967 9   8321153.903 9
 86  6 18  3 23 53.0800000  0  4G12G13G 9G 7
  20805613.067    20805615.380     6396133.509 9 -21226270.545 9
  21370371.357    21370375.184    35428371.488 9 -42876565.473 9
  22943827.452    22943830.376    74917133.374 9-100223003.628 8
  25604281.116    25604285.810   -13279872.967 8   8308667.685 9
 86  6 18  3 23 59.0800000  0  4G12G13G 9G 7
  20806039.171    20806042.386     6398378.988 9 -21224520.810 9
  21371992.232    21371994.692    35436881.583 9 -42869934.233 8
  22948282.870    22948286.522    74940549.100 8-100204757.622 9
  25601235.634    25601239.296   -13295882.355 9   8296192.839 9
 86  6 18  3 24  5.0800000  0  4G12G13G 9G 7
  20806471.072    20806474.523     6400650.678 9 -21222750.669 9
  21373612.319    21373615.337    35445396.156 9 -42863299.505 9
  22952740.710    22952744.058    74963973.401 8-100186504.906 9
  25598191.811    25598194.703   -13311879.416 9   8283727.613 9
 86  6 18  3 24 11.0800000  0  4G12G13G 9G 7
  20806908.413    20806912.062     6402948.531 8 -21220960.133 8
  21375233.185    21375235.874    35453915.149 9 -42856661.330 9
  22957199.581    22957203.585    74987406.397 9-100168245.428 8
  25595149.764    25595152.968   -13327864.996 9   8271271.312 9
 86  6 18  3 24 17.0800000  0  4G12G13G 9G 7
  20807350.682    20807354.171     6405272.602 9 -21219149.169 9
  21376855.347    21376857.699    35462438.596 9 -42850019.684 8
  22961660.787    22961664.180    75010848.134 9-100149979.153 8
  25592110.763    25592112.523   -13343837.046 9   8258825.558 8
 86  6 18  3 24 23.0800000  0  4G12G13G 9G 7
  20807797.740    20807801.153     6407622.980 9 -21217317.703 9
  21378477.072    21378480.541    35470966.524 9 -42843374.548 9
  22966122.959    22966126.002    75034298.384 8-100131706.230 9
                  25589077.944                     8246395.451 9
 86  6 18  3 24 29.0800000  0  4G12G13G 9G 7
  20808249.843    20808254.084     6409999.615 9 -21215465.771 9
  21380101.143    21380103.374    35479498.801 9 -42836726.016 9
  22970587.083    22970590.355    75057757.279 9-100113426.573 9
  25586043.221    25586047.171   -13396041.064 8   8233986.305 8
 86  6 18  3 24 35.0800000  0  4G12G13G 9G 7
  20808706.743    20808711.246     6412402.449 9 -21213593.441 9
  21381726.275    21381728.563    35488035.524 9 -42830074.017 8
  22975052.339    22975055.955    75081224.750 9-100095140.230 8
  25583018.631    25583023.438   -13411936.877 9   8221599.950 9
 86  6 18  3 24 41.0800000  0  4G12G13G 9G 7
  20809169.677    20809173.596     6414831.549 9 -21211700.630 9
  21383351.320    21383353.551    35496576.697 9 -42823418.563 9
  22979518.881    22979523.295    75104700.807 8-100076847.191 8
  25579998.390    25580003.886   -13427806.477 9   8209234.037 9
 86  6 18  3 24 47.0800000  0  4G12G13G 9G 7
  20809637.525    20809639.945     6417286.930 9 -21209787.343 8
  21384977.130    21384979.482    35505122.213 9 -42816759.714 8
  22983988.025    22983992.535    75128185.428 9-100058547.497 9
  25576982.328    25576989.540   -13443654.535 9   8196884.921 9
 86  6 18  3 24 53.0800000  0  4G12G13G 9G 7
  20810109.575    20810112.467     6419768.583 9 -21207853.588 8
  21386604.314    21386607.097    35513672.158 9 -42810097.414 9
  22988459.698    22988462.791    75151678.517 9-100040241.186 9
  25573970.088    25573977.483   -13459485.163 8   8184549.387 9
 86  6 18  3 24 59.0800000  0  4G12G13G 9G 7
  20810586.680    20810589.421     6422276.467 9 -21205899.389 8
  21388231.921    21388234.574    35522226.540 9 -42803431.668 8
  22992931.726    22992935.087    75175180.144 8-100021928.239 9
  25570960.420    25570967.289   -13475300.985 9   8172225.394 9
 86  6 18  3 25  5.0800000  0  4G12G13G 9G 7
  20811068.624    20811071.141     6424810.622 9 -21203924.722 8
  21389860.285    21389863.496    35530785.235 9 -42796762.551 9
  22997405.233    22997409.654    75198690.243 9-100003608.682 8
  25567954.875    25567959.497   -13491104.229 9   8159911.196 9
 86  6 18  3 25 11.0800000  0  4G12G13G 9G 7
  20811556.203    20811559.489     6427371.134 9 -21201929.531 9
  21391489.494    21391492.469    35539348.367 9 -42790089.980 9
  23001880.048    23001885.246    75222208.812 8 -99985282.531 9
  25564949.458    25564954.595   -13506895.574 9   8147606.271 9
 86  6 18  3 25 17.0800000  0  4G12G13G 9G 7
  20812048.647    20812050.597     6429957.930 9 -21199913.830 9
  21393119.840    21393123.389    35547915.977 9 -42783413.926 9
  23006357.160    23006360.687    75245735.833 9 -99966949.790 9
  25561947.776    25561951.239   -13522672.514 9   8135312.562 9
 86  6 18  3 25 23.0800000  0  4G12G13G 9G 7
  20812545.452    20812549.140     6432570.994 9 -21197877.686 9
  21394751.562    21394755.049    35556487.952 9 -42776734.455 9
  23010836.488    23010840.132    75269271.321 9 -99948610.442 8
                  25558952.405                     8123035.220 9
 86  6 18  3 25 29.0800000  0  4G12G13G 9G 7
  20813048.400    20813050.969     6435210.252 9 -21195821.121 8
  21396383.295    21396386.249    35565064.268 9 -42770051.616 8
  23015317.152    23015320.684    75292815.220 8 -99930264.553 9
  25555957.303    25555959.049   -13574679.822 9   8110779.340 9
 86  6 18  3 25 35.0800000  0  4G12G13G 9G 7
  20813554.984    20813558.417     6437875.721 9 -21193744.131 9
  21398016.718    21398019.758    35573644.892 9 -42763365.410 9
  23019798.023    23019802.736    75316367.366 8 -99911912.233 9
  25552967.770    25552970.834   -13590378.860 9   8098546.313 8
 86  6 18  3 25 41.0800000  0  4G12G13G 9G 7
  20814067.922    20814070.915     6440567.498 9 -21191646.638 9
  21399650.528    21399653.023    35582229.779 9 -42756675.883 9
  23024280.556    23024286.693    75339927.785 9 -99893553.468 9
  25549984.520    25549987.481   -13606051.757 9   8086333.675 8
 86  6 18  3 25 47.0800000  0  4G12G13G 9G 7
  20814584.421    20814588.601     6443285.513 9 -21189528.697 8
  21401285.052    21401287.412    35590818.993 9 -42749982.980 9
  23028766.756    23028771.775    75363496.568 8 -99875188.192 9
  25547006.391    25547009.683   -13621703.154 9   8074137.778 9
 86  6 18  3 25 53.0800000  0  4G12G13G 9G 7
  20815106.821    20815109.770     6446029.726 9 -21187390.356 9
  21402920.306    21402922.953    35599412.551 9 -42743286.716 9
  23033253.769    23033259.240    75387073.663 9 -99856816.430 9
  25544031.997    25544035.717   -13637337.117 9   8061955.457 9
 86  6 18  3 25 59.0800000  0  4G12G13G 9G 7
  20815634.029    20815637.881     6448800.186 9 -21185231.561 9
  21404556.706    21404559.410    35608010.412 8 -42736587.069 8
  23037741.690    23037746.469    75410658.940 8 -99838438.292 8
  25541060.708    25541063.584   -13652956.468 9   8049784.548 8
 86  6 18  3 26  5.0800000  0  4G12G13G 9G 7
  20816166.108    20816169.786     6451596.878 9 -21183052.313 8
  21406192.440    21406196.024    35616612.488 9 -42729884.158 8
  23042231.409    23042235.596    75434252.389 9 -99820053.803 8
  25538090.075    25538094.427   -13668563.262 9   8037623.408 9
 86  6 18  3 26 11.0800000  0  4G12G13G 9G 7
  20816703.019    20816706.925     6454419.765 9 -21180852.659 8
  21407830.120    21407833.375    35625218.763 9 -42723177.973 9
  23046721.794    23046726.432    75457853.948 9 -99801662.967 9
  25535123.711    25535127.044   -13684157.951 9   8025471.717 9
 86  6 18  3 26 17.0800000  0  4G12G13G 9G 7
  20817244.792    20817249.133     6457268.854 9 -21178632.597 9
  21409469.016    21409471.534    35633829.218 9 -42716468.529 9
  23051215.628    23051219.140    75481463.684 9 -99783265.775 8
  25532159.504    25532162.523   -13699737.443 9   8013331.860 9
 86  6 18  3 26 23.0800000  0  4G12G13G 9G 7
  20817791.546    20817796.941     6460144.128 9 -21176392.126 9
  21411107.876    21411111.268    35642443.991 9 -42709755.715 9
  23055710.771    23055713.542    75505081.495 9 -99764862.285 9
                  25529202.423                     8001209.045 9
 86  6 18  3 26 29.0800000  0  4G12G13G 9G 7
  20818343.928    20818348.884     6463045.639 9 -21174131.199 8
  21412747.652    21412751.023    35651063.072 9 -42703039.551 9
  23060205.275    23060209.315    75528707.387 8 -99746452.505 9
  25526244.326    25526247.477   -13751545.521 9   7989108.180 9
 86  6 18  3 26 35.0800000  0  4G12G13G 9G 7
  20818900.534    20818905.283     6465973.418 9 -21171849.812 8
  21414388.203    21414392.372    35659686.413 9 -42696320.058 8
  23064702.736    23064707.156    75552341.452 8 -99728036.349 9
  25523293.558    25523298.210   -13767045.408 9   7977030.364 9
 86  6 18  3 26 41.0800000  0  4G12G13G 9G 7
  20819462.839    20819467.657     6468927.506 8 -21169547.928 9
  21416030.740    21416034.282    35668314.061 9 -42689597.217 9
  23069201.180    23069206.477    75575983.683 9 -99709613.830 9
  25520348.913    25520352.833   -13782519.091 9   7964972.958 9
 86  6 18  3 26 47.0800000  0  4G12G13G 9G 7
  20820029.910    20820034.625     6471907.837 9 -21167225.588 9
  21417673.105    21417676.016    35676945.909 9 -42682871.103 9
  23073701.252    23073706.830    75599633.851 8 -99691185.133 9
  25517408.560    25517411.292   -13797971.494 9   7952932.143 9
 86  6 18  3 26 53.0800000  0  4G12G13G 9G 7
  20820601.721    20820606.804     6474914.369 9 -21164882.823 9
  21419316.659    21419321.131    35685581.897 9 -42676141.765 9
  23078203.446    23078208.829    75623292.044 8 -99672750.184 9
  25514470.639    25514474.444   -13813406.599 9   7940904.791 9
 86  6 18  3 26 59.0800000  0  4G12G13G 9G 7
  20821178.815    20821183.538     6477947.108 9 -21162519.658 8
  21420961.164    21420964.706    35694221.960 9 -42669409.244 9
  23082707.006    23082712.183    75646958.188 7 -99654309.031 9
  25511535.997    25511539.059   -13828826.861 9   7928889.004 9
 86  6 18  3 27  5.0800000  0  4G12G13G 9G 7
  20821761.967    20821765.710     6481005.975 9 -21160136.119 9
  21422607.087    21422609.468    35702866.187 9 -42662673.483 9
  23087212.920    23087218.250    75670632.256 9 -99635861.712 9
  25508604.943    25508608.450   -13844234.425 9   7916883.115 8
 86  6 18  3 27 11.0800000  0  4G12G13G 9G 7
  20822348.327    20822352.746     6484091.029 9 -21157732.190 9
  21424251.908    21424254.467    35711514.587 9 -42655934.461 9
  23091717.819    23091722.955    75694314.148 8 -99617408.290 9
  25505676.226    25505676.983   -13859629.484 9   7904886.973 9
 86  6 18  3 27 17.0800000  0  4G12G13G 9G 7
  20822940.251    20822944.680     6487202.261 9 -21155307.850 9
  21425898.251    21425901.650    35720167.058 9 -42649192.276 9
  23096227.429    23096230.729    75718003.839 8 -99598948.791 9
  25502748.951    25502751.870   -13875008.942 9   7892902.969 9
 86  6 18  3 27 23.0800000  0  4G12G13G 9G 7
  20823537.403    20823541.100     6490339.662 9 -21152863.119 8
  21427545.297    21427549.153    35728823.714 9 -42642446.840 8
  23100736.503    23100741.056    75741701.498 8 -99580483.095 9
                  25499830.020                     7880936.768 8
 86  6 18  3 27 29.0800000  0  4G12G13G 9G 7
  20824140.730    20824142.727     6493503.269 9 -21150397.973 9
  21429193.759    21429197.879    35737484.576 9 -42635698.114 9
  23105247.429    23105251.800    75765407.003 8 -99562011.258 9
  25496909.986    25496914.835   -13926614.297 9   7868993.095 9
 86  6 18  3 27 35.0800000  0  4G12G13G 9G 7
  20824747.414    20824750.148     6496693.090 9 -21147912.399 9
  21430842.715    21430846.226    35746149.629 9 -42628946.122 9
  23109759.320    23109763.634    75789120.387 9 -99543533.302 9
  25493998.280    25494002.401   -13941912.389 9   7857072.531 9
 86  6 18  3 27 41.0800000  0  4G12G13G 9G 7
  20825358.625    20825362.504     6499909.111 9 -21145406.399 9
  21432491.999    21432496.365    35754818.793 9 -42622190.927 9
  23114273.122    23114278.267    75812841.591 8 -99525049.249 9
  25491092.113    25491096.634   -13957184.536 9   7845172.163 9
 86  6 18  3 27 47.0800000  0  4G12G13G 9G 7
  20825976.391    20825979.107     6503151.276 9 -21142880.029 8
  21434142.937    21434146.964    35763492.108 9 -42615432.505 9
  23118788.852    23118792.706    75836570.454 8 -99506559.226 8
  25488188.892    25488193.986   -13972435.576 9   7833288.243 9
 86  6 18  3 27 53.0800000  0  4G12G13G 9G 7
  20826598.316    20826601.552     6506419.599 9 -21140333.294 8
  21435794.697    21435796.986    35772169.467 9 -42608670.931 9
  23123305.762    23123310.700    75860306.968 8 -99488063.240 9
  25485289.906    25485295.259   -13987669.452 9   7821417.706 9
 86  6 18  3 27 59.0800000  0  4G12G13G 9G 7
  20827224.332    20827228.087     6509714.008 9 -21137766.222 9
  21437446.271    21437449.784    35780850.824 9 -42601906.237 9
  23127825.279    23127829.422    75884051.135 8 -99469561.287 9
  25482393.986    25482397.820   -14002888.530 9   7809558.703 9
 86  6 18  3 28  5.0800000  0  4G12G13G 9G 7
  20827856.349    20827859.641     6513034.475 9 -21135178.844 8
  21439098.969    21439101.751    35789536.164 9 -42595138.440 8
  23132343.835    23132348.710    75907802.919 9 -99451053.415 8
  25479500.037    25479502.296   -14018094.682 9   7797709.760 9
 86  6 18  3 28 11.0800000  0  4G12G13G 9G 7
  20828493.402    20828497.107     6516381.079 9 -21132571.105 8
  21440753.032    21440755.580    35798225.530 9 -42588367.513 9
  23136866.319    23136870.313    75931562.284 8 -99432539.625 9
  25476609.593    25476610.726   -14033288.023 9   7785870.799 8
 86  6 18  3 28 17.0800000  0  4G12G13G 9G 7
  20829135.567    20829137.758     6519753.787 8 -21129943.010 9
  21442407.003    21442409.351    35806918.924 9 -42581593.430 9
  23141387.966    23141392.136    75955329.254 8 -99414019.900 8
  25473721.026    25473722.844   -14048464.926 9   7774044.625 9
 86  6 18  3 28 23.0800000  0  4G12G13G 9G 7
  20829781.104    20829785.653     6523152.623 9 -21127294.572 8
  21444062.227    21444064.994    35815616.267 9 -42574816.295 9
  23145911.749    23145916.985    75979103.712 9 -99395494.350 8
                  25470839.858                     7762236.698 9
 86  6 18  3 28 29.0800000  0  4G12G13G 9G 7
  20830433.783    20830437.180     6526577.585 9 -21124625.779 9
  21445717.149    21445720.504    35824317.563 9 -42568036.057 8
  23150438.157    23150442.006    76002885.744 8 -99376962.901 8
  25467960.418    25467963.238   -14099868.549 9   7750451.670 8
 86  6 18  3 28 35.0800000  0  4G12G13G 9G 7
  20831090.736    20831094.302     6530028.708 9 -21121936.588 8
  21447374.046    21447377.180    35833022.801 9 -42561252.756 9
  23154965.556    23154968.630    76026675.197 9 -99358425.670 8
  25465087.319    25465091.154   -14114963.109 9   7738689.682 9
 86  6 18  3 28 41.0800000  0  4G12G13G 9G 7
  20831752.783    20831755.337     6533505.948 9 -21119227.053 9
  21449031.257    21449034.634    35841732.010 9 -42554466.355 9
  23159494.429    23159497.773    76050472.222 9 -99339882.537 8
  25462220.459    25462223.735   -14130031.918 9   7726947.775 9
 86  6 18  3 28 47.0800000  0  4G12G13G 9G 7
  20832419.620    20832422.113     6537009.292 9 -21116497.178 8
  21450690.009    21450692.540    35850445.249 9 -42547676.825 8
  23164024.711    23164027.036    76074276.644 8 -99321333.632 8
  25459357.420    25459361.094   -14145079.547 9   7715222.350 9
 86  6 18  3 28 53.0800000  0  4G12G13G 9G 7
  20833091.263    20833093.901     6540538.709 9 -21113746.980 8
  21452348.374    21452351.419    35859162.460 9 -42540884.193 9
  23168555.604    23168558.608    76098088.620 8 -99302778.840 9
  25456496.539    25456501.062   -14160109.948 9   7703510.359 9
 86  6 18  3 28 59.0800000  0  4G12G13G 9G 7
  20833767.265    20833770.705     6544094.194 9 -21110976.481 8
  21454007.566    21454012.188    35867883.576 9 -42534088.517 9
  23173087.347    23173091.362    76121908.058 9 -99284218.250 8
  25453638.751    25453643.400   -14175125.557 9   7691809.891 9
 86  6 18  3 29  5.0800000  0  4G12G13G 9G 7
  20834449.330    20834451.384     6547675.681 8 -21108185.709 8
  21455667.970    21455672.191    35876608.661 9 -42527289.751 9
  23177622.652    23177624.937    76145734.646 9 -99265652.067 8
  25450784.153    25450788.603   -14190128.123 9   7680119.604 9
 86  6 18  3 29 11.0800000  0  4G12G13G 9G 7
  20835135.958    20835138.966     6551283.346 9 -21105374.545 9
  21457329.390    21457333.194    35885337.702 9 -42520487.899 9
  23182158.323    23182161.037    76169568.725 9 -99247080.053 8
  25447931.172    25447935.722   -14205117.508 9   7668439.575 9
 86  6 18  3 29 17.0800000  0  4G12G13G 9G 7
  20835826.879    20835830.443     6554917.105 9 -21102543.037 8
  21458991.172    21458994.734    35894070.660 9 -42513682.996 9
  23186695.310    23186697.684    76193410.130 9 -99228502.345 8
                  25445085.545                     7656773.018 9
 86  6 18  3 29 23.0800000  0  4G12G13G 9G 7
  20836523.128    20836526.156     6558577.010 9 -21099691.158 8
  21460653.242    21460657.198    35902807.524 9 -42506875.051 9
  23191233.076    23191235.522    76217258.855 9 -99209918.930 8
  25442263.117    25442241.064   -14256368.487 9   7645125.381 9
 86  6 18  3 29 29.0800000  0  4G12G13G 9G 7
  20837223.958    20837229.196     6562263.023 9 -21096818.940 8
  21462317.243    21462320.333    35911548.347 8 -42500064.024 9
  23195772.551    23195776.112    76241114.835 8 -99191329.844 8
  25439400.191    25439401.606   -14271286.699 9   7633501.129 9
 86  6 18  3 29 35.0800000  0  4G12G13G 9G 7
  20837930.488    20837934.292     6565975.126 9 -21093926.406 9
  21463981.375    21463983.986    35920293.003 9 -42493250.001 8
  23200314.463    23200317.319    76264978.038 9 -99172735.138 9
  25436567.343    25436567.901   -14286175.032 9   7621899.824 8
 86  6 18  3 29 41.0800000  0  4G12G13G 9G 7
  20838641.798    20838645.686     6569713.324 9 -21091013.531 8
  21465646.242    21465649.147    35929041.588 9 -42486432.925 9
  23204856.323    23204859.078    76288848.472 9 -99154134.801 8
  25433738.545    25433740.433   -14301037.299 9   7610318.439 9
 86  6 18  3 29 47.0800000  0  4G12G13G 9G 7
  20839357.143    20839362.268     6573477.612 9 -21088080.319 8
  21467311.418    21467313.768    35937794.078 9 -42479612.805 8
  23209400.371    23209403.464    76312726.227 8 -99135528.761 9
  25430913.382    25430917.114   -14315879.052 9   7598753.444 9
 86  6 18  3 29 53.0800000  0  4G12G13G 9G 7
  20840079.236    20840083.553     6577267.962 9 -21085126.788 8
  21468977.650    21468980.527    35946550.438 9 -42472789.666 9
  23213945.211    23213947.809    76336611.143 9 -99116917.133 9
  25428093.068    25428096.202   -14330703.570 9   7587201.877 9
 86  6 18  3 29 59.0800000  0  4G12G13G 9G 7
  20840805.103    20840810.031     6581084.401 8 -21082152.949 7
  21470644.701    21470648.483    35955310.660 9 -42465963.526 8
  23218492.055    23218494.885    76360503.260 9 -99098299.903 8
  25425275.372    25425279.981   -14345513.177 9   7575661.925 9
 86  6 18  3 30  5.0800000  0  4G12G13G 9G 7
  20841536.983    20841541.629     6584926.985 9 -21079158.735 8
  21472312.537    21472315.519    35964074.835 9 -42459134.300 8
  23223040.244    23223043.397    76384402.477 9 -99079677.133 9
  25422458.996    25422464.447   -14360309.461 9   7564132.369 9
 86  6 18  3 30 11.0800000  0  4G12G13G 9G 7
  20842271.814    20842276.809     6588795.662 9 -21076144.180 8
  21473981.711    21473983.585    35972842.935 8 -42452302.011 9
  23227588.339    23227592.266    76408308.910 9 -99061048.764 8
  25419646.238    25419650.573   -14375092.103 9   7552613.450 9
 86  6 18  3 30 17.0800000  0  4G12G13G 9G 7
  20843014.569    20843017.532     6592690.404 9 -21073109.311 8
  21475650.307    21475652.609    35981614.925 9 -42445466.700 8
  23232138.948    23232142.888    76432222.409 9 -99042414.862 9
  25416836.371    25416841.795   -14389856.756 9   7541108.536 9
 86  6 18  3 30 23.0800000  0  4G12G13G 9G 7
  20843759.829    20843763.768     6596611.242 8 -21070054.126 9
  21477320.028    21477323.441    35990390.848 9 -42438628.313 9
  23236690.437    23236694.821    76456142.947 9 -99023775.483 9
                  25414037.295                     7529623.320 9
 86  6 18  3 30 29.0800000  0  4G12G13G 9G 7
  20844511.462    20844515.455     6600558.145 8 -21066978.624 9
  21478991.257    21478993.938    35999170.625 9 -42431786.938 8
  23241243.735    23241247.739    76480070.508 8 -99005130.633 9
  25411232.896    25411237.318   -14440885.763 9   7518161.676 9
 86  6 18  3 30 35.0800000  0  4G12G13G 9G 7
  20845267.078    20845271.028     6604531.111 8 -21063882.801 8
  21480662.055    21480665.383    36007954.282 9 -42424942.522 9
  23245798.424    23245802.711    76504005.057 9 -98986480.336 9
  25408439.819    25408442.938   -14455565.327 9   7506723.065 9
 86  6 18  3 30 41.0800000  0  4G12G13G 9G 7
  20846028.331    20846032.258     6608530.065 9 -21060766.743 9
  21482334.342    21482337.525    36016741.700 9 -42418095.181 9
  23250354.965    23250358.319    76527946.585 8 -98967824.619 8
  25405651.373    25405654.028   -14470220.089 9   7495304.162 9
 86  6 18  3 30 47.0800000  0  4G12G13G 9G 7
  20846794.243    20846798.198     6612555.042 8 -21057630.388 8
  21484007.631    21484010.456    36025532.773 9 -42411244.992 9
  23254912.556    23254915.475    76551895.009 9 -98949163.495 8
  25402865.000    25402869.380   -14484853.383 8   7483901.597 9
 86  6 18  3 30 53.0800000  0  4G12G13G 9G 7
  20847565.346    20847568.756     6616605.973 8 -21054473.818 9
  21485680.205    21485683.946    36034327.575 9 -42404391.912 9
  23259471.224    23259475.300    76575850.271 9 -98930497.060 9
  25400082.178    25400086.922   -14499469.338 9   7472512.558 8
 86  6 18  3 30 59.0800000  0  4G12G13G 9G 7
  20848341.627    20848344.960     6620682.861 8 -21051297.028 7
  21487354.952    21487358.994    36043126.124 9 -42397535.891 9
  23264030.620    23264034.870    76599812.499 9 -98911825.188 9
  25397303.864    25397308.285   -14514070.494 9   7461135.037 9
 86  6 18  3 31  5.0800000  0  4G12G13G 9G 7
  20849121.486    20849125.284     6624785.748 9 -21048099.965 9
  21489030.271    21489033.742    36051928.382 9 -42390676.995 9
  23268591.727    23268595.588    76623781.511 8 -98893148.044 9
  25394528.981    25394532.231   -14528658.371 9   7449767.877 9
 86  6 18  3 31 11.0800000  0  4G12G13G 9G 7
  20849906.720    20849910.972     6628914.643 9 -21044882.634 8
  21490705.854    21490709.875    36060734.307 9 -42383815.230 9
  23273154.680    23273158.414    76647757.306 9 -98874465.609 8
  25391757.444    25391759.266   -14543232.230 9   7438411.619 9
 86  6 18  3 31 17.0800000  0  4G12G13G 9G 7
  20850697.634    20850701.693     6633069.537 9 -21041645.066 8
  21492382.570    21492385.556    36069544.035 9 -42376950.507 9
  23277719.061    23277722.732    76671739.988 9 -98855777.808 9
                  25388989.997                     7427070.091 9
 86  6 18  3 31 23.0800000  0  4G12G13G 9G 7
  20851492.877    20851497.050     6637250.477 9 -21038387.181 9
  21494059.696    21494063.556    36078357.531 9 -42370082.854 9
  23282283.830    23282286.557    76695729.442 9 -98837084.724 9
  25386187.841    25386224.572   -14593997.025 9   7415748.739 9
 86  6 18  3 31 29.0800000  0  4G12G13G 9G 7
  20852293.616    20852297.657     6641457.479 9 -21035109.005 8
  21495737.281    21495741.042    36087174.757 9 -42363212.283 9
  23286849.615    23286853.507    76719725.637 9 -98818386.390 9
  25383464.744    25383465.731   -14608495.446 9   7404451.433 9
 86  6 18  3 31 35.0800000  0  4G12G13G 9G 7
  20853098.917    20853102.786     6645690.440 9 -21031810.598 8
  21497416.293    21497419.329    36095995.717 9 -42356338.811 9
  23291416.708    23291420.672    76743728.637 9 -98799682.761 8
  25380710.783    25380714.246   -14622964.185 9   7393177.092 9
 86  6 18  3 31 41.0800000  0  4G12G13G 9G 7
  20853910.116    20853913.355     6649949.327 9 -21028491.988 8
  21499095.524    21499098.216    36104820.303 9 -42349462.512 9
  23295985.519    23295989.547    76767738.320 8 -98780973.914 8
  25377961.945    25377966.366   -14637407.662 9   7381922.437 9
 86  6 18  3 31 47.0800000  0  4G12G13G 9G 7
  20854725.099    20854729.031     6654234.097 9 -21025153.202 9
  21500775.881    21500778.824    36113648.557 9 -42342583.347 9
  23300556.684    23300559.730    76791754.704 9 -98762259.852 8
  25375216.168    25375222.465   -14651830.419 9   7370683.932 9
 86  6 18  3 31 53.0800000  0  4G12G13G 9G 7
  20855545.783    20855549.739     6658544.781 8 -21021794.215 8
  21502455.462    21502459.696    36122480.447 9 -42335701.364 9
  23305127.719    23305130.789    76815777.538 9 -98743540.751 9
  25372473.870    25372480.967   -14666235.920 9   7359458.889 8
 86  6 18  3 31 59.0800000  0  4G12G13G 9G 7
  20856371.424    20856375.408     6662881.471 9 -21018414.995 8
  21504136.738    21504140.591    36131315.934 9 -42328816.565 9
  23309702.511    23309707.520    76839806.870 1 -98724816.622 1
  25369734.833    25369741.286   -14680626.484 8   7348245.487 9
 86  6 18  3 32  5.0800000  0  4G12G13G 9G 7
  20857201.769    20857204.721     6667244.130 9 -21015015.510 8
  21505819.448    21505823.341    36140155.106 9 -42321928.902 9
  23314274.576    23314272.430    76863842.885 1 -98706087.240 1
  25367000.920    25367004.869   -14695003.453 9   7337042.670 9
 86  6 18  3 32 11.0800000  0  4G12G13G 9G 7
  20858036.690    20858041.448     6671632.693 9 -21011595.854 8
  21507503.217    21507506.456    36148997.958 9 -42315038.369 9
  23318854.139    23318855.376    76887885.482 1 -98687352.748 1
  25364269.181    25364271.383   -14709365.849 9   7325851.193 8
 86  6 18  3 32 17.0800000  0  4G12G13G 9G 7
  20858877.032    20858879.988     6676047.116 9 -21008156.038 7
  21509186.850    21509189.325    36157844.391 9 -42308145.043 9
  23323429.477    23323426.994    76911934.557 1 -98668613.208 1
                  25361541.046   -14723708.698 9
 86  6 18  3 32 23.0800000  0  4G12G13G 9G 7
  20859721.916    20859725.166     6680487.517 9 -21004695.994 8
  21510870.491    21510874.354    36166694.364 9 -42301248.967 9
  23328004.837    23328008.421    76935990.100 3 -98649868.623 1
  25358816.398    25358845.732   -14738024.899 9   7361035.823 8
 86  6 18  3 32 29.0800000  0  4G12G13G 9G 7
  20860572.307    20860574.924     6684953.784 9 -21001215.781 8
  21512555.033    21512558.191    36175547.973 9 -42294350.047 8
  23332581.568    23332585.904    76960052.089 1 -98631119.034 1
  25356097.759    25356099.849   -14752310.056 9   7349904.677 9
 86  6 18  3 32 35.0800000  0  4G12G13G 9G 7
  20861426.475    20861429.370     6689445.987 9 -20997715.361 8
  21514240.719    21514243.607    36184405.134 9 -42287448.361 9
  23337161.541    23337164.592    76984120.513 1 -98612364.413 1
  25353384.981    25353386.389   -14766565.763 9   7338795.840 9
 86  6 18  3 32 41.0800000  0  4G12G13G 9G 7
  20862286.274    20862289.504     6693964.169 9 -20994194.705 8
  21515927.223    21515929.912    36193265.960 9 -42280543.825 8
  23341744.960    23341749.680    77008195.484 1 -98593604.715 1
  25350677.647    25350677.840   -14780796.292 9   7327707.105 9
 86  6 18  3 32 47.0800000  0  4G12G13G 9G 7
  20863150.178    20863153.892     6698508.232 9 -20990653.875 8
  21517614.156    21517616.496    36202130.359 9 -42273636.506 9
  23346327.383    23346329.180    77032276.790 1 -98574840.057 1
  25347973.274    25347973.170   -14795006.276 9   7316634.387 8
 86  6 18  3 32 53.0800000  0  4G12G13G 9G 7
  20864021.167    20864023.597     6703078.213 9 -20987092.856 8
  21519301.839    21519305.163    36210998.315 9 -42266726.395 9
  23350912.144    23350914.416    77056364.514 1 -98556070.398 1
  25345272.086    25345273.725   -14809198.800 9   7305575.258 9
 86  6 18  3 32 59.0800000  0  4G12G13G 9G 7
  20864894.831    20864899.795     6707674.065 9 -20983511.671 9
  21520989.637    21520992.972    36219869.846 9 -42259813.517 8
  23355496.443    23355499.109    77080458.534 1 -98537295.839 1
  25342573.766    25342575.849   -14823376.245 9   7294527.901 9
 86  6 18  3 33  5.0800000  0  4G12G13G 9G 7
  20865774.749    20865778.091     6712295.824 9 -20979910.294 7
  21522678.061    21522681.896    36228744.880 9 -42252897.911 9
  23360081.628    23360082.143    77104558.921 1 -98518516.321 1
  25339877.622    25339880.377   -14837539.890 9   7283491.289 9
 86  6 18  3 33 11.0800000  0  4G12G13G 9G 7
  20866658.811    20866662.324     6716943.480 9 -20976288.750 7
  21524367.862    21524372.084    36237623.524 9 -42245979.487 8
  23364671.264    23364673.646    77128665.701 1 -98499731.815 1
  25337184.175    25337188.883   -14851688.536 9   7272466.375 9
 86  6 18  3 33 17.0800000  0  4G12G13G 9G 7
  20867548.017    20867552.272     6721617.101 9 -20972646.969 7
  21526057.953    21526060.372    36246505.765 9 -42239058.258 9
  23369260.252    23369259.030    77152778.780 1 -98480942.405 1
                  25334500.579                     7261457.341 9
 86  6 18  3 33 23.0800000  0  4G12G13G 9G 7
  20868442.819    20868446.977     6726316.669 9 -20968984.964 8
  21527748.237    21527752.542    36255391.539 9 -42232134.280 8
  23373846.352    23373848.415    77176898.086 1 -98462148.138 1
  25331814.745    25331817.532   -14902097.423 9   7250469.884 8
 86  6 18  3 33 29.0800000  0  4G12G13G 9G 7
  20869341.740    20869345.539     6731042.107 9 -20965302.808 8
  21529440.172    21529443.385    36264280.779 9 -42225207.594 9
  23378437.128    23378441.095    77201023.578 1 -98443349.082 1
  25329137.803    25329140.707   -14916166.716 9   7239506.797 9
 86  6 18  3 33 35.0800000  0  4G12G13G 9G 7
  20870245.577    20870249.218     6735793.363 9 -20961600.523 9
  21531132.876    21531135.933    36273173.537 9 -42218278.174 9
  23383029.113    23383032.664    77225155.289 8 -98424545.128 9
  25326466.219    25326468.022   -14930206.675 9   7228566.573 9
 86  6 18  3 33 41.0800000  0  4G12G13G 9G 7
  20871155.643    20871158.583     6740570.367 8 -20957878.181 9
  21532825.768    21532828.801    36282069.776 9 -42211346.037 9
  23387622.457    23387625.693    77249293.155 8 -98405736.414 9
  25323798.865    25323799.909   -14944221.667 9   7217645.798 9
 86  6 18  3 33 47.0800000  0  4G12G13G 9G 7
  20872069.655    20872072.467     6745373.232 9 -20954135.683 8
  21534518.342    21534522.003    36290969.482 9 -42204411.198 9
  23392217.339    23392220.923    77273437.076 9 -98386922.966 8
  25321135.810    25321137.734   -14958216.135 9   7206741.011 9
 86  6 18  3 33 53.0800000  0  4G12G13G 9G 7
  20872988.277    20872991.791     6750201.894 9 -20950373.090 8
  21536213.298    21536216.223    36299872.634 9 -42197473.682 9
  23396812.863    23396816.398    77297587.013 9 -98368104.836 9
  25318474.951    25318477.857   -14972193.306 9   7195849.693 9
 86  6 18  3 33 59.0800000  0  4G12G13G 9G 7
  20873911.509    20873913.933     6755056.291 9 -20946590.444 9
  21537907.799    21537910.490    36308779.242 9 -42190533.462 9
  23401408.334    23401413.172    77321742.948 9 -98349282.033 8
  25315818.236    25315820.932   -14986155.375 9   7184970.155 9
 86  6 18  3 34  5.0800000  0  4G12G13G 9G 7
  20874840.776    20874842.929     6759936.425 9 -20942787.744 8
  21539603.257    21539606.632    36317689.319 9 -42183590.554 9
  23406006.715    23406010.449    77345905.001 8 -98330454.460 9
  25313162.907    25313168.023   -15000103.479 9   7174101.499 9
 86  6 18  3 34 11.0800000  0  4G12G13G 9G 7
  20875774.078    20875777.463     6764842.347 9 -20938964.945 8
  21541298.734    21541302.408    36326602.885 9 -42176644.911 9
  23410605.288    23410609.853    77370072.957 8 -98311622.297 8
  25310510.815    25310516.252   -15014036.244 9   7163244.807 9
 86  6 18  3 34 17.0800000  0  4G12G13G 9G 7
  20876712.533    20876716.760     6769774.038 8 -20935122.063 8
  21542996.427    21542998.665    36335519.831 9 -42169696.642 8
  23415205.904    23415209.948    77394246.893 8 -98292785.463 9
                  25307868.944                     7152404.675 9
 86  6 18  3 34 23.0800000  0  4G12G13G 9G 7
  20877655.281    20877659.867     6774731.556 9 -20931259.068 8
  21544692.989    21544696.710    36344440.186 9 -42162745.717 8
  23419808.021    23419811.278    77418426.794 9 -98273943.980 9
  25305222.453    25305228.646   -15064225.562 9   7141586.552 9
 86  6 18  3 34 29.0800000  0  4G12G13G 9G 7
  20878603.808    20878607.837     6779714.910 9 -20927375.935 9
  21546391.423    21546395.987    36353363.898 9 -42155792.174 9
  23424409.397    23424413.248    77442612.653 8 -98255097.855 9
  25302587.085    25302591.794   -15078077.219 9   7130793.054 9
 86  6 18  3 34 35.0800000  0  4G12G13G 9G 7
  20879557.632    20879561.474     6784724.077 9 -20923472.683 8
  21548090.490    21548093.585    36362290.997 9 -42148835.996 9
  23429013.494    23429017.177    77466804.382 9 -98236247.160 9
  25299957.272    25299961.205   -15091899.118 9   7120022.360 9
 86  6 18  3 34 41.0800000  0  4G12G13G 9G 7
  20880515.317    20880519.746     6789759.020 9 -20919549.348 8
  21549789.917    21549792.932    36371221.573 9 -42141877.103 9
  23433618.036    23433621.942    77491002.164 9 -98217391.755 9
  25297333.087    25297335.026   -15105696.580 9   7109271.101 9
 86  6 18  3 34 47.0800000  0  4G12G13G 9G 7
  20881478.641    20881482.811     6794819.790 8 -20915605.891 8
  21551489.671    21551493.524    36380155.607 9 -42134915.507 8
  23438224.527    23438227.964    77515205.829 8 -98198531.751 9
  25294710.670    25294712.401   -15119473.597 9   7098535.757 9
 86  6 18  3 34 53.0800000  0  4G12G13G 9G 7
  20882446.229    20882449.771     6799906.366 8 -20911642.315 9
  21553190.582    21553193.982    36389093.094 9 -42127951.236 9
  23442832.295    23442834.775    77539415.370 8 -98179667.177 9
  25292091.709    25292094.406   -15133233.006 9   7087814.131 9
 86  6 18  3 34 59.0800000  0  4G12G13G 9G 7
  20883419.941    20883422.896     6805018.723 8 -20907658.675 9
  21554891.713    21554895.803    36398034.055 9 -42120984.251 9
  23447438.239    23447442.519    77563630.697 9 -98160798.105 9
  25289475.797    25289478.851   -15146977.122 9   7077104.421 9
 86  6 18  3 35  5.0800000  0  4G12G13G 9G 7
  20884396.429    20884402.018     6810156.823 9 -20903654.969 8
  21556594.170    21556597.996    36406978.417 9 -42114014.629 8
  23452047.392    23452051.918    77587851.784 8 -98141924.523 8
  25286862.958    25286866.357   -15160707.047 9   7066405.781 9
 86  6 18  3 35 11.0800000  0  4G12G13G 9G 7
  20885380.129    20885383.885     6815320.765 9 -20899631.119 8
  21558297.173    21558300.445    36415926.123 9 -42107042.373 9
  23456657.639    23456661.735    77612078.765 9 -98123046.357 8
  25284253.006    25284256.797   -15174421.152 9   7055719.460 9
 86  6 18  3 35 17.0800000  0  4G12G13G 9G 7
  20886367.063    20886370.678     6820510.450 9 -20895587.204 8
  21559999.751    21560003.771    36424877.254 9 -42100067.484 9
  23461270.061    23461273.404    77636311.522 8 -98104163.692 8
                  25281651.100                     7045050.351 9
 86  6 18  3 35 23.0800000  0  4G12G13G 9G 7
  20887360.235    20887363.576     6825725.952 9 -20891523.179 9
  21561703.683    21561707.716    36433831.761 9 -42093089.937 9
  23465882.905    23465885.649    77660549.976 8 -98085276.577 9
  25279047.261    25279051.365   -15224392.768 9   7034403.788 9
 86  6 18  3 35 29.0800000  0  4G12G13G 9G 7
  20888356.471    20888360.888     6830967.127 9 -20887439.152 8
  21563408.779    21563412.925    36442789.493 9 -42086109.890 9
  23470495.952    23470498.806    77684794.158 9 -98066385.019 8
  25276453.639    25276456.902   -15238023.999 9   7023782.045 9
 86  6 18  3 35 35.0800000  0  4G12G13G 9G 7
  20889360.318    20889363.331     6836233.939 9 -20883335.153 8
  21565112.944    21565118.202    36451750.466 9 -42079127.312 8
  23475109.943    23475113.660    77709043.974 9 -98047489.049 9
  25273864.848    25273869.649   -15251626.629 9   7013182.993 9
 86  6 18  3 35 41.0800000  0  4G12G13G 9G 7
  20890366.714    20890370.112     6841526.431 9 -20879211.139 9
  21566819.283    21566823.144    36460714.725 9 -42072142.171 9
  23479724.926    23479729.584    77733299.360 9 -98028588.756 9
  25271281.476    25271286.525   -15265204.262 9   7002603.033 9
 86  6 18  3 35 47.0800000  0  4G12G13G 9G 7
  20891378.918    20891381.958     6846844.535 9 -20875067.160 7
  21568526.309    21568529.910    36469682.314 8 -42065154.445 9
  23484341.125    23484345.918    77757560.222 8 -98009684.186 9
  25268702.486    25268707.223   -15278761.362 9   6992039.070 8
 86  6 18  3 35 53.0800000  0  4G12G13G 9G 7
  20892395.270    20892398.297     6852188.286 9 -20870903.197 9
  21570233.160    21570236.561    36478653.189 9 -42058164.151 9
  23488959.875    23488963.395    77781826.639 9 -97990775.303 9
  25266124.901    25266130.373   -15292301.024 9   6981488.693 9
 86  6 18  3 35 59.0800000  0  4G12G13G 9G 7
  20893416.719    20893420.118     6857557.667 9 -20866719.280 9
  21571941.821    21571944.735    36487627.348 8 -42051171.305 8
  23493578.695    23493581.733    77806098.611 9 -97971862.070 9
  25263550.663    25263556.328   -15305825.340 9   6970950.285 9
 86  6 18  3 36  5.0800000  0  4G12G13G 9G 7
  20894444.034    20894448.189     6862952.725 9 -20862515.343 8
  21573649.582    21573653.074    36496604.713 9 -42044175.946 9
  23498199.224    23498202.726    77830376.054 9 -97952944.585 8
  25260979.881    25260985.097   -15319335.410 9   6960422.969 9
 86  6 18  3 36 11.0800000  0  4G12G13G 9G 7
  20895475.412    20895479.253     6868373.481 9 -20858291.370 8
  21575358.093    21575362.444    36505585.352 9 -42037178.051 8
  23502819.897    23502823.851    77854658.997 9 -97934022.821 8
  25258413.219    25258416.746   -15332828.894 9   6949908.573 9
 86  6 18  3 36 17.0800000  0  4G12G13G 9G 7
  20896511.541    20896514.851     6873819.819 9 -20854047.466 8
  21577067.116    21577071.318    36514569.189 9 -42030177.652 9
  23507441.799    23507444.862    77878947.386 9 -97915096.804 8
                  25255852.661                     6939411.926 8
 86  6 18  3 36 23.0800000  0  4G12G13G 9G 7
  20897552.937    20897556.490     6879291.806 9 -20849783.581 9
  21578778.270    21578781.495    36523556.226 9 -42023174.770 9
  23512064.889    23512068.493    77903241.191 9 -97896166.563 9
  25253292.236    25253295.209   -15382583.733 9   6928938.310 9
 86  6 18  3 36 29.0800000  0  4G12G13G 9G 7
  20898599.224    20898602.594     6884789.384 9 -20845499.755 9
  21580488.390    21580491.937    36532546.518 9 -42016169.342 9
  23516687.978    23516692.292    77927540.499 9 -97877232.046 9
  25250739.910    25250742.994   -15395992.862 9   6918489.647 9
 86  6 18  3 36 35.0800000  0  4G12G13G 9G 7
  20899650.091    20899654.263     6890312.624 9 -20841195.942 9
  21582200.174    21582203.215    36541540.081 9 -42009161.374 9
  23521312.363    23521317.259    77951845.146 8 -97858293.355 8
  25248193.360    25248196.593   -15409372.947 9   6908063.612 8
 86  6 18  3 36 41.0800000  0  4G12G13G 9G 7
  20900706.082    20900709.451     6895861.503 9 -20836872.137 9
  21583911.600    21583915.171    36550536.807 9 -42002150.931 9
  23525939.092    23525942.521    77976155.133 8 -97839350.503 8
  25245651.247    25245654.237   -15422728.509 9   6897656.689 8
 86  6 18  3 36 47.0800000  0  4G12G13G 9G 7
  20901766.936    20901770.279     6901435.987 9 -20832528.378 9
  21585624.468    21585627.968    36559536.786 9 -41995137.967 9
  23530566.339    23530569.804    78000470.434 9 -97820403.516 9
  25243113.176    25243117.820   -15436063.795 9   6887265.567 9
 86  6 18  3 36 53.0800000  0  4G12G13G 9G 7
  20902831.456    20902836.185     6907036.117 9 -20828164.644 8
  21587338.197    21587340.699    36568539.996 9 -41988122.476 9
  23535195.212    23535198.595    78024791.048 8 -97801452.399 9
  25240579.234    25240584.341   -15449381.581 9   6876888.084 9
 86  6 18  3 36 59.0800000  0  4G12G13G 9G 7
  20903903.215    20903907.386     6912661.791 9 -20823780.995 8
  21589052.556    21589055.479    36577546.440 9 -41981104.468 9
  23539824.118    23539827.842    78049116.932 9 -97782497.163 9
  25238049.353    25238052.889   -15462683.887 9   6866522.668 9
 86  6 18  3 37  5.0800000  0  4G12G13G 9G 7
  20904978.177    20904982.866     6918313.100 9 -20819377.384 8
  21590766.959    21590770.183    36586556.095 9 -41974083.954 9
  23544453.488    23544457.251    78073448.094 8 -97763537.811 9
  25235520.777    25235524.496   -15475971.563 9   6856168.658 9
 86  6 18  3 37 11.0800000  0  4G12G13G 9G 7
  20906057.950    20906061.821     6923989.995 9 -20814953.831 9
  21592482.059    21592485.173    36595568.933 9 -41967060.966 9
  23549085.428    23549089.141    78097784.537 8 -97744574.359 8
  25232996.134    25232998.180   -15489242.072 9   6845828.007 9
 86  6 18  3 37 17.0800000  0  4G12G13G 9G 7
  20907143.618    20907147.760     6929692.469 9 -20810510.347 9
  21594198.129    21594201.372    36604584.918 8 -41960035.522 9
  23553716.780    23553720.106    78122126.190 8 -97725606.843 9
                  25230476.895                     6835505.681 8
 86  6 18  3 37 23.0800000  0  4G12G13G 9G 7
  20908233.321    20908237.348     6935420.477 9 -20806046.977 9
  21595914.520    21595916.370    36613604.084 9 -41953007.600 9
  23558350.422    23558354.028    78146472.996 8 -97706635.322 8
  25227960.322    25227963.645   -15538770.856 9   6825206.869 8
 86  6 18  3 37 29.0800000  0  4G12G13G 9G 7
  20909328.747    20909332.560     6941174.058 9 -20801563.668 8
  21597632.281    21597633.837    36622626.431 9 -41945977.194 8
  23562984.451    23562987.863    78170824.890 9 -97687659.803 8
  25225450.826    25225453.096   -15551955.556 9   6814933.095 9
 86  6 18  3 37 35.0800000  0  4G12G13G 9G 7
  20910427.951    20910432.479     6946953.128 9 -20797060.494 9
  21599349.018    21599352.086    36631651.936 9 -41938944.346 9
  23567619.503    23567622.160    78195181.934 8 -97668680.291 9
  25222946.511    25222948.607   -15565111.213 9   6804681.960 9
 86  6 18  3 37 41.0800000  0  4G12G13G 9G 7
  20911532.736    20911537.421     6952757.667 9 -20792537.471 9
  21601067.835    21601069.487    36640680.466 9 -41931909.118 9
  23572254.903    23572259.182    78219544.017 8 -97649696.857 9
  25220447.296    25220450.518   -15578242.597 9   6794449.720 9
 86  6 18  3 37 47.0800000  0  4G12G13G 9G 7
  20912642.700    20912646.700     6958587.683 9 -20787994.610 9
  21602785.638    21602788.032    36649712.069 9 -41924871.502 9
  23576892.422    23576896.316    78243911.079 8 -97630709.551 8
  25217953.284    25217956.331   -15591353.752 9   6784233.249 9
 86  6 18  3 37 53.0800000  0  4G12G13G 9G 7
  20913758.158    20913760.713     6964443.201 9 -20783431.864 9
  21604504.903    21604508.135    36658746.743 9 -41917831.505 9
  23581529.463    23581533.292    78268283.130 9 -97611718.327 9
  25215462.074    25215464.329   -15604447.221 9   6774030.558 9
 86  6 18  3 37 59.0800000  0  4G12G13G 9G 7
  20914876.538    20914879.305     6970324.306 9 -20778849.189 8
  21606224.350    21606227.354    36667784.516 9 -41910789.068 9
  23586168.473    23586173.084    78292660.317 9 -97592723.121 9
  25212973.978    25212976.111   -15617525.205 9   6763839.929 9
 86  6 18  3 38  5.0800000  0  4G12G13G 9G 7
  20916000.639    20916003.794     6976230.869 9 -20774246.678 8
  21607945.355    21607947.864    36676825.384 9 -41903744.245 9
  23590808.561    23590812.435    78317042.453 9 -97573724.062 9
  25210488.071    25210490.442   -15630588.258 9   6753660.944 8
 86  6 18  3 38 11.0800000  0  4G12G13G 9G 7
  20917129.835    20917132.247     6982162.905 9 -20769624.309 9
  21609665.625    21609669.877    36685869.414 9 -41896696.938 9
  23595449.443    23595452.145    78341429.625 8 -97554721.067 9
  25208004.375    25208007.366   -15643633.764 9   6743495.612 9
 86  6 18  3 38 17.0800000  0  4G12G13G 9G 7
  20918263.610    20918265.621     6988120.423 9 -20764982.088 8
  21611387.103    21611390.804    36694916.471 9 -41889647.289 9
  23600091.850    23600094.338    78365821.743 9 -97535714.228 9
                  25205528.506                     6733349.274 8
 86  6 18  3 38 23.0800000  0  4G12G13G 9G 7
  20919402.137    20919404.619     6994103.432 9 -20760320.003 8
  21613110.130    21613113.368    36703966.531 9 -41882595.295 9
  23604734.059    23604736.964    78390218.713 9 -97516703.589 8
  25203054.804    25203056.714   -15692937.872 9   6723226.858 8
 86  6 18  3 38 29.0800000  0  4G12G13G 9G 7
  20920545.327    20920547.149     7000111.915 9 -20755638.074 8
  21614831.844    21614835.794    36713019.632 9 -41875540.930 9
  23609377.199    23609380.815    78414620.469 8 -97497689.256 9
  25200589.146    25200591.922   -15705896.020 9   6713129.612 9
 86  6 18  3 38 35.0800000  0  4G12G13G 9G 7
  20921694.010    20921695.807     7006145.830 9 -20750936.315 9
  21616555.628    21616558.826    36722075.834 9 -41868484.133 9
  23614022.038    23614024.711    78439027.077 7 -97478671.109 9
  25198129.826    25198131.506   -15718824.706 9   6703054.941 9
 86  6 18  3 38 41.0800000  0  4G12G13G 9G 7
  20922847.075    20922849.171     7012205.227 9 -20746214.714 8
  21618279.316    21618281.860    36731135.159 9 -41861424.925 8
  23618666.399    23618670.126    78463438.567 8 -97459649.181 8
  25195674.097    25195676.421   -15731729.587 9   6692999.199 9
 86  6 18  3 38 47.0800000  0  4G12G13G 9G 7
  20924004.603    20924007.201     7018290.117 9 -20741473.244 8
  21620004.048    21620006.311    36740197.570 9 -41854363.306 8
  23623312.482    23623317.244    78487854.946 9 -97440623.426 9
  25193221.630    25193224.069   -15744614.274 9   6682959.184 9
 86  6 18  3 38 53.0800000  0  4G12G13G 9G 7
  20925166.911    20925169.407     7024400.467 9 -20736711.928 8
  21621728.754    21621732.389    36749262.991 9 -41847299.333 9
  23627960.409    23627964.102    78512276.134 8 -97421593.936 9
  25190772.749    25190775.868   -15757481.278 9   6672932.967 9
 86  6 18  3 38 59.0800000  0  4G12G13G 9G 7
  20926334.541    20926338.225     7030536.228 9 -20731930.824 8
  21623455.221    21623457.129    36758331.376 9 -41840233.062 9
  23632608.917    23632611.948    78536701.960 8 -97402560.825 8
  25188327.071    25188330.154   -15770332.806 9   6662918.803 9
 86  6 18  3 39  5.0800000  0  4G12G13G 9G 7
  20927506.892    20927510.651     7036697.402 9 -20727129.906 8
  21625181.740    21625183.892    36767402.723 9 -41833164.476 9
  23637258.252    23637260.191    78561132.450 9 -97383524.092 8
  25185883.777    25185887.826   -15783169.053 9   6652916.540 9
 86  6 18  3 39 11.0800000  0  4G12G13G 9G 7
  20928684.253    20928687.482     7042883.955 9 -20722309.225 9
  21626907.480    21626911.641    36776477.048 9 -41826093.575 8
  23641908.019    23641910.474    78585567.706 8 -97364483.630 9
  25183444.318    25183447.350   -15795987.288 9   6642928.323 9
 86  6 18  3 39 17.0800000  0  4G12G13G 9G 7
  20929866.881    20929870.023     7049095.798 9 -20717468.832 8
  21628634.860    21628638.470    36785554.343 9 -41819020.357 9
  23646557.991    23646560.920    78610007.510 9 -97345439.632 9
                  25181013.213                     6632959.658 8
 86  6 18  3 39 23.0800000  0  4G12G13G 9G 7
  20931053.628    20931056.770     7055332.997 9 -20712608.668 8
  21630362.790    21630365.977    36794634.687 9 -41811944.750 9
  23651209.605    23651212.991    78634451.915 8 -97326392.043 9
  25178580.611    25178585.281   -15845063.753 9   6623015.394 9
 86  6 18  3 39 29.0800000  0  4G12G13G 9G 7
  20932244.897    20932248.597     7061595.546 9 -20707728.766 9
  21632091.251    21632095.219    36803717.974 9 -41804866.860 8
  23655861.966    23655865.914    78658900.950 8 -97307340.860 9
  25176158.757    25176162.071   -15857793.278 9   6613096.288 8
 86  6 18  3 39 35.0800000  0  4G12G13G 9G 7
  20933441.547    20933443.673     7067883.348 9 -20702829.179 9
  21633819.919    21633823.873    36812804.079 9 -41797786.782 8
  23660514.696    23660518.323    78683354.426 8 -97288286.202 9
  25173742.344    25173744.840   -15870494.607 9   6603199.557 9
 86  6 18  3 39 41.0800000  0  4G12G13G 9G 7
  20934642.889    20934645.272     7074196.423 9 -20697909.905 9
  21635549.860    21635553.152    36821893.126 9 -41790704.404 9
  23665169.099    23665172.915    78707812.535 8 -97269227.936 9
  25171330.758    25171332.425   -15883171.395 9   6593321.550 9
 86  6 18  3 39 47.0800000  0  4G12G13G 9G 7
  20935848.440    20935852.668     7080534.730 9 -20692970.960 9
  21637280.524    21637283.236    36830985.057 9 -41783619.779 9
  23669824.602    23669827.302    78732275.107 8 -97250166.194 9
  25168922.400    25168923.974   -15895827.936 9   6583459.305 8
 86  6 18  3 39 53.0800000  0  4G12G13G 9G 7
  20937058.682    20937062.582     7086898.382 8 -20688012.269 8
  21639011.479    21639014.517    36840079.873 9 -41776532.900 9
  23674481.521    23674484.372    78756742.137 8 -97231100.981 9
  25166517.727    25166520.096   -15908466.841 9   6573610.799 9
 86  6 18  3 39 59.0800000  0  4G12G13G 9G 7
  20938274.392    20938278.421     7093287.404 9 -20683033.814 9
  21640742.659    21640744.064    36849177.608 9 -41769443.754 9
  23679136.389    23679141.287    78781213.671 8 -97212032.258 9
  25164115.206    25164118.333   -15921090.073 9   6563774.514 9
 86  6 18  3 40  5.0800000  0  4G12G13G 9G 7
  20939495.796    20939498.992     7099701.737 8 -20678035.629 8
  21642474.898    21642477.467    36858278.251 9 -41762352.342 9
  23683794.167    23683798.888    78805689.689 8 -97192960.041 8
  25161715.269    25161719.753   -15933697.880 9   6553950.266 9
 86  6 18  3 40 11.0800000  0  4G12G13G 9G 7
  20940720.836    20940725.881     7106141.410 8 -20673017.708 8
  21644206.444    21644209.244    36867381.824 9 -41755258.644 8
  23688453.877    23688457.626    78830170.086 9 -97173884.405 8
  25159318.615    25159323.788   -15946286.703 9   6544140.803 9
 86  6 18  3 40 17.0800000  0  4G12G13G 9G 7
  20941951.113    20941955.885     7112606.453 9 -20667980.004 8
  21645938.759    21645942.213    36876488.382 9 -41748162.630 8
  23693113.015    23693116.936    78854655.002 9 -97154805.266 9
                  25156934.210                     6534351.472 8
 86  6 18  3 40 23.0800000  0  4G12G13G 9G 7
  20943185.767    20943190.338     7119096.768 9 -20662922.622 8
  21647672.585    21647675.836    36885597.843 9 -41741064.343 9
  23697773.010    23697777.489    78879144.344 8 -97135722.674 8
  25154543.220    25154549.162   -15995144.384 9   6524586.951 9
 86  6 18  3 40 29.0800000  0  4G12G13G 9G 7
  20944425.630    20944430.447     7125612.339 9 -20657845.543 8
  21649406.964    21649409.846    36894710.319 9 -41733963.710 9
  23702433.687    23702437.702    78903638.017 8 -97116636.695 9
  25152165.162    25152169.457   -16007643.158 9   6514847.642 9
 86  6 18  3 40 35.0800000  0  4G12G13G 9G 7
  20945670.674    20945675.387     7132153.168 9 -20652748.803 8
  21651141.581    21651144.172    36903825.747 9 -41726860.777 9
  23707095.573    23707099.424    78928136.096 8 -97097547.280 9
  25149793.664    25149795.749   -16020112.718 9   6505130.735 9
 86  6 18  3 40 41.0800000  0  4G12G13G 9G 7
  20946919.466    20946924.423     7138719.297 9 -20647632.339 9
  21652876.256    21652879.682    36912944.094 9 -41719755.576 8
  23711757.750    23711762.798    78952638.446 8 -97078454.551 9
  25147426.138    25147427.236   -16032558.757 9   6495432.524 8
 86  6 18  3 40 47.0800000  0  4G12G13G 9G 7
  20948173.467    20948178.567     7145310.745 9 -20642496.142 8
  21654612.358    21654614.803    36922065.354 9 -41712648.094 8
  23716421.409    23716426.479    78977145.157 9 -97059358.410 9
  25145061.235    25145062.268   -16044984.623 9   6485750.041 8
 86  6 18  3 40 53.0800000  0  4G12G13G 9G 7
  20949433.334    20949436.675     7151927.448 9 -20637340.269 8
  21656348.630    21656351.367    36931189.509 9 -41705538.361 8
  23721087.104    23721090.625    79001656.109 8 -97040258.971 9
  25142701.163    25142701.703   -16057392.771 9   6476081.347 9
 86  6 18  3 40 59.0800000  0  4G12G13G 9G 7
  20950696.291    20950701.380     7158569.396 9 -20632164.721 8
  21658085.950    21658088.181    36940316.616 9 -41698426.327 9
  23725752.031    23725755.586    79026171.308 9 -97021156.225 9
  25140342.944    25140343.985   -16069785.218 9   6466424.888 9
 86  6 18  3 41  5.0800000  0  4G12G13G 9G 7
  20951965.260    20951971.119     7165236.531 9 -20626969.558 8
  21659823.916    21659825.548    36949446.485 9 -41691312.141 9
  23730417.056    23730421.531    79050690.649 8 -97002050.245 9
  25137986.557    25137989.066   -16082161.874 9   6456780.741 8
 86  6 18  3 41 11.0800000  0  4G12G13G 9G 7
  20953238.836    20953244.824     7171928.807 8 -20621754.797 8
  21661560.988    21661563.256    36958579.100 9 -41684195.822 8
  23735084.316    23735087.734    79075214.093 9 -96982941.076 9
                  25135638.201                     6447151.756 8
 86  6 18  3 41 17.0800000  0  4G12G13G 9G 7
  20954517.190    20954522.707     7178646.224 8 -20616520.444 8
  21663299.259    21663302.554    36967714.489 9 -41677077.327 9
  23739750.354    23739754.722    79099741.677 8 -96963828.688 9
  25133262.037    25133291.422   -16130829.713 9   6437543.465 8
 86  6 18  3 41 23.0800000  0  4G12G13G 9G 7
  20955800.755    20955805.169     7185388.727 9 -20611266.547 9
  21665038.462    21665039.862    36976852.610 9 -41669956.713 9
  23744419.290    23744423.386    79124273.269 8 -96944713.158 8
  25130947.512    25130950.953   -16143127.998 9   6427960.418 9
 86  6 18  3 41 29.0800000  0  4G12G13G 9G 7
  20957088.811    20957093.842     7192156.375 9 -20605993.058 9
  21666777.429    21666779.895    36985993.478 9 -41662833.953 9
  23749087.310    23749093.302    79148808.787 7 -96925594.586 9
  25128612.459    25128616.675   -16155393.946 9   6418402.546 9
 86  6 18  3 41 35.0800000  0  4G12G13G 9G 7
  20958380.360    20958386.305     7198949.161 9 -20600699.978 8
  21668517.243    21668520.447    36995137.051 9 -41655709.096 9
  23753758.239    23753762.477    79173348.427 8 -96906472.790 8
  25126284.219    25126288.060   -16167631.527 9   6408866.784 9
 86  6 18  3 41 41.0800000  0  4G12G13G 9G 7
  20959678.691    20959683.691     7205767.043 9 -20595387.351 9
  21670257.918    21670261.612    37004283.433 9 -41648582.043 9
  23758427.844    23758432.498    79197892.085 9 -96887347.869 9
  25123960.241    25123962.796   -16179845.243 9   6399349.606 9
 86  6 18  3 41 47.0800000  0  4G12G13G 9G 7
  20960980.054    20960985.670     7212609.980 9 -20590055.183 9
  21671998.256    21672003.030    37013432.595 9 -41641452.817 8
  23763100.369    23763103.215    79222439.674 9 -96868219.881 7
  25121640.179    25121642.733   -16192038.846 9   6389848.102 9
 86  6 18  3 41 53.0800000  0  4G12G13G 9G 7
  20962287.516    20962293.031     7219478.062 9 -20584703.436 8
  21673739.065    21673743.459    37022584.483 9 -41634321.467 8
  23767772.625    23767776.385    79246991.250 8 -96849088.780 9
  25119323.148    25119326.009   -16204214.668 9   6380360.452 9
 86  6 18  3 41 59.0800000  0  4G12G13G 9G 7
  20963599.410    20963605.055     7226371.281 9 -20579332.100 9
  21675481.562    21675486.064    37031739.130 9 -41627187.982 9
  23772444.426    23772449.276    79271546.835 9 -96829954.562 9
  25117008.695    25117011.971   -16216374.667 9   6370885.135 9
 86  6 18  3 42  5.0800000  0  4G12G13G 9G 7
  20964916.285    20964920.972     7233289.614 9 -20573941.197 9
  21677224.622    21677228.397    37040896.620 9 -41620052.274 9
  23777117.959    23777122.523    79296106.356 8 -96810817.273 8
  25114697.624    25114700.437   -16228518.420 9   6361422.480 8
 86  6 18  3 42 11.0800000  0  4G12G13G 9G 7
  20966237.167    20966242.167     7240233.053 9 -20568530.720 8
  21678968.054    21678971.853    37050056.950 9 -41612914.349 9
  23781792.017    23781797.197    79320669.829 8 -96791676.918 9
  25112390.747    25112393.436   -16240641.937 9   6351975.583 9
 86  6 18  3 42 17.0800000  0  4G12G13G 9G 7
  20967564.059    20967568.502     7247201.637 9 -20563100.656 9
  21680711.606    21680715.741    37059219.981 9 -41605774.320 9
  23786467.497    23786471.491    79345237.251 8 -96772533.483 9
                  25110092.153                     6342550.031 8
 86  6 18  3 42 23.0800000  0  4G12G13G 9G 7
  20968894.556    20968898.370     7254195.382 8 -20557650.986 9
  21682455.731    21682459.243    37068385.832 9 -41598632.093 9
  23791142.786    23791147.665    79369808.581 9 -96753386.996 9
  25107794.548    25107797.311   -16289025.000 9   6333149.966 8
 86  6 18  3 42 29.0800000  0  4G12G13G 9G 7
  20970230.234    20970234.892     7261214.201 9 -20552181.779 9
  21684200.296    21684203.054    37077554.322 9 -41591487.809 8
  23795819.815    23795824.748    79394383.680 9 -96734237.571 9
  25105505.330    25105507.769   -16301056.050 9   6323775.118 8
 86  6 18  3 42 35.0800000  0  4G12G13G 9G 7
  20971570.805    20971574.391     7268258.090 9 -20546693.024 9
  21685944.309    21685949.346    37086725.531 9 -41584341.417 9
  23800496.647    23800501.016    79418962.645 8 -96715085.136 9
  25103221.074    25103224.517   -16313059.175 9   6314422.426 9
 86  6 18  3 42 41.0800000  0  4G12G13G 9G 7
  20972916.301    20972920.430     7275327.091 9 -20541184.724 9
  21687690.889    21687695.364    37095899.481 9 -41577192.875 9
  23805174.916    23805179.619    79443545.452 9 -96695929.706 8
  25100940.512    25100944.511   -16325038.104 9   6305088.212 8
 86  6 18  3 42 47.0800000  0  4G12G13G 9G 7
  20974265.771    20974269.829     7282421.163 9 -20535656.869 9
  21689437.807    21689441.257    37105076.217 9 -41570042.156 9
  23809853.964    23809858.389    79468131.944 8 -96676771.403 9
  25098664.192    25098669.428   -16336996.855 9   6295769.710 9
 86  6 18  3 42 53.0800000  0  4G12G13G 9G 7
  20975621.281    20975625.581     7289540.197 9 -20530109.579 9
  21691183.947    21691187.725    37114255.608 9 -41562889.395 9
  23814533.286    23814536.931    79492722.154 9 -96657610.206 8
  25096391.956    25096396.964   -16348937.894 9   6286465.020 9
 86  6 18  3 42 59.0800000  0  4G12G13G 9G 7
  20976980.311    20976984.253     7296684.129 9 -20524542.867 9
  21692931.396    21692935.186    37123437.676 9 -41555734.524 9
  23819212.376    23819217.574    79517316.054 8 -96638446.130 8
  25094123.091    25094127.490   -16360863.032 9   6277172.720 9
 86  6 18  3 43  5.0800000  0  4G12G13G 9G 7
  20978344.492    20978348.964     7303852.930 9 -20518956.794 8
  21694679.019    21694683.333    37132622.389 9 -41548577.608 9
  23823894.076    23823897.739    79541913.428 9 -96619279.342 9
  25091857.532    25091860.881   -16372771.754 9   6267893.206 9
 86  6 18  3 43 11.0800000  0  4G12G13G 9G 7
  20979713.025    20979717.854     7311046.670 9 -20513351.274 9
  21696427.850    21696431.023    37141809.737 9 -41541418.623 9
  23828575.078    23828579.093    79566514.398 8 -96600109.759 8
                  25089597.853                     6258629.781 9
 86  6 18  3 43 17.0800000  0  4G12G13G 9G 7
  20981087.280    20981090.807     7318265.292 9 -20507726.383 9
  21698176.293    21698180.088    37150999.643 9 -41534257.658 9
  23833257.811    23833260.301    79591118.787 8 -96580937.512 9
  25087311.259    25087340.579   -16420976.502 9   6249388.175 9
 86  6 18  3 43 23.0800000  0  4G12G13G 9G 7
  20982465.085    20982468.410     7325508.770 8 -20502082.119 8
  21699925.503    21699929.415    37160192.117 9 -41527094.691 8
  23837939.872    23837944.844    79615726.733 8 -96561762.489 9
  25085088.462    25085089.307   -16432803.444 9   6240172.282 9
 86  6 18  3 43 29.0800000  0  4G12G13G 9G 7
  20983848.354    20983852.610     7332777.058 9 -20496418.516 8
  21701675.565    21701679.500    37169387.160 9 -41519929.704 9
  23842623.833    23842628.378    79640338.213 8 -96542584.716 8
  25082842.942    25082845.361   -16444597.642 9   6230981.598 8
 86  6 18  3 43 35.0800000  0  4G12G13G 9G 7
  20985236.660    20985239.701     7340070.185 9 -20490735.563 8
  21703425.134    21703430.060    37178584.782 9 -41512762.731 9
  23847307.583    23847312.021    79664953.202 9 -96523404.219 8
  25080603.318    25080607.067   -16456364.187 9   6221812.867 8
 86  6 18  3 43 41.0800000  0  4G12G13G 9G 7
  20986629.575    20986632.931     7347388.205 9 -20485033.205 9
  21705176.509    21705180.030    37187785.008 8 -41505593.727 8
  23851991.751    23851996.205    79689571.681 7 -96504220.981 9
  25078369.382    25078372.881   -16468107.053 9   6212662.593 9
 86  6 18  3 43 47.0800000  0  4G12G13G 9G 7
  20988025.781    20988029.480     7354731.177 9 -20479311.412 8
  21706927.891    21706931.361    37196987.842 9 -41498422.674 9
  23856678.275    23856682.187    79714193.610 9 -96485035.065 9
  25076138.478    25076141.807   -16479829.841 9   6203527.959 9
 86  6 18  3 43 53.0800000  0  4G12G13G 9G 7
  20989428.682    20989432.167     7362099.093 9 -20473570.183 9
  21708679.215    21708683.799    37206193.334 9 -41491249.561 9
  23861363.599    23861367.122    79738818.963 9 -96465846.494 8
  25073911.217    25073915.575   -16491534.769 9   6194407.240 9
 86  6 18  3 43 59.0800000  0  4G12G13G 9G 7
  20990835.104    20990838.145     7369491.998 9 -20467809.477 8
  21710432.015    21710435.865    37215401.447 9 -41484074.403 9
  23866049.575    23866053.952    79763447.793 9 -96446655.197 9
  25071686.854    25071691.089   -16503223.444 9   6185299.199 9
 86  6 18  3 44  5.0800000  0  4G12G13G 9G 7
  20992246.078    20992250.235     7376909.833 9 -20462029.354 8
  21712183.851    21712188.684    37224612.181 9 -41476897.205 9
  23870737.264    23870741.627    79788080.117 9 -96427461.185 8
  25069466.640    25069469.802   -16514895.213 9   6176204.322 9
 86  6 18  3 44 11.0800000  0  4G12G13G 9G 7
  20993662.889    20993666.615     7384352.573 9 -20456229.812 9
  21713937.191    21713942.234    37233825.594 9 -41469717.918 9
  23875426.532    23875430.136    79812715.887 9 -96408264.491 9
                  25067253.395                     6167126.226 9
 86  6 18  3 44 17.0800000  0  4G12G13G 9G 7
  20995083.678    20995086.389     7391820.198 9 -20450410.880 8
  21715690.754    21715694.436    37243041.664 9 -41462536.568 9
  23880115.548    23880118.931    79837355.032 9 -96389065.153 8
  25065020.359    25065042.309   -16562865.572 9   6158070.478 9
 86  6 18  3 44 23.0800000  0  4G12G13G 9G 7
  20996509.416    20996511.700     7399312.709 9 -20444572.565 8
  21717444.435    21717449.309    37252260.380 8 -41455353.150 9
  23884803.949    23884807.452    79861997.556 9 -96369863.196 8
  25062833.192    25062837.016   -16574453.297 9   6149041.029 9
 86  6 18  3 44 29.0800000  0  4G12G13G 9G 7
  20997939.935    20997942.405     7406830.077 9 -20438714.871 9
  21719198.923    21719204.327    37261481.680 9 -41448167.728 9
  23889494.708    23889497.565    79886643.457 9 -96350658.602 9
  25060634.644    25060637.992   -16586009.422 9   6140036.649 9
 86  6 18  3 44 35.0800000  0  4G12G13G 9G 7
  20999375.664    20999378.862     7414372.276 9 -20432837.835 8
  21720954.769    21720959.406    37270705.583 9 -41440980.263 9
  23894184.098    23894188.444    79911292.594 8 -96331451.481 9
  25058440.580    25058443.213   -16597536.799 9   6131054.294 9
 86  6 18  3 44 41.0800000  0  4G12G13G 9G 7
  21000815.312    21000818.209     7421939.284 9 -20426941.473 8
  21722711.032    21722715.509    37279932.053 9 -41433790.807 9
  23898876.140    23898878.850    79935944.917 9 -96312241.889 9
  25056250.601    25056252.855   -16609040.743 9   6122090.178 9
 86  6 18  3 44 47.0800000  0  4G12G13G 9G 7
  21002260.310    21002263.894     7429531.123 9 -20421025.756 9
  21724467.043    21724471.487    37289161.103 9 -41426599.333 9
  23903567.302    23903571.243    79960600.522 9 -96293029.726 9
  25054064.972    25054068.335   -16620524.510 9   6113141.795 9
 86  6 18  3 44 53.0800000  0  4G12G13G 9G 7
  21003709.662    21003713.461     7437147.729 9 -20415090.734 8
  21726224.002    21726227.582    37298392.662 9 -41419405.910 9
  23908260.126    23908263.485    79985259.341 9 -96273815.066 9
  25051882.729    25051885.783   -16631990.632 9   6104207.155 9
 86  6 18  3 44 59.0800000  0  4G12G13G 9G 7
  21005163.903    21005167.246     7444789.002 9 -20409136.496 8
  21727980.140    21727984.308    37307626.665 9 -41412210.576 9
  23912953.492    23912956.565    80009921.230 9 -96254598.009 8
  25049704.025    25049707.387   -16643440.330 9   6095285.313 9
 86  6 18  3 45  5.0800000  0  4G12G13G 9G 7
  21006622.241    21006625.681     7452455.023 9 -20403162.973 8
  21729738.905    21729741.843    37316863.158 9 -41405013.310 9
  23917646.727    23917650.805    80034586.228 8 -96235378.536 8
  25047528.220    25047531.854   -16654872.893 9   6086376.831 9
 86  6 18  3 45 11.0800000  0  4G12G13G 9G 7
  21008085.413    21008089.397     7460145.775 9 -20397170.192 9
  21731496.980    21731499.779    37326102.136 9 -41397814.094 8
  23922341.021    23922343.591    80059254.331 8 -96216156.656 9
                  25045361.960                     6077485.632 9
 86  6 18  3 45 17.0800000  0  4G12G13G 9G 7
  21009553.795    21009557.564     7467861.237 9 -20391158.146 8
  21733256.267    21733258.888    37335343.649 9 -41390612.925 9
  23927035.589    23927040.726    80083925.494 9 -96196932.379 9
  25043144.727    25043195.997   -16702604.934 9   6068617.160 9
 86  6 18  3 45 23.0800000  0  4G12G13G 9G 7
  21011026.382    21011029.750     7475601.342 8 -20385126.894 8
  21735014.857    21735017.866    37344587.641 9 -41383409.814 9
  23931731.507    23931734.714    80108599.794 8 -96177705.662 9
  25041032.971    25041036.205   -16713952.237 9   6059775.154 9
 86  6 18  3 45 29.0800000  0  4G12G13G 9G 7
  21012503.491    21012508.264     7483366.184 9 -20379076.370 8
  21736774.382    21736777.334    37353834.121 9 -41376204.747 9
  23936427.932    23936430.418    80133277.105 9 -96158476.590 8
  25038880.268    25038882.443   -16725266.805 9   6050958.227 9
 86  6 18  3 45 35.0800000  0  4G12G13G 9G 7
  21013986.841    21013990.811     7491155.753 9 -20373006.577 9
  21738535.141    21738537.635    37363083.094 9 -41368997.766 9
  23941122.942    23941127.349    80157957.416 8 -96139245.177 9
  25036731.257    25036734.784   -16736553.827 9   6042163.149 9
 86  6 18  3 45 41.0800000  0  4G12G13G 9G 7
  21015473.507    21015477.479     7498970.059 9 -20366917.516 9
  21740295.012    21740298.375    37372334.574 8 -41361788.818 9
  23945819.942    23945823.847    80182640.746 8 -96120011.419 9
  25034587.868    25034590.995   -16747817.417 9   6033386.329 9
 86  6 18  3 45 47.0800000  0  4G12G13G 9G 7
  21016964.669    21016969.498     7506809.017 8 -20360809.229 9
  21742056.414    21742058.647    37381588.539 9 -41354577.929 9
  23950516.865    23950522.078    80207327.020 8 -96100775.371 9
  25032447.363    25032450.947   -16759060.753 9   6024625.287 9
 86  6 18  3 45 53.0800000  0  4G12G13G 9G 7
  21018460.581    21018465.225     7514672.621 9 -20354681.748 8
  21743817.325    21743820.686    37390845.028 9 -41347365.081 9
  23955216.178    23955220.322    80232016.203 8 -96081537.058 8
  25030311.502    25030314.901   -16770286.157 9   6015878.234 9
 86  6 18  3 45 59.0800000  0  4G12G13G 9G 7
  21019962.017    21019967.260     7522560.871 9 -20348535.060 8
  21745579.906    21745583.006    37400103.911 9 -41340150.371 9
  23959915.566    23959918.810    80256708.310 9 -96062296.460 8
  25028179.298    25028182.124   -16781495.135 9   6007143.965 9
 86  6 18  3 46  5.0800000  0  4G12G13G 9G 7
  21021468.259    21021472.231     7530473.750 9 -20342369.190 8
  21747341.965    21747345.904    37409365.308 9 -41332933.693 9
  23964615.045    23964618.170    80281403.339 9 -96043053.584 9
  25026049.768    25026053.768   -16792686.544 9   5998423.391 9
 86  6 18  3 46 11.0800000  0  4G12G13G 9G 7
  21022979.169    21022983.568     7538411.242 8 -20336184.135 8
  21749105.153    21749109.037    37418629.248 9 -41325715.034 9
  23969314.241    23969317.680    80306101.338 9 -96023808.403 9
                  25023929.032                     5989720.617 9
 86  6 18  3 46 17.0800000  0  4G12G13G 9G 7
  21024493.597    21024498.524     7546373.304 8 -20329979.923 9
  21750868.106    21750871.597    37427895.536 9 -41318494.550 8
  23974015.038    23974018.413    80330802.017 8 -96004561.121 9
  25021807.178    25021807.860   -16840174.579 9   5981041.304 9
 86  6 18  3 46 23.0800000  0  4G12G13G 9G 7
  21026013.176    21026019.292     7554359.923 9 -20323756.573 8
  21752631.635    21752635.531    37437164.221 9 -41311272.198 9
  23978715.521    23978719.076    80355505.547 9 -95985311.633 9
  25019691.988    25019696.525   -16851279.135 9   5972388.416 9
 86  6 18  3 46 29.0800000  0  4G12G13G 9G 7
  21027538.449    21027542.362     7562371.050 9 -20317514.157 8
  21754395.891    21754399.971    37446435.193 9 -41304048.056 9
  23983416.608    23983420.653    80380211.644 9 -95966060.123 9
  25017585.983    25017589.609   -16862351.532 9   5963760.577 9
 86  6 18  3 46 35.0800000  0  4G12G13G 9G 7
  21029067.529    21029072.703     7570406.676 8 -20311252.629 9
  21756159.954    21756165.060    37455708.532 9 -41296822.088 9
  23988118.505    23988122.522    80404920.401 8 -95946806.556 9
  25015483.269    25015487.619   -16873396.042 9   5955154.482 9
 86  6 18  3 46 41.0800000  0  4G12G13G 9G 7
  21030602.049    21030605.819     7578466.855 9 -20304971.967 7
  21757925.476    21757929.761    37464984.201 9 -41289594.284 9
  23992820.943    23992825.389    80429631.936 8 -95927550.821 8
  25013385.656    25013390.401   -16884417.309 9   5946566.486 9
 86  6 18  3 46 47.0800000  0  4G12G13G 9G 7
  21032139.945    21032144.586     7586551.588 9 -20298672.180 8
  21759692.483    21759694.944    37474262.295 9 -41282364.596 9
  23997524.111    23997528.338    80454346.088 8 -95908293.045 8
  25011291.621    25011295.892   -16895418.458 9   5937994.165 9
 86  6 18  3 46 53.0800000  0  4G12G13G 9G 7
  21033682.791    21033687.733     7594660.800 9 -20292353.305 8
  21761458.534    21761461.980    37483542.785 9 -41275133.038 8
  24002226.931    24002232.269    80479062.924 9 -95889033.183 9
  25009200.819    25009206.650   -16906401.694 9   5929435.826 9
 86  6 18  3 46 59.0800000  0  4G12G13G 9G 7
  21035230.931    21035235.588     7602794.602 9 -20286015.284 9
  21763223.989    21763227.402    37492825.646 9 -41267899.640 9
  24006931.963    24006935.822    80503782.525 8 -95869771.166 9
  25007114.203    25007117.981   -16917368.307 9   5920890.418 9
 86  6 18  3 47  5.0800000  0  4G12G13G 9G 7
  21036784.740    21036788.250     7610952.863 8 -20279658.187 8
  21764990.898    21764994.387    37502110.848 9 -41260664.415 9
  24011635.278    24011640.185    80528504.740 8 -95850507.107 8
  25005032.710    25005034.942   -16928316.889 9   5912359.105 9
 86  6 18  3 47 11.0800000  0  4G12G13G 9G 7
  21038340.892    21038345.163     7619135.517 9 -20273282.109 9
  21766758.140    21766762.750    37511398.309 9 -41253427.435 9
  24016341.087    24016344.599    80553229.457 9 -95831241.095 8
                  25002954.746                     5903846.112 8
 86  6 18  3 47 17.0800000  0  4G12G13G 9G 7
  21039902.911    21039906.953     7627342.674 8 -20266886.918 9
  21768525.666    21768529.376    37520688.142 9 -41246188.602 9
  24021046.485    24021050.871    80577956.759 8 -95811973.067 9
  25000793.040    25000880.985   -16975567.607 9   5895356.921 9
 86  6 18  3 47 23.0800000  0  4G12G13G 9G 7
  21041468.881    21041473.982     7635574.277 9 -20260472.670 8
  21770293.534    21770297.803    37529980.398 9 -41238947.884 9
  24025752.747    24025756.134    80602686.409 9 -95792703.213 9
  24998815.747    24998815.189   -16986427.950 9   5886894.485 8
 86  6 18  3 47 29.0800000  0  4G12G13G 9G 7
  21043040.146    21043045.118     7643830.380 9 -20254039.343 8
  21772063.820    21772066.179    37539275.041 8 -41231705.293 9
  24030458.411    24030463.119    80627418.671 9 -95773431.322 9
  24996755.115    24996754.643   -16997256.548 9   5878456.991 8
 86  6 18  3 47 35.0800000  0  4G12G13G 9G 7
  21044616.131    21044620.545     7652110.916 9 -20247586.978 8
  21773832.093    21773835.579    37548572.105 9 -41224460.829 9
  24035164.894    24035169.355    80652153.358 8 -95754157.542 9
  24994699.285    24994699.773   -17008056.891 9   5870041.141 8
 86  6 18  3 47 41.0800000  0  4G12G13G 9G 7
  21046196.525    21046199.894     7660415.846 9 -20241115.628 8
  21775601.224    21775605.236    37557871.465 9 -41217214.579 9
  24039872.395    24039877.537    80676890.530 8 -95734881.846 9
  24992647.005    24992650.546   -17018833.969 9   5861643.421 8
 86  6 18  3 47 47.0800000  0  4G12G13G 9G 7
  21047780.868    21047785.268     7668745.193 8 -20234625.199 9
  21777371.433    21777375.838    37567173.130 9 -41209966.516 9
  24044580.421    24044584.427    80701630.243 9 -95715604.154 8
  24990599.245    24990604.410   -17029590.835 9   5853261.467 8
 86  6 18  3 47 53.0800000  0  4G12G13G 9G 7
  21049370.763    21049375.507     7677098.950 9 -20228115.774 9
  21779141.995    21779145.348    37576477.145 9 -41202716.643 9
  24049288.218    24049293.186    80726372.317 8 -95696324.616 8
  24988555.728    24988561.309   -17040329.832 9   5844893.445 8
 86  6 18  3 47 59.0800000  0  4G12G13G 9G 7
  21050965.637    21050969.392     7685477.078 9 -20221587.383 8
  21780913.028    21780917.260    37585783.388 9 -41195465.015 9
  24053996.975    24054001.711    80751116.818 9 -95677043.198 9
  24986515.695    24986519.516   -17051051.966 9   5836538.518 8
 86  6 18  3 48  5.0800000  0  4G12G13G 9G 7
  21052564.288    21052567.658     7693879.551 9 -20215040.000 8
  21782685.530    21782688.693    37595091.965 9 -41188211.583 8
  24058706.666    24058711.496    80775863.715 8 -95657759.911 8
  24984478.796    24984483.197   -17061755.751 9   5828197.928 9
 86  6 18  3 48 11.0800000  0  4G12G13G 9G 7
  21054167.978    21054172.405     7702306.364 8 -20208473.663 8
  21784455.971    21784460.434    37604402.805 9 -41180956.382 9
  24063415.670    24063420.394    80800612.891 7 -95638474.837 8
                  24982451.935                     5819876.245 8
 86  6 18  3 48 17.0800000  0  4G12G13G 9G 7
  21055775.558    21055780.316     7710757.497 9 -20201888.372 9
  21786229.113    21786231.830    37613715.867 9 -41173699.447 8
  24068126.574    24068129.949    80825364.217 8 -95619188.095 9
  24980421.393    24980422.957   -17108754.639 8   5811578.852 9
 86  6 18  3 48 23.0800000  0  4G12G13G 9G 7
  21057388.403    21057393.378     7719232.923 9 -20195284.140 8
  21788001.227    21788005.792    37623031.189 9 -41166440.763 9
  24072836.460    24072840.241    80850117.798 7 -95599899.613 9
  24978401.785    24978404.345   -17119368.589 9   5803308.251 9
 86  6 18  3 48 29.0800000  0  4G12G13G 9G 7
  21059005.545    21059009.773     7727732.625 9 -20188661.000 9
  21789775.388    21789777.868    37632348.723 9 -41159180.338 8
  24077548.722    24077551.587    80874873.642 9 -95580609.348 8
  24976389.018    24976388.860   -17129950.515 9   5795062.598 8
 86  6 18  3 48 35.0800000  0  4G12G13G 9G 7
  21060628.177    21060632.365     7736256.605 9 -20182018.939 9
  21791548.520    21791551.217    37641668.487 9 -41151918.183 8
  24082259.347    24082263.265    80899631.714 8 -95561317.350 9
  24974379.385    24974379.800   -17140504.899 9   5786838.399 8
 86  6 18  3 48 41.0800000  0  4G12G13G 9G 7
  21062254.477    21062258.346     7744804.827 9 -20175357.985 8
  21793321.893    21793325.275    37650990.499 9 -41144654.274 9
  24086970.453    24086975.070    80924392.085 8 -95542023.552 8
  24972374.667    24972375.233   -17151036.040 9   5778632.297 8
 86  6 18  3 48 47.0800000  0  4G12G13G 9G 7
  21063885.581    21063889.681     7753377.283 9 -20168678.131 9
  21795096.627    21795099.376    37660314.822 9 -41137388.559 9
  24091682.319    24091687.777    80949154.505 9 -95522728.160 9
  24970373.878    24970374.208   -17161546.900 9   5770442.038 8
 86  6 18  3 48 53.0800000  0  4G12G13G 9G 7
  21065521.696    21065526.282     7761974.018 8 -20161979.395 8
  21796869.711    21796874.303    37669641.321 9 -41130121.165 9
  24096395.195    24096400.252    80973919.092 8 -95503431.081 8
  24968376.715    24968379.071   -17172039.741 9   5762265.803 8
 86  6 18  3 48 59.0800000  0  4G12G13G 9G 7
  21067161.301    21067166.901     7770595.028 9 -20155261.707 9
  21798645.555    21798649.561    37678970.087 9 -41122851.995 9
  24101108.224    24101113.296    80998685.845 9 -95484132.324 9
  24966383.597    24966387.289   -17182515.779 9   5754102.675 8
 86  6 18  3 49  5.0800000  0  4G12G13G 9G 7
  21068807.027    21068811.286     7779240.267 9 -20148525.159 9
  21800421.192    21800425.457    37688301.157 9 -41115581.027 9
  24105822.169    24105825.206    81023454.716 8 -95464831.908 9
  24964394.368    24964396.486   -17192972.841 9   5745954.307 9
 86  6 18  3 49 11.0800000  0  4G12G13G 9G 7
  21070456.678    21070461.866     7787909.744 9 -20141769.726 7
  21802197.885    21802200.988    37697634.473 9 -41108308.315 8
  24110535.845    24110539.579    81048225.617 8 -95445529.927 9
                  24962411.229                     5737825.278 8
 86  6 18  3 49 17.0800000  0  4G12G13G 9G 7
  21072111.738    21072116.281     7796603.434 9 -20134995.448 9
  21803974.632    21803977.250    37706969.973 9 -41101033.897 9
  24115249.457    24115254.261    81072998.604 8 -95426226.300 8
  24960428.992    24960433.854   -17239731.947 9   5729721.108 9
 86  6 18  3 49 23.0800000  0  4G12G13G 9G 7
  21073770.201    21073774.387     7805321.298 9 -20128202.299 8
  21805751.267    21805755.224    37716307.763 9 -41093757.703 9
  24119964.047    24119968.764    81097773.592 9 -95406921.128 8
  24958457.414    24958462.394   -17250097.654 9   5721643.917 9
 86  6 18  3 49 29.0800000  0  4G12G13G 9G 7
  21075434.161    21075438.333     7814063.332 8 -20121390.315 8
  21807529.191    21807532.529    37725647.711 9 -41086479.822 9
  24124679.605    24124683.578    81122550.636 9 -95387614.349 9
  24956490.323    24956495.696   -17260431.040 9   5713591.584 9
 86  6 18  3 49 35.0800000  0  4G12G13G 9G 7
  21077102.069    21077106.312     7822829.582 9 -20114559.464 9
  21809306.224    21809309.491    37734989.817 9 -41079200.252 9
  24129393.948    24129398.701    81147329.635 8 -95368306.033 8
  24954529.084    24954534.562   -17270737.353 9   5705560.705 9
 86  6 18  3 49 41.0800000  0  4G12G13G 9G 7
  21078774.641    21078779.000     7831619.982 9 -20107709.838 9
  21811085.289    21811088.077    37744334.147 9 -41071918.952 9
  24134109.573    24134114.267    81172110.661 9 -95348996.153 8
  24952571.779    24952576.631   -17281020.582 9   5697547.816 9
 86  6 18  3 49 47.0800000  0  4G12G13G 9G 7
  21080452.110    21080456.996     7840434.521 9 -20100841.359 9
  21812862.955    21812866.401    37753680.710 8 -41064635.921 9
  24138825.688    24138830.115    81196893.572 8 -95329684.804 9
  24950619.542    24950622.447   -17291283.555 9   5689550.678 8
 86  6 18  3 49 53.0800000  0  4G12G13G 9G 7
  21082134.728    21082139.558     7849273.221 9 -20093954.048 9
  21814641.406    21814645.382    37763029.470 9 -41057351.172 8
  24143541.831    24143547.307    81221678.452 8 -95310371.921 8
  24948669.899    24948672.469   -17301528.414 9   5681567.710 9
 86  6 18  3 49 59.0800000  0  4G12G13G 9G 7
  21083820.723    21083825.266     7858136.072 9 -20087047.932 9
  21816421.146    21816425.252    37772380.339 9 -41050064.774 9
  24148259.757    24148263.641    81246465.101 8 -95291057.648 8
  24946723.721    24946725.509   -17311756.154 9   5673598.026 9
 86  6 18  3 50  5.0800000  0  4G12G13G 9G 7
  21085511.725    21085516.043     7867022.960 8 -20080123.085 8
  21818201.533    21818205.377    37781733.419 9 -41042776.669 9
  24152976.319    24152980.809    81271253.693 9 -95271741.877 8
  24944781.635    24944784.112   -17321964.507 9   5665643.494 8
 86  6 18  3 50 11.0800000  0  4G12G13G 9G 7
  21087206.736    21087212.268     7875933.865 8 -20073179.515 7
  21819982.834    21819985.396    37791088.650 9 -41035486.870 9
  24157694.241    24157698.195    81296044.027 8 -95252424.725 7
                  24942845.860                     5657708.834 8
 86  6 18  3 50 17.0800000  0  4G12G13G 9G 7
  21088907.242    21088912.586     7884868.820 8 -20066217.239 9
  21821762.392    21821765.847    37800445.970 9 -41028195.453 9
  24162412.721    24162415.796    81320836.014 9 -95233106.292 8
  24940911.170    24940914.878   -17368475.263 9   5649799.366 7
 86  6 18  3 50 23.0800000  0  4G12G13G 9G 7
  21090611.466    21090617.098     7893827.710 9 -20059236.269 8
  21823543.415    21823547.650    37809805.382 9 -41020902.399 9
  24167130.064    24167133.521    81345629.796 8 -95213786.471 8
  24938987.015    24938991.400   -17378591.160 9   5641916.851 9
 86  6 18  3 50 29.0800000  0  4G12G13G 9G 7
  21092321.617    21092326.902     7902810.548 9 -20052236.685 8
  21825325.221    21825328.741    37819166.935 9 -41013607.694 9
  24171848.340    24171852.320    81370425.140 8 -95194465.431 9
  24937069.162    24937072.538   -17388675.673 9   5634059.203 9
 86  6 18  3 50 35.0800000  0  4G12G13G 9G 7
  21094035.828    21094039.986     7911817.245 8 -20045218.472 9
  21827106.773    21827110.714    37828530.585 9 -41006311.340 8
  24176567.338    24176570.396    81395222.098 8 -95175143.130 7
  24935154.134    24935158.377   -17398732.540 9   5626222.698 9
 86  6 18  3 50 41.0800000  0  4G12G13G 9G 7
  21095754.307    21095758.921     7920847.952 9 -20038181.568 8
  21828888.547    21828892.210    37837896.320 9 -40999013.348 9
  24181285.406    24181288.852    81420020.763 8 -95155819.501 9
  24933244.830    24933249.724   -17408766.455 9   5618404.091 8
 86  6 18  3 50 47.0800000  0  4G12G13G 9G 7
  21097476.731    21097481.347     7929902.564 9 -20031126.025 9
  21830671.587    21830674.951    37847264.118 9 -40991713.763 8
  24186005.259    24186008.302    81444821.026 8 -95136494.625 8
  24931339.519    24931342.974   -17418780.151 9   5610601.206 9
 86  6 18  3 50 53.0800000  0  4G12G13G 9G 7
  21099205.312    21099209.368     7938981.121 9 -20024051.826 9
  21832455.187    21832458.136    37856634.029 9 -40984412.533 9
  24190724.527    24190729.281    81469622.903 9 -95117168.474 8
  24929437.083    24929440.060   -17428775.792 9   5602812.391 9
 86  6 18  3 50 59.0800000  0  4G12G13G 9G 7
  21100936.238    21100941.081     7948083.579 9 -20016959.014 9
  21834237.819    21834241.008    37866006.076 9 -40977109.648 9
  24195443.870    24195449.082    81494426.317 8 -95097841.165 9
  24927539.305    24927542.201   -17438754.085 9   5595037.105 9
 86  6 18  3 51  5.0800000  0  4G12G13G 9G 7
  21102673.662    21102677.747     7957209.953 9 -20009847.555 8
  21836021.810    21836025.158    37875380.186 8 -40969805.146 9
  24200164.876    24200168.980    81519231.369 8 -95078512.561 9
  24925643.602    24925646.364   -17448712.513 9   5587277.292 8
 86  6 18  3 51 11.0800000  0  4G12G13G 9G 7
  21104414.460    21104418.402     7966360.230 9 -20002717.455 8
  21837806.030    21837809.708    37884756.373 9 -40962499.024 9
  24204885.762    24204889.420    81544038.028 9 -95059182.708 9
                  24923756.271                     5579537.983 9
 86  6 18  3 51 17.0800000  0  4G12G13G 9G 7
  21106160.010    21106163.808     7975534.470 9 -19995568.689 8
  21839590.284    21839594.855    37894134.702 9 -40955191.231 9
  24209606.654    24209610.006    81568846.174 9 -95039851.681 9
  24921869.557    24921872.294   -17494966.822 9   5571824.334 9
 86  6 18  3 51 23.0800000  0  4G12G13G 9G 7
  21107910.854    21107914.581     7984732.628 9 -19988401.307 9
  21841375.378    21841380.127    37903515.118 9 -40947881.815 8
  24214328.573    24214331.034    81593655.875 9 -95020519.447 8
  24919992.814    24919996.989   -17504831.181 9   5564137.805 9
 86  6 18  3 51 29.0800000  0  4G12G13G 9G 7
  21109665.764    21109669.318     7993954.797 8 -19981215.201 9
  21843160.774    21843165.429    37912897.636 9 -40940570.756 9
  24219048.358    24219052.552    81618467.106 8 -95001186.030 8
  24918120.400    24918126.027   -17514663.934 9   5556475.936 9
 86  6 18  3 51 35.0800000  0  4G12G13G 9G 7
  21111425.221    21111429.264     8003200.885 9 -19974010.454 8
  21844946.494    21844950.780    37922282.258 9 -40933258.063 9
  24223771.146    24223774.806    81643279.923 8 -94981851.380 7
  24916254.666    24916260.223   -17524469.422 9   5548835.307 9
 86  6 18  3 51 41.0800000  0  4G12G13G 9G 7
  21113188.686    21113193.374     8012470.846 9 -19966787.098 8
  21846732.985    21846736.592    37931669.012 9 -40925943.709 9
  24228493.221    24228496.995    81668094.067 9 -94962515.679 8
  24914393.243    24914398.460   -17534251.930 9   5541212.581 9
 86  6 18  3 51 47.0800000  0  4G12G13G 9G 7
  21114958.619    21114961.488     8021764.706 8 -19959545.142 8
  21848519.621    21848523.647    37941057.773 8 -40918627.785 9
  24233215.666    24233219.196    81692909.699 9 -94943178.818 9
  24912535.123    24912540.184   -17544014.323 9   5533605.536 9
 86  6 18  3 51 53.0800000  0  4G12G13G 9G 7
  21116730.985    21116735.157     8031082.285 9 -19952284.688 8
  21850306.600    21850310.500    37950448.547 9 -40911310.301 9
  24237937.829    24237941.401    81717726.578 9 -94923841.005 8
  24910681.389    24910684.990   -17553758.656 9   5526012.550 9
 86  6 18  3 51 59.0800000  0  4G12G13G 9G 7
  21118508.130    21118511.428     8040423.616 8 -19945005.730 8
  21852094.530    21852097.865    37959841.365 9 -40903991.209 9
  24242659.693    24242665.454    81742544.855 8 -94904502.109 8
  24908831.217    24908834.240   -17563485.305 9   5518433.352 9
 86  6 18  3 52  5.0800000  0  4G12G13G 9G 7
  21120290.627    21120294.083     8049788.680 9 -19937708.278 9
  21853881.962    21853885.830    37969236.131 9 -40896670.617 9
  24247384.378    24247387.009    81767364.373 9 -94885162.223 9
  24906984.316    24906986.838   -17573191.723 9   5510869.908 9
 86  6 18  3 52 11.0800000  0  4G12G13G 9G 7
  21122077.387    21122082.188     8059177.415 9 -19930392.377 8
  21855670.811    21855673.310    37978632.830 9 -40889348.510 9
  24252106.669    24252110.808    81792185.232 9 -94865821.308 9
                  24905145.525                     5503327.499 8
 86  6 18  3 52 17.0800000  0  4G12G13G 9G 7
  21123868.182    21123872.196     8068589.872 8 -19923058.010 8
  21857459.314    21857462.623    37988031.546 9 -40882024.825 9
  24256830.851    24256834.028    81817007.315 8 -94846479.437 8
  24903306.364    24903308.782   -17619190.114 9   5495811.159 9
 86  6 18  3 52 23.0800000  0  4G12G13G 9G 7
  21125664.445    21125668.215     8078025.985 9 -19915705.176 9
  21859247.343    21859250.203    37997432.204 9 -40874699.646 8
  24261554.675    24261558.334    81841830.641 9 -94827136.588 8
  24901477.186    24901480.541   -17628801.232 9   5488321.975 9
 86  6 18  3 52 29.0800000  0  4G12G13G 9G 7
  21127463.941    21127468.356     8087485.798 9 -19908333.905 8
  21861037.299    21861040.715    38006834.862 9 -40867372.900 9
  24266277.624    24266282.281    81866655.053 8 -94807792.891 8
  24899653.866    24899656.899   -17638380.896 9   5480857.314 9
 86  6 18  3 52 35.0800000  0  4G12G13G 9G 7
  21129269.045    21129273.045     8096969.309 8 -19900944.154 8
  21862826.459    21862829.544    38016239.547 9 -40860044.577 9
  24271002.485    24271005.426    81891480.650 8 -94788448.295 9
  24897835.704    24897839.089   -17647933.556 9   5473413.687 8
 86  6 18  3 52 41.0800000  0  4G12G13G 9G 7
  21131078.615    21131081.741     8106476.473 9 -19893535.978 8
  21864615.917    21864619.839    38025646.144 9 -40852714.761 9
  24275725.908    24275730.845    81916307.308 9 -94769102.848 8
  24896022.423    24896025.807   -17657463.395 9   5465987.848 9
 86  6 18  3 52 47.0800000  0  4G12G13G 9G 7
  21132891.103    21132895.203     8116007.193 9 -19886109.440 9
  21866407.192    21866410.388    38035054.630 8 -40845383.466 9
  24280450.967    24280455.123    81941135.056 8 -94749756.569 9
  24894213.061    24894216.647   -17666973.007 9   5458577.764 9
 86  6 18  3 52 53.0800000  0  4G12G13G 9G 7
  21134710.346    21134713.872     8125561.526 9 -19878664.501 8
  21868197.450    21868200.504    38044465.064 9 -40838050.671 9
  24285175.405    24285180.100    81965963.883 8 -94730409.427 8
  24892406.505    24892410.467   -17676464.569 9   5451181.736 9
 86  6 18  3 52 59.0800000  0  4G12G13G 9G 7
  21136532.022    21136536.234     8135139.606 8 -19871201.076 8
  21869988.271    21869991.803    38053877.532 9 -40830716.275 9
  24289900.394    24289905.429    81990793.892 8 -94711061.382 9
  24890603.974    24890607.788   -17685938.220 9   5443799.690 9
 86  6 18  3 53  5.0800000  0  4G12G13G 9G 7
  21138359.935    21138362.760     8144741.313 9 -19863719.241 9
  21871780.322    21871783.919    38063291.947 9 -40823380.371 9
  24294626.853    24294630.517    82015625.043 9 -94691712.434 8
  24888805.691    24888809.117   -17695391.037 9   5436433.852 9
 86  6 18  3 53 11.0800000  0  4G12G13G 9G 7
  21140189.994    21140194.910     8154366.664 9 -19856218.967 8
  21873572.126    21873575.338    38072708.459 9 -40816042.822 8
  24299352.130    24299355.538    82040457.252 9 -94672362.669 9
                  24887015.646                     5429089.632 9
 86  6 18  3 53 17.0800000  0  4G12G13G 9G 7
  21142026.838    21142031.938     8164015.644 8 -19848700.287 8
  21875364.295    21875367.502    38082127.060 9 -40808703.654 8
  24304077.275    24304081.741    82065290.573 8 -94653012.041 9
  24885224.408    24885229.444   -17741139.794 9   5421771.850 9
 86  6 18  3 53 23.0800000  0  4G12G13G 9G 7
  21143867.430    21143872.316     8173688.271 9 -19841163.175 8
  21877156.493    21877161.096    38091547.779 9 -40801362.829 9
  24308804.002    24308807.103    82090124.967 8 -94633660.568 9
  24883444.560    24883448.608   -17750495.933 9   5414481.361 9
 86  6 18  3 53 29.0800000  0  4G12G13G 9G 7
  21145713.230    21145717.215     8183384.526 9 -19833607.649 9
  21878949.647    21878954.005    38100970.486 9 -40794020.455 9
  24313528.955    24313532.628    82114960.338 9 -94614308.346 9
  24881669.498    24881673.724   -17759820.060 9   5407215.430 9
 86  6 18  3 53 35.0800000  0  4G12G13G 9G 7
  21147562.378    21147568.422     8193104.410 8 -19826033.714 9
  21880743.969    21880746.821    38110395.157 9 -40786676.553 9
  24318255.699    24318259.056    82139796.748 9 -94594955.300 8
  24879900.138    24879904.543   -17769117.931 9   5399970.342 9
 86  6 18  3 53 41.0800000  0  4G12G13G 9G 7
  21149416.909    21149421.294     8202847.864 9 -19818441.411 9
  21882537.833    21882540.324    38119821.760 9 -40779331.142 9
  24322982.119    24322984.679    82164634.080 9 -94575601.539 8
  24878136.016    24878139.056   -17778392.842 9   5392743.150 9
 86  6 18  3 53 47.0800000  0  4G12G13G 9G 7
  21151274.900    21151280.443     8212614.869 9 -19810830.759 9
  21884331.576    21884335.047    38129250.316 9 -40771984.221 9
  24327706.986    24327712.391    82189472.371 8 -94556247.034 9
  24876375.371    24876378.617   -17787647.444 9   5385531.774 9
 86  6 18  3 53 53.0800000  0  4G12G13G 9G 7
  21153138.700    21153143.172     8222405.439 9 -19803201.743 9
  21886126.089    21886129.589    38138680.776 9 -40764635.804 9
  24332434.912    24332438.967    82214311.518 9 -94536891.877 9
  24874618.658    24874620.526   -17796883.687 9   5378334.701 9
 86  6 18  3 53 59.0800000  0  4G12G13G 9G 7
  21155006.050    21155011.395     8232219.516 9 -19795554.410 9
  21887920.980    21887924.437    38148113.163 9 -40757285.899 9
  24337161.428    24337166.168    82239151.536 8 -94517536.035 9
  24872863.350    24872866.177   -17806101.919 9   5371151.670 9
 86  6 18  3 54  5.0800000  0  4G12G13G 9G 7
  21156878.293    21156882.064     8242057.022 9 -19787888.821 8
  21889716.739    21889719.702    38157547.433 9 -40749934.506 8
  24341889.438    24341892.976    82263992.301 9 -94498179.600 9
  24871112.292    24871116.477   -17815298.884 9   5363985.195 9
 86  6 18  3 54 11.0800000  0  4G12G13G 9G 7
  21158754.746    21158759.087     8251917.934 9 -19780205.001 9
  21891512.148    21891514.636    38166983.587 9 -40742581.657 8
  24346616.144    24346619.834    82288833.710 9 -94478822.657 9
                  24869370.613                     5356840.616 9
 86  6 18  3 54 17.0800000  0  4G12G13G 9G 7
  21160635.374    21160639.716     8261802.260 9 -19772502.934 9
  21893308.413    21893311.881    38176421.606 8 -40735227.365 9
  24351344.247    24351347.493    82313675.966 8 -94459465.058 8
  24867630.015    24867632.789   -17860795.369 9   5349722.744 9
 86  6 18  3 54 23.0800000  0  4G12G13G 9G 7
  21162521.211    21162525.812     8271709.892 9 -19764782.710 8
  21895104.337    21895107.605    38185861.490 9 -40727871.606 9
  24356070.937    24356074.507    82338518.921 8 -94440106.924 9
  24865899.162    24865902.438   -17869895.095 9   5342632.057 9
 86  6 18  3 54 29.0800000  0  4G12G13G 9G 7
  21164410.740    21164415.040     8281640.872 9 -19757044.281 9
  21896901.282    21896904.136    38195303.276 9 -40720514.359 8
  24360798.648    24360802.942    82363362.528 8 -94420748.263 8
  24864173.802    24864175.963   -17878963.616 9   5335565.686 9
 86  6 18  3 54 35.0800000  0  4G12G13G 9G 7
  21166304.904    21166310.020     8291595.208 8 -19749287.658 8
  21898698.393    21898700.294    38204746.847 8 -40713155.737 9
  24365525.364    24365531.107    82388206.766 9 -94401389.128 8
  24862452.472    24862455.769   -17888005.492 9   5328520.065 9
 86  6 18  3 54 41.0800000  0  4G12G13G 9G 7
  21168203.737    21168207.992     8301572.877 9 -19741512.850 9
  21900495.510    21900497.878    38214192.251 9 -40705795.676 9
  24370254.719    24370258.271    82413051.617 8 -94382029.508 9
  24860736.621    24860738.925   -17897024.443 9   5321492.309 9
 86  6 18  3 54 47.0800000  0  4G12G13G 9G 7
  21170106.542    21170112.161     8311573.855 9 -19733719.889 9
  21902292.999    21902296.224    38223639.436 9 -40698434.234 8
  24374982.018    24374985.984    82437897.069 8 -94362669.422 9
  24859024.411    24859026.615   -17906023.194 9   5314480.301 9
 86  6 18  3 54 53.0800000  0  4G12G13G 9G 7
  21172014.275    21172018.803     8321598.233 9 -19725908.695 9
  21904091.369    21904094.476    38233088.395 9 -40691071.403 9
  24379710.158    24379713.627    82462743.033 9 -94343308.935 9
  24857315.093    24857317.841   -17915003.621 9   5307482.565 9
 86  6 18  3 54 59.0800000  0  4G12G13G 9G 7
  21173925.841    21173931.241     8331645.932 8 -19718079.313 8
  21905889.341    21905892.757    38242539.123 9 -40683707.190 9
  24384438.737    24384442.881    82487589.666 9 -94323947.931 9
  24855609.373    24855612.630   -17923965.802 9   5300499.053 8
 86  6 18  3 55  5.0800000  0  4G12G13G 9G 7
  21175842.412    21175847.757     8341716.877 9 -19710231.843 8
  21907688.639    21907691.287    38251991.689 9 -40676341.547 8
  24389166.216    24389170.821    82512436.818 8 -94304586.531 9
  24853907.495    24853909.964   -17932906.378 9   5293532.366 9
 86  6 18  3 55 11.0800000  0  4G12G13G 9G 7
  21177762.937    21177768.796     8351811.051 9 -19702366.246 9
  21909487.451    21909490.523    38261446.163 9 -40668974.430 9
  24393894.259    24393898.721    82537284.439 8 -94285224.759 8
                  24852215.169                     5286588.201 9
 86  6 18  3 55 17.0800000  0  4G12G13G 9G 7
  21179689.038    21179693.697     8361928.471 9 -19694482.543 8
  21911287.086    21911289.578    38270902.352 9 -40661605.969 8
  24398622.115    24398627.574    82562132.524 9 -94265862.626 9
  24850522.828    24850525.205   -17978146.652 9   5279670.984 9
 86  6 18  3 55 23.0800000  0  4G12G13G 9G 7
  21181619.033    21181622.877     8372069.146 9 -19686580.726 9
  21913087.179    21913090.476    38280360.388 9 -40654236.060 8
  24403351.669    24403355.953    82586981.065 8 -94246500.132 8
  24848839.818    24848843.131   -17986988.914 9   5272780.920 9
 86  6 18  3 55 29.0800000  0  4G12G13G 9G 7
  21183553.180    21183556.980     8382232.998 9 -19678660.854 8
  21914887.018    21914889.463    38289820.236 9 -40646864.751 9
  24408079.562    24408085.034    82611830.131 8 -94227137.233 9
  24847163.668    24847166.360   -17995800.426 9   5265915.197 9
 86  6 18  3 55 35.0800000  0  4G12G13G 9G 7
  21185491.876    21185496.017     8392420.020 9 -19670722.913 8
  21916688.074    21916690.332    38299281.954 9 -40639491.991 9
  24412808.903    24412813.879    82636679.542 7 -94207774.074 9
  24845491.839    24845494.936   -18004584.975 9   5259070.099 9
 86  6 18  3 55 41.0800000  0  4G12G13G 9G 7
  21187434.150    21187438.735     8402630.237 9 -19662766.903 8
  21918488.759    21918491.549    38308745.408 9 -40632117.863 9
  24417536.931    24417542.159    82661529.292 8 -94188410.644 8
  24843824.840    24843826.499   -18013346.819 9   5252242.695 9
 86  6 18  3 55 47.0800000  0  4G12G13G 9G 7
  21189382.203    21189386.188     8412863.590 9 -19654792.867 9
  21920289.425    21920292.614    38318210.722 9 -40624742.291 9
  24422265.258    24422270.693    82686379.547 8 -94169046.822 9
  24842161.196    24842164.667   -18022088.314 9   5245431.140 9
 86  6 18  3 55 53.0800000  0  4G12G13G 9G 7
  21191333.920    21191338.278     8423120.070 9 -19646800.801 9
  21922091.388    21922094.289    38327677.836 9 -40617365.313 9
  24426993.972    24426999.526    82711230.058 8 -94149682.790 9
  24840501.717    24840504.093   -18030811.424 9   5238633.911 9
 86  6 18  3 55 59.0800000  0  4G12G13G 9G 7
  21193290.558    21193293.956     8433399.756 8 -19638790.661 8
  21923892.677    21923896.240    38337146.830 9 -40609986.885 9
  24431723.155    24431728.996    82736080.992 8 -94130318.440 8
  24838844.842    24838847.218   -18039515.886 9   5231851.221 9
 86  6 18  3 56  5.0800000  0  4G12G13G 9G 7
  21195250.689    21195255.363     8443702.619 9 -19630762.452 9
  21925695.244    21925699.192    38346617.674 9 -40602607.006 9
  24436453.241    24436457.988    82760932.319 8 -94110953.769 9
                  24837195.924                     5225085.940 8
 86  6 18  3 56 11.0800000  0  4G12G13G 9G 7
  21197216.230    21197219.098     8454028.660 9 -19622716.194 7
  21927498.361    21927500.629    38356090.368 9 -40595225.676 9
  24441181.903    24441186.750    82785784.017 9 -94091588.825 9
  24835571.559    24835549.623   -18084560.148 9   5218343.600 8
 86  6 18  3 56 17.0800000  0  4G12G13G 9G 7
  21199185.146    21199188.473     8464377.920 9 -19614651.831 9
  21929300.909    21929303.735    38365564.848 8 -40587842.966 9
  24445911.398    24445915.513    82810635.869 8 -94072223.757 8
  24833905.769    24833909.669   -18093178.054 9   5211628.754 9
 86  6 18  3 56 23.0800000  0  4G12G13G 9G 7
  21201158.470    21201163.154     8474750.290 9 -19606569.469 9
  21931105.737    21931107.735    38375041.108 9 -40580458.868 9
  24450640.045    24450644.865    82835487.945 8 -94052858.516 8
  24832273.289    24832276.302   -18101760.686 9   5204940.993 9
 86  6 18  3 56 29.0800000  0  4G12G13G 9G 7
  21203137.403    21203141.487     8485145.726 9 -19598469.131 9
  21932908.021    21932910.933    38384519.245 9 -40573073.305 9
  24455370.495    24455374.814    82860340.323 8 -94033493.042 9
  24830646.099    24830649.341   -18110312.323 9   5198277.391 9
 86  6 18  3 56 35.0800000  0  4G12G13G 9G 7
  21205119.456    21205123.582     8495564.217 8 -19590350.842 8
  21934711.714    21934714.693    38393999.168 9 -40565686.340 9
  24460098.484    24460104.794    82885192.949 8 -94014127.375 9
  24829023.709    24829027.157   -18118837.470 9   5191634.419 9
 86  6 18  3 56 41.0800000  0  4G12G13G 9G 7
  21207106.630    21207110.100     8506005.700 9 -19582214.623 7
  21936515.839    21936519.121    38403480.769 9 -40558298.090 9
  24464828.372    24464832.690    82910045.564 8 -93994761.698 8
  24827406.177    24827408.945   -18127339.897 9   5185009.155 9
 86  6 18  3 56 47.0800000  0  4G12G13G 9G 7
  21209097.467    21209102.339     8516470.254 9 -19574060.418 8
  21938320.266    21938324.342    38412964.110 9 -40550908.469 8
  24469557.138    24469563.281    82934898.402 8 -93975395.875 9
  24825791.672    24825793.789   -18135822.108 9   5178399.635 9
 86  6 18  3 56 53.0800000  0  4G12G13G 9G 7
  21211093.228    21211096.870     8526957.806 9 -19565888.308 8
  21940125.565    21940128.782    38422449.125 8 -40543517.545 9
  24474287.869    24474291.505    82959751.288 9 -93956029.988 8
  24824180.629    24824183.311   -18144285.792 9   5171804.562 9
 86  6 18  3 56 59.0800000  0  4G12G13G 9G 7
  21213092.996    21213097.067     8537468.220 9 -19557698.374 8
  21941931.096    21941934.133    38431935.914 9 -40536125.237 9
  24479016.797    24479021.023    82984604.131 8 -93936664.156 9
  24822572.934    24822576.602   -18152730.802 9   5165224.041 9
 86  6 18  3 57  5.0800000  0  4G12G13G 9G 7
  21215097.887    21215101.785     8548001.563 9 -19549490.578 8
  21943736.524    21943739.786    38441424.330 9 -40528731.665 9
  24483745.891    24483750.350    83009457.106 8 -93917298.210 9
                  24820974.146                     5158661.456 9
 86  6 18  3 57 11.0800000  0  4G12G13G 9G 7
  21217106.668    21217110.496     8558557.838 9 -19541264.913 8
  21945542.609    21945544.983    38450914.494 9 -40521336.723 8
  24488475.615    24488479.955    83034309.919 8 -93897932.389 9
  24819385.047    24819377.735   -18197517.525 9   5152122.174 9
 86  6 18  3 57 17.0800000  0  4G12G13G 9G 7
  21219119.371    21219123.140     8569136.980 9 -19533021.440 8
  21947348.642    21947351.811    38460406.401 9 -40513940.437 8
  24493205.055    24493208.980    83059162.733 8 -93878566.566 8
  24817782.990    24817787.612   -18205874.608 9   5145610.412 9
 86  6 18  3 57 23.0800000  0  4G12G13G 9G 7
  21221136.710    21221141.611     8579738.975 9 -19524760.126 9
  21949153.329    21949157.876    38469900.007 9 -40506542.816 9
  24497934.220    24497938.887    83084015.681 9 -93859200.653 9
  24816199.686    24816204.530   -18214196.490 9   5139125.839 9
 86  6 18  3 57 29.0800000  0  4G12G13G 9G 7
  21223158.885    21223162.310     8590363.923 9 -19516480.948 8
  21950961.143    21950965.013    38479395.281 9 -40499143.888 9
  24502663.512    24502667.315    83108868.435 8 -93839834.869 9
  24814622.441    24814627.106   -18222487.524 9   5132665.300 9
 86  6 18  3 57 35.0800000  0  4G12G13G 9G 7
  21225184.466    21225189.883     8601011.742 9 -19508183.962 9
  21952768.296    21952772.058    38488892.249 9 -40491743.663 9
  24507392.794    24507396.801    83133721.091 8 -93820469.176 9
  24813049.504    24813053.625   -18230752.408 9   5126225.128 9
 86  6 18  3 57 41.0800000  0  4G12G13G 9G 7
  21227214.941    21227219.526     8611682.337 8 -19499869.223 9
  21954575.782    21954579.393    38498390.927 8 -40484342.093 9
  24512120.954    24512126.325    83158573.616 8 -93801103.588 8
  24811479.943    24811485.244   -18238994.677 9   5119802.585 9
 86  6 18  3 57 47.0800000  0  4G12G13G 9G 7
  21229250.939    21229254.723     8622375.745 9 -19491536.697 8
  21956384.184    21956386.880    38507891.232 9 -40476939.252 8
  24516852.187    24516855.954    83183426.039 8 -93781738.077 9
  24809915.090    24809920.062   -18247216.546 9   5113395.940 9
 86  6 18  3 57 53.0800000  0  4G12G13G 9G 7
  21231289.141    21231293.583     8633091.915 9 -19483186.441 9
  21958191.711    21958194.509    38517393.132 9 -40469535.179 9
  24521581.105    24521584.864    83208278.236 8 -93762372.731 9
  24808353.914    24808359.095   -18255419.792 9   5107003.812 9
 86  6 18  3 57 59.0800000  0  4G12G13G 9G 7
  21233332.866    21233337.180     8643830.867 9 -19474818.434 9
  21960000.515    21960003.775    38526896.733 9 -40462129.762 9
  24526310.202    24526314.032    83233130.262 8 -93743007.524 9
  24806797.533    24806800.931   -18263603.957 9   5100626.535 9
 86  6 18  3 58  5.0800000  0  4G12G13G 9G 7
  21235380.310    21235384.968     8654592.642 8 -19466432.631 8
  21961809.400    21961812.192    38536402.028 9 -40454723.035 9
  24531039.567    24531043.470    83257982.170 8 -93723642.418 8
                  24805248.477                     5094267.569 9
 86  6 18  3 58 11.0800000  0  4G12G13G 9G 7
  21237432.794    21237437.065     8665377.152 9 -19458029.121 8
  21963618.031    21963621.105    38545908.993 9 -40447315.012 8
  24535767.990    24535771.917    83282833.792 8 -93704277.524 9
  24803657.260    24803701.218   -18308129.771 9   5087932.435 9
 86  6 18  3 58 17.0800000  0  4G12G13G 9G 7
  21239489.538    21239494.082     8676184.413 9 -19449607.882 8
  21965428.004    21965431.538    38555417.594 9 -40439905.713 8
  24540497.263    24540501.282    83307685.229 8 -93684912.770 9
  24802157.234    24802161.190   -18316224.139 9   5081625.094 9
 86  6 18  3 58 23.0800000  0  4G12G13G 9G 7
  21241550.121    21241554.950     8687014.394 8 -19441168.934 8
  21967237.127    21967240.494    38564927.860 9 -40432495.116 9
  24545225.845    24545229.942    83332536.408 7 -93665548.235 8
  24800623.555    24800627.519   -18324283.747 9   5075344.885 9
 86  6 18  3 58 29.0800000  0  4G12G13G 9G 7
  21243615.767    21243620.155     8697867.089 8 -19432712.285 8
  21969047.845    21969050.991    38574439.852 9 -40425083.181 9
  24549953.985    24549959.383    83357387.204 7 -93646183.991 9
  24799096.164    24799099.591   -18332312.641 9   5069088.608 9
 86  6 18  3 58 35.0800000  0  4G12G13G 9G 7
  21245685.392    21245689.664     8708742.495 9 -19424237.944 9
  21970857.716    21970861.630    38583953.507 9 -40417669.936 9
  24554683.402    24554688.113    83382237.735 7 -93626819.965 9
  24797571.841    24797576.649   -18340315.499 9   5062852.625 9
 86  6 18  3 58 41.0800000  0  4G12G13G 9G 7
  21247758.308    21247763.668     8719640.632 8 -19415745.901 8
  21972669.063    21972671.984    38593468.869 9 -40410255.367 8
  24559412.416    24559416.267    83407087.875 8 -93607456.220 8
  24796053.121    24796057.329   -18348295.770 9   5056634.238 9
 86  6 18  3 58 47.0800000  0  4G12G13G 9G 7
  21249836.547    21249841.907     8730561.491 9 -19407236.144 8
  21974480.269    21974482.725    38602985.910 9 -40402839.484 9
  24564141.245    24564145.738    83431937.679 7 -93588092.740 9
  24794539.066    24794542.199   -18356255.725 9   5050431.678 9
 86  6 18  3 58 53.0800000  0  4G12G13G 9G 7
  21251919.880    21251924.137     8741504.993 9 -19398708.748 8
  21976290.961    21976293.571    38612504.596 8 -40395422.325 9
  24568869.972    24568873.536    83456787.104 8 -93568729.562 8
  24793028.208    24793030.448   -18364196.930 9   5044243.732 9
 86  6 18  3 58 59.0800000  0  4G12G13G 9G 7
  21254005.616    21254011.319     8752471.150 9 -19390163.692 8
  21978103.077    21978105.761    38622024.858 9 -40388003.932 9
  24573598.895    24573604.374    83481636.134 9 -93549366.698 9
  24791521.344    24791524.235   -18372118.783 9   5038070.859 9
 86  6 18  3 59  5.0800000  0  4G12G13G 9G 7
  21256098.308    21256101.907     8763459.983 9 -19381600.964 8
  21979916.347    21979917.842    38631546.802 9 -40380584.243 9
  24578328.137    24578331.289    83506484.780 8 -93530004.122 9
                  24790021.354                     5031916.789 9
 86  6 18  3 59 11.0800000  0  4G12G13G 9G 7
  21258193.489    21258198.117     8774471.371 9 -19373020.663 9
  21981727.878    21981729.930    38641070.378 9 -40373163.257 9
  24583055.478    24583060.433    83531332.904 8 -93510641.956 8
  24788422.023    24788524.591   -18416381.525 9   5025786.924 9
 86  6 18  3 59 17.0800000  0  4G12G13G 9G 7
  21260293.105    21260297.962     8785505.368 9 -19364422.749 9
  21983540.420    21983542.520    38650595.617 9 -40365740.995 9
  24587785.080    24587788.795    83556180.576 9 -93491280.140 8
  24787030.634    24787033.316   -18424212.173 9   5019685.232 9
 86  6 18  3 59 23.0800000  0  4G12G13G 9G 7
  21262398.073    21262401.071     8796561.964 9 -19355807.222 8
  21985353.745    21985356.273    38660122.473 9 -40358317.470 9
  24592512.093    24592517.365    83581027.650 7 -93471918.800 8
  24785546.943    24785550.406   -18432007.564 9   5013610.520 9
 86  6 18  3 59 29.0800000  0  4G12G13G 9G 7
  21264505.676    21264509.659     8807641.085 9 -19347174.147 8
  21987167.177    21987168.539    38669650.929 9 -40350892.702 9
  24597239.587    24597245.008    83605874.299 9 -93452557.782 8
  24784068.611    24784072.517   -18439772.866 9   5007559.640 9
 86  6 18  3 59 35.0800000  0  4G12G13G 9G 7
  21266619.172    21266621.997     8818742.697 9 -19338523.546 9
  21988980.492    21988982.612    38679180.975 9 -40343466.687 8
  24601967.956    24601973.158    83630720.326 8 -93433197.248 8
  24782596.459    24782600.089   -18447512.137 9   5001529.044 9
 86  6 18  3 59 41.0800000  0  4G12G13G 9G 7
  21268735.416    21268738.628     8829866.724 9 -19329855.476 8
  21990794.433    21990795.576    38688712.608 9 -40336039.441 9
  24606697.404    24606701.470    83655565.682 8 -93413837.234 8
  24781128.352    24781130.942   -18455228.930 9   4995515.957 9
 86  6 18  3 59 47.0800000  0  4G12G13G 9G 7
  21270856.267    21270860.524     8841013.143 9 -19321169.956 8
  21992608.727    21992610.290    38698245.662 9 -40328611.076 9
  24611424.297    24611427.576    83680410.397 9 -93394477.715 8
  24779663.598    24779667.041   -18462925.529 9   4989518.616 9
 86  6 18  3 59 53.0800000  0  4G12G13G 9G 7
  21272981.755    21272986.071     8852182.076 9 -19312466.894 8
  21994423.652    21994425.138    38707780.345 9 -40321181.463 8
  24616152.187    24616156.204    83705254.524 8 -93375118.665 7
  24778203.209    24778206.373   -18470603.272 9   4983535.963 9
 86  6 18  3 59 59.0800000  0  4G12G13G 9G 7
  21275112.364    21275115.350     8863373.362 8 -19303746.422 9
  21996237.739    21996238.904    38717316.629 9 -40313750.583 8
  24620879.955    24620884.362    83730097.867 8 -93355760.226 8
  24776746.277    24776749.540   -18478261.324 9   4977568.656 9
 86  6 18  4  0  5.0800000  0  4G12G13G 9G 7
  21277245.179    21277248.994     8874586.952 9 -19295008.564 8
  21998051.340    21998054.365    38726854.448 9 -40306318.521 9
  24625607.199    24625611.146    83754940.558 9 -93336402.279 9
                  24775296.850                     4971620.388 8
 86  6 18  4  0 11.0800000  0  4G12G13G 9G 7
  21279383.146    21279388.003     8885822.875 9 -19286253.294 8
  21999867.593    21999870.032    38736393.770 8 -40298885.275 9
  24630334.178    24630338.519    83779782.436 9 -93317044.976 7
  24773784.011    24773849.990   -18522265.537 9   4965696.772 8
 86  6 18  4  0 17.0800000  0  4G12G13G 9G 7
  21281525.575    21281529.660     8897081.190 9 -19277480.589 8
  22001682.730    22001685.318    38745934.658 8 -40291450.827 8
  24635061.631    24635065.683    83804623.491 7 -93297688.317 8
  24772407.667    24772409.555   -18529831.167 9   4959801.390 9
 86  6 18  4  0 23.0800000  0  4G12G13G 9G 7
  21283672.784    21283676.340     8908361.783 9 -19268690.513 8
  22003497.889    22003501.943    38755477.052 9 -40284015.190 9
  24639786.911    24639793.260    83829463.770 9 -93278332.271 8
  24770974.438    24770976.197   -18537362.916 9   4953932.867 9
 86  6 18  4  0 29.0800000  0  4G12G13G 9G 7
  21285823.857    21285827.298     8919664.705 9 -19259883.042 8
  22005314.336    22005317.524    38765021.032 9 -40276578.323 9
  24644514.554    24644519.300    83854303.126 8 -93258976.931 9
  24769546.616    24769549.006   -18544863.897 9   4948087.948 9
 86  6 18  4  0 35.0800000  0  4G12G13G 9G 7
  21287978.277    21287982.178     8930989.959 9 -19251058.167 9
  22007131.273    22007133.873    38774566.508 9 -40269140.281 9
  24649242.121    24649246.918    83879141.749 9 -93239622.184 9
  24768124.133    24768127.295   -18552338.962 9   4942263.222 9
 86  6 18  4  0 41.0800000  0  4G12G13G 9G 7
  21290138.336    21290141.808     8942337.462 9 -19242215.952 9
  22008947.430    22008951.308    38784113.584 9 -40261701.008 8
  24653968.671    24653971.724    83903979.532 8 -93220268.060 7
  24766706.593    24766708.824   -18559791.553 9   4936456.006 9
 86  6 18  4  0 47.0800000  0  4G12G13G 9G 7
  21292301.715    21292305.057     8953707.338 9 -19233356.314 8
  22010765.118    22010768.632    38793662.204 9 -40254260.514 9
  24658694.917    24658698.655    83928816.453 8 -93200914.616 8
  24765292.237    24765294.842   -18567223.812 9   4930664.635 9
 86  6 18  4  0 53.0800000  0  4G12G13G 9G 7
  21294468.929    21294472.542     8965099.522 9 -19224479.277 8
  22012582.093    22012585.563    38803212.391 9 -40246818.817 9
  24663420.871    24663424.262    83953652.457 9 -93181561.901 8
  24763881.236    24763884.492   -18574637.217 9   4924887.947 9
 86  6 18  4  0 59.0800000  0  4G12G13G 9G 7
  21296642.122    21296644.576     8976513.932 8 -19215584.940 8
  22014399.777    22014402.555    38812764.203 9 -40239375.849 9
  24668146.698    24668152.035    83978487.511 9 -93162209.906 8
  24762474.592    24762476.883   -18582030.804 9   4919126.721 9
 86  6 18  4  1  5.0800000  0  4G12G13G 9G 7
  21298817.492    21298821.605     8987950.583 9 -19206673.265 9
  22016217.893    22016220.395    38822317.577 9 -40231931.656 9
  24672872.360    24672876.685    84003321.781 9 -93142858.524 9
                  24761075.463                     4913385.104 9
 86  6 18  4  1 11.0800000  0  4G12G13G 9G 7
  21300997.298    21301003.085     8999409.581 9 -19197744.172 9
  22018036.362    22018038.136    38831872.576 9 -40224486.205 9
  24677597.833    24677602.472    84028155.014 8 -93123507.968 8
  24759674.777    24759679.686   -18625766.218 9   4907668.718 9
 86  6 18  4  1 17.0800000  0  4G12G13G 9G 7
  21303182.971    21303187.399     9010890.890 9 -19188797.700 8
  22019855.036    22019856.762    38841429.105 9 -40217039.553 9
  24682321.989    24682327.784    84052987.396 8 -93104158.071 9
  24758286.115    24758290.380   -18633065.896 9   4901980.665 9
 86  6 18  4  1 23.0800000  0  4G12G13G 9G 7
  21305372.076    21305375.503     9022394.407 9 -19179833.922 9
  22021674.135    22021675.997    38850987.160 9 -40209591.722 9
  24687049.531    24687053.048    84077818.756 8 -93084808.983 9
  24756903.655    24756907.110   -18640330.887 9   4896319.644 9
 86  6 18  4  1 29.0800000  0  4G12G13G 9G 7
  21307564.904    21307568.488     9033920.077 9 -19170852.870 8
  22023493.065    22023495.710    38860546.823 9 -40202142.632 8
  24691773.419    24691777.856    84102649.099 9 -93065460.660 8
  24755527.855    24755530.023   -18647565.643 9   4890682.172 9
 86  6 18  4  1 35.0800000  0  4G12G13G 9G 7
  21309761.794    21309766.708     9045467.876 9 -19161854.595 9
  22025312.091    22025316.124    38870107.908 9 -40194692.438 9
  24696498.798    24696502.519    84127478.412 8 -93046113.160 8
  24754156.627    24754158.079   -18654774.747 9   4885064.683 9
 86  6 18  4  1 41.0800000  0  4G12G13G 9G 7
  21311964.236    21311968.007     9057037.713 9 -19152839.140 9
  22027131.876    22027135.143    38879670.513 9 -40187241.053 8
  24701222.715    24701227.377    84152306.541 8 -93026766.564 8
  24752788.310    24752791.057   -18661961.222 9   4879464.829 9
 86  6 18  4  1 47.0800000  0  4G12G13G 9G 7
  21314170.399    21314173.985     9068629.587 9 -19143806.503 8
  22028951.901    22028954.797    38889234.531 9 -40179788.574 9
  24705947.246    24705952.154    84177133.572 8 -93007420.836 8
  24751423.672    24751427.221   -18669127.358 9   4873880.817 9
 86  6 18  4  1 53.0800000  0  4G12G13G 9G 7
  21316380.082    21316384.226     9080243.619 9 -19134756.612 8
  22030772.081    22030774.847    38898800.055 9 -40172334.923 9
  24710671.770    24710677.311    84201959.444 8 -92988076.006 8
  24750063.292    24750067.389   -18676274.534 9   4868311.600 8
 86  6 18  4  1 59.0800000  0  4G12G13G 9G 7
  21318594.144    21318597.843     9091879.769 9 -19125689.488 8
  22032593.412    22032596.028    38908367.086 9 -40164880.090 8
  24715395.575    24715400.355    84226784.118 8 -92968732.127 9
  24748707.537    24748711.250   -18683401.418 9   4862758.187 9
 86  6 18  4  2  5.0800000  0  4G12G13G 9G 7
  21320813.100    21320817.069     9103537.951 9 -19116605.197 8
  22034414.521    22034417.628    38917935.593 9 -40157424.100 9
  24720118.565    24720123.696    84251607.583 8 -92949389.170 9
                  24747359.919                     4857224.828 8
 86  6 18  4  2 11.0800000  0  4G12G13G 9G 7
  21323035.345    21323040.291     9115218.147 9 -19107503.748 8
  22036234.940    22036236.773    38927505.564 9 -40149966.986 9
  24724842.732    24724847.880    84276429.817 8 -92930047.167 9
  24746010.855    24746014.572   -18726869.901 9   4851717.025 9
 86  6 18  4  2 17.0800000  0  4G12G13G 9G 7
  21325262.571    21325267.056     9126920.204 9 -19098385.255 9
  22038057.062    22038058.666    38937076.995 9 -40142508.731 8
  24729566.657    24729569.962    84301250.740 8 -92910706.197 9
  24744673.198    24744676.232   -18733901.805 9   4846237.643 9
 86  6 18  4  2 23.0800000  0  4G12G13G 9G 7
  21327493.575    21327497.259     9138644.172 9 -19089249.704 9
  22039878.285    22039880.902    38946649.730 9 -40135049.449 8
  24734289.011    24734293.837    84326070.362 8 -92891366.247 8
  24743340.491    24743345.641   -18740899.443 9   4840784.935 9
 86  6 18  4  2 29.0800000  0  4G12G13G 9G 7
  21329728.758    21329732.930     9150390.139 9 -19080096.998 9
  22041700.196    22041702.806    38956223.935 9 -40127589.029 8
  24739010.568    24739017.169    84350888.636 8 -92872027.337 8
  24742015.810    24742018.801   -18747866.903 9   4835355.750 9
 86  6 18  4  2 35.0800000  0  4G12G13G 9G 7
  21331967.975    21331971.501     9162158.092 9 -19070927.175 8
  22043522.541    22043524.969    38965799.641 9 -40120127.437 9
  24743734.342    24743738.924    84375705.737 7 -92852689.354 8
  24740694.364    24740697.719   -18754808.809 9   4829946.476 8
 86  6 18  4  2 41.0800000  0  4G12G13G 9G 7
  21334210.970    21334216.071     9173947.946 9 -19061740.280 9
  22045344.906    22045346.978    38975376.717 9 -40112664.775 9
  24748455.899    24748461.952    84400521.357 7 -92833352.512 9
  24739377.755    24739381.560   -18761728.220 8   4824554.726 9
 86  6 18  4  2 47.0800000  0  4G12G13G 9G 7
  21336458.345    21336463.244     9185759.685 9 -19052536.330 8
  22047167.610    22047168.981    38984955.212 9 -40105201.008 9
  24753179.975    24753183.314    84425335.517 8 -92814016.808 8
  24738064.851    24738068.786   -18768627.507 9   4819178.663 9
 86  6 18  4  2 53.0800000  0  4G12G13G 9G 7
  21338710.438    21338715.570     9197593.320 9 -19043315.313 9
  22048990.141    22048992.337    38994535.127 9 -40097736.141 9
  24757899.958    24757906.231    84450148.368 8 -92794682.123 9
  24736755.611    24736759.031   -18775507.672 9   4813817.505 9
 86  6 18  4  2 59.0800000  0  4G12G13G 9G 7
  21340966.400    21340971.586     9209448.878 9 -19034077.231 9
  22050813.017    22050815.650    39004116.514 9 -40090270.116 8
  24762621.406    24762627.083    84474959.790 9 -92775348.558 8
  24735450.605    24735453.787   -18782367.227 9   4808472.405 9
 86  6 18  4  3  5.0800000  0  4G12G13G 9G 7
  21343226.993    21343231.422     9221326.239 9 -19024822.146 8
  22052637.617    22052639.968    39013699.299 9 -40082803.020 9
  24767343.526    24767348.090    84499769.738 8 -92756016.140 8
                  24734153.212                     4803147.842 8
 86  6 18  4  3 11.0800000  0  4G12G13G 9G 7
  21345491.253    21345496.309     9233225.527 9 -19015549.987 9
  22054461.200    22054463.622    39023283.574 9 -40075334.746 9
  24772063.524    24772069.183    84524578.349 8 -92736684.765 8
  24732828.725    24732858.030   -18825583.701 9   4797849.232 7
 86  6 18  4  3 17.0800000  0  4G12G13G 9G 7
  21347759.861    21347765.576     9245146.623 8 -19006260.829 9
  22056285.021    22056288.141    39032869.385 9 -40067865.281 9
  24776783.661    24776790.014    84549385.493 8 -92717354.541 9
  24731569.924    24731571.678   -18832346.920 9   4792579.263 8
 86  6 18  4  3 23.0800000  0  4G12G13G 9G 7
  21350032.560    21350038.334     9257089.529 9 -18996954.674 9
  22058108.282    22058112.026    39042456.577 9 -40060394.744 9
  24781505.349    24781510.617    84574191.249 7 -92698025.393 8
  24730288.981    24730290.525   -18839075.275 9   4787336.003 9
 86  6 18  4  3 29.0800000  0  4G12G13G 9G 7
  21352309.011    21352314.412     9269054.177 9 -18987631.582 9
  22059932.644    22059936.241    39052045.218 9 -40052923.074 9
  24786224.210    24786230.324    84598995.452 8 -92678697.443 9
  24729014.412    24729015.706   -18845774.181 9   4782116.078 8
 86  6 18  4  3 35.0800000  0  4G12G13G 9G 7
  21354591.070    21354595.182     9281040.541 9 -18978291.557 9
  22061757.682    22061761.269    39061635.311 9 -40045450.274 9
  24790944.696    24790949.320    84623797.952 8 -92659370.843 9
  24727744.464    24727746.138   -18852447.626 9   4776915.987 9
 86  6 18  4  3 41.0800000  0  4G12G13G 9G 7
  21356875.245    21356880.332     9293048.650 8 -18968934.595 9
  22063583.818    22063587.009    39071226.805 8 -40037976.390 9
  24795664.835    24795669.244    84648598.993 7 -92640045.372 9
  24726478.838    24726480.239   -18859098.662 9   4771733.365 8
 86  6 18  4  3 47.0800000  0  4G12G13G 9G 7
  21359165.033    21359169.102     9305078.489 9 -18959560.699 8
  22065408.597    22065412.952    39080819.668 9 -40030501.438 9
  24800384.967    24800387.287    84673398.293 8 -92620721.241 8
  24725217.067    24725219.722   -18865729.551 9   4766566.444 9
 86  6 18  4  3 53.0800000  0  4G12G13G 9G 7
  21361458.510    21361463.653     9317129.930 9 -18950169.970 8
  22067233.934    22067237.713    39090413.901 9 -40023025.405 9
  24805102.840    24805107.251    84698195.942 9 -92601398.396 8
  24723959.248    24723961.923   -18872341.283 9   4761414.444 9
 86  6 18  4  3 59.0800000  0  4G12G13G 9G 7
  21363755.537    21363760.094     9329203.001 8 -18940762.377 9
  22069059.972    22069064.361    39100009.552 9 -40015548.279 9
  24809820.898    24809826.268    84722991.841 8 -92582076.929 8
  24722705.339    24722708.308   -18878932.184 9   4756278.678 9
 86  6 18  4  4  5.0800000  0  4G12G13G 9G 7
  21366056.796    21366062.414     9341297.668 9 -18931337.965 9
  22070886.537    22070889.602    39109606.578 9 -40008070.069 9
  24814539.695    24814544.140    84747786.101 8 -92562756.734 8
                  24721459.476                     4751163.885 8
 86  6 18  4  4 11.0800000  0  4G12G13G 9G 7
  21368363.067    21368368.054     9353414.026 9 -18921896.655 9
  22072713.722    22072715.609    39119204.961 9 -40000590.803 9
  24819257.873    24819261.774    84772578.564 7 -92543437.951 9
  24720213.053    24720216.499   -18921870.293 9   4746075.477 9
 86  6 18  4  4 17.0800000  0  4G12G13G 9G 7
  21370672.144    21370678.661     9365552.001 9 -18912438.491 8
  22074539.461    22074543.196    39128804.741 9 -39993110.460 8
  24823975.739    24823979.670    84797369.375 8 -92524120.445 9
  24718977.668    24718979.764   -18928363.708 9   4741015.684 9
 86  6 18  4  4 23.0800000  0  4G12G13G 9G 7
  21372986.226    21372990.784     9377711.548 9 -18902963.516 9
  22076366.687    22076369.054    39138405.888 9 -39985629.046 9
  24828692.660    24828697.475    84822158.358 9 -92504804.359 9
  24717748.574    24717750.719   -18934823.086 9   4735982.396 9
 86  6 18  4  4 29.0800000  0  4G12G13G 9G 7
  21375304.944    21375309.816     9389892.658 9 -18893471.754 9
  22078194.476    22078197.551    39148008.371 9 -39978146.588 8
  24833409.542    24833413.614    84846945.556 9 -92485489.672 8
  24716523.921    24716527.669   -18941252.650 9   4730972.347 9
 86  6 18  4  4 35.0800000  0  4G12G13G 9G 7
  21377626.782    21377631.112     9402095.270 9 -18883963.228 9
  22080021.891    22080024.619    39157612.238 9 -39970663.047 8
  24838125.719    24838129.739    84871731.016 8 -92466176.328 8
  24715305.952    24715309.844   -18947656.963 9   4725981.975 9
 86  6 18  4  4 41.0800000  0  4G12G13G 9G 7
  21379952.428    21379957.343     9414319.420 9 -18874437.923 9
  22081849.340    22081853.052    39167217.428 8 -39963178.487 9
  24842843.093    24842846.410    84896514.646 7 -92446864.413 8
  24714090.314    24714094.572   -18954038.914 9   4721009.022 9
 86  6 18  4  4 47.0800000  0  4G12G13G 9G 7
  21382283.338    21382288.009     9426565.084 8 -18864895.849 9
  22083677.317    22083681.148    39176824.007 9 -39955692.832 9
  24847559.395    24847561.084    84921296.405 7 -92427553.967 9
  24712880.680    24712884.817   -18960400.530 9   4716051.922 9
 86  6 18  4  4 53.0800000  0  4G12G13G 9G 7
  21384616.882    21384622.153     9438832.165 9 -18855337.091 9
  22085506.767    22085509.097    39186431.981 9 -39948206.107 8
  24852273.072    24852277.099    84946076.341 9 -92408244.931 8
  24711672.991    24711677.859   -18966742.793 9   4711109.907 9
 86  6 18  4  4 59.0800000  0  4G12G13G 9G 7
  21386955.489    21386960.306     9451120.664 9 -18845761.635 8
  22087334.406    22087337.451    39196041.343 9 -39940718.282 9
  24856988.049    24856993.450    84970854.338 8 -92388937.409 8
  24710470.248    24710474.519   -18973063.837 9   4706184.421 9
 86  6 18  4  5  5.0800000  0  4G12G13G 9G 7
  21389298.105    21389303.822     9463430.602 9 -18836169.489 9
  22089164.377    22089167.552    39205652.032 9 -39933229.438 9
  24861702.824    24861706.972    84995630.286 8 -92369631.484 8
                  24709277.392                     4701280.274 8
 86  6 18  4  5 11.0800000  0  4G12G13G 9G 7
  21391644.356    21391650.030     9475761.991 9 -18826560.608 9
  22090993.076    22090995.076    39215264.059 9 -39925739.536 9
  24866417.266    24866421.212    85020404.344 8 -92350327.035 9
  24708081.745    24708086.988   -19015734.478 9   4696402.759 9
 86  6 18  4  5 17.0800000  0  4G12G13G 9G 7
  21393995.842    21393999.642     9488114.768 9 -18816935.075 8
  22092821.804    22092824.727    39224877.376 9 -39918248.638 8
  24871131.645    24871135.126    85045176.432 8 -92331024.118 8
  24706896.878    24706902.444   -19021957.224 9   4691553.881 9
 86  6 18  4  5 23.0800000  0  4G12G13G 9G 7
  21396350.907    21396355.122     9500488.904 8 -18807292.893 8
  22094651.882    22094654.887    39234492.007 8 -39910756.724 9
  24875844.921    24875849.719    85069946.438 9 -92311722.820 8
  24705719.870    24705724.156   -19028146.555 9   4686731.426 9
 86  6 18  4  5 29.0800000  0  4G12G13G 9G 7
  21398709.722    21398713.606     9512884.319 9 -18797634.134 8
  22096481.465    22096484.584    39244107.979 8 -39903263.756 9
  24880558.770    24880563.866    85094714.391 8 -92292423.129 9
  24704548.271    24704551.524   -19034305.778 9   4681932.030 9
 86  6 18  4  5 35.0800000  0  4G12G13G 9G 7
  21401072.511    21401076.555     9525301.096 8 -18787958.721 8
  22098311.827    22098314.684    39253725.355 8 -39895769.691 8
  24885271.245    24885274.624    85119480.271 8 -92273125.043 8
  24703381.112    24703385.019   -19040439.913 9   4677152.198 9
 86  6 18  4  5 41.0800000  0  4G12G13G 9G 7
  21403439.653    21403443.511     9537739.176 9 -18778266.718 8
  22100141.467    22100146.157    39263344.121 9 -39888274.546 8
  24889983.798    24889986.542    85144244.068 8 -92253828.583 7
  24702218.391    24702221.438   -19046551.578 9   4672389.862 9
 86  6 18  4  5 47.0800000  0  4G12G13G 9G 7
  21405810.572    21405813.384     9550198.590 9 -18768558.077 8
  22101972.701    22101975.492    39272964.169 8 -39880778.407 8
  24894693.832    24894698.536    85169005.742 8 -92234533.768 7
  24701058.987    24701062.143   -19052643.039 9   4667643.270 9
 86  6 18  4  5 53.0800000  0  4G12G13G 9G 7
  21408185.239    21408188.939     9562679.337 9 -18758832.826 8
  22103803.921    22103805.853    39282585.541 9 -39873281.226 8
  24899406.752    24899410.679    85193765.271 9 -92215240.642 7
  24699904.502    24699906.234   -19058715.042 9   4662911.840 9
 86  6 18  4  5 59.0800000  0  4G12G13G 9G 7
  21410564.632    21410568.158     9575181.337 9 -18749091.012 8
  22105633.905    22105636.893    39292208.146 9 -39865783.093 9
  24904118.082    24904122.573    85218522.738 9 -92195949.127 8
  24698752.411    24698755.123   -19064765.363 9   4658197.297 9
 86  6 18  4  6  5.0800000  0  4G12G13G 9G 7
  21412947.569    21412951.154     9587704.588 9 -18739332.636 8
  22107465.659    22107468.355    39301832.014 9 -39858283.979 9
  24908828.345    24908833.846    85243277.989 9 -92176659.334 8
                  24697608.107                     4653504.499 8
 86  6 18  4  6 11.0800000  0  4G12G13G 9G 7
  21415334.200    21415338.469     9600249.044 9 -18729557.734 9
  22109296.743    22109300.933    39311457.228 9 -39850783.811 9
  24913539.595    24913543.353    85268031.122 8 -92157371.175 9
  24696465.231    24696469.573   -19107166.079 9   4648838.713 9
 86  6 18  4  6 17.0800000  0  4G12G13G 9G 7
  21417725.724    21417728.808     9612814.688 9 -18719766.332 8
  22111128.154    22111133.184    39321083.794 9 -39843282.591 8
  24918248.964    24918252.876    85292782.079 8 -92138084.731 8
  24695332.874    24695336.916   -19113116.776 9   4644201.807 9
 86  6 18  4  6 23.0800000  0  4G12G13G 9G 7
  21420120.454    21420124.796     9625401.632 9 -18709958.323 9
  22112960.805    22112964.678    39330711.741 9 -39835780.292 9
  24922958.709    24922963.159    85317530.852 8 -92118799.974 8
  24694208.550    24694211.435   -19119033.139 9   4639591.272 8
 86  6 18  4  6 29.0800000  0  4G12G13G 9G 7
  21422519.391    21422523.448     9638009.748 9 -18700133.821 8
  22114793.867    22114796.955    39340341.059 9 -39828276.926 8
  24927667.607    24927671.763    85342277.421 8 -92099516.955 8
  24693088.292    24693091.435   -19124920.552 9   4635003.690 8
 86  6 18  4  6 35.0800000  0  4G12G13G 9G 7
  21424922.219    21424927.177     9650638.995 9 -18690292.862 9
  22116625.914    22116629.804    39349971.611 9 -39820772.590 9
  24932375.123    24932381.412    85367021.668 8 -92080235.732 8
  24691973.299    24691975.824   -19130782.850 9   4630435.668 9
 86  6 18  4  6 41.0800000  0  4G12G13G 9G 7
  21427330.025    21427333.997     9663289.364 9 -18680435.425 9
  22118458.979    22118462.169    39359603.388 8 -39813267.313 9
  24937085.985    24937088.993    85391763.590 8 -92060956.305 8
  24690861.239    24690863.849   -19136622.826 9   4625885.035 9
 86  6 18  4  6 47.0800000  0  3G12G13G 7
  21429742.043    21429745.926     9675960.829 9 -18670561.562 9
  22120293.193    22120296.375    39369236.482 9 -39805761.000 9
  24689754.172    24689756.613   -19142442.452 9   4621350.272 9
 86  6 18  4  6 53.0800000  0  3G12G13G 7
  21432157.527    21432161.353     9688653.343 8 -18660671.285 8
  22122126.544    22122128.652    39378870.799 9 -39798253.740 9
  24688650.533    24688653.097   -19148242.456 9   4616830.791 9
 86  6 18  4  6 59.0800000  0  3G12G13G 7
  21434577.186    21434580.212     9701366.883 9 -18650764.637 9
  22123960.352    22123962.962    39388506.330 9 -39790745.530 9
  24687550.264    24687553.814   -19154020.524 9   4612328.402 9
 86  6 18  4  7  5.0800000  0  3G12G13G 7
  21436999.955    21437002.410     9714101.469 9 -18640841.589 8
  22125793.416    22125797.029    39398143.138 9 -39783236.335 9
                  24686459.482                     4607848.248 8
 86  6 18  4  7 11.0800000  0  3G12G13G 7
  21439426.997    21439431.887     9726857.112 9 -18630902.130 8
  22127628.141    22127631.023    39407781.270 9 -39775726.098 9
  24685367.585    24685372.509   -19196148.654 9   4603395.341 8
 86  6 18  4  7 17.0800000  0  3G12G13G 7
  21441858.870    21441862.649     9739633.735 9 -18620946.318 8
  22129463.124    22129465.490    39417420.693 9 -39768214.859 9
  24684286.975    24684291.585   -19201826.343 9   4598971.177 8
 86  6 18  4  7 23.0800000  0  3G12G13G 7
  21444293.493    21444297.268     9752431.395 9 -18610974.112 9
  22131297.677    22131300.286    39427061.441 9 -39760702.591 9
  24683213.272    24683218.016   -19207470.307 9   4594573.290 9
 86  6 18  4  7 29.0800000  0  3G12G13G 7
  21446732.778    21446737.505     9765249.981 9 -18600985.613 8
  22133132.173    22133133.924    39436703.427 9 -39753189.347 9
  24682145.994    24682149.154   -19213085.144 9   4590198.108 9
 86  6 18  4  7 35.0800000  0  3G12G13G 7
  21449176.692    21449180.079     9778089.524 9 -18590980.774 9
  22134968.156    22134969.136    39446346.640 9 -39745675.162 9
  24681082.498    24681085.411   -19218675.070 9   4585842.323 9
 86  6 18  4  7 41.0800000  0  3G12G13G 7
  21451623.278    21451627.436     9790949.891 8 -18580959.703 8
  22136802.852    22136805.033    39455990.982 9 -39738160.081 9
  24680022.537    24680024.877   -19224242.538 9   4581504.050 9
 86  6 18  4  7 47.0800000  0  3G12G13G 7
  21454074.236    21454078.453     9803831.117 8 -18570922.397 9
  22138638.293    22138640.386    39465636.547 9 -39730644.052 9
  24678966.570    24678969.662   -19229789.827 9   4577181.485 9
 86  6 18  4  7 53.0800000  0  3G12G13G 7
  21456529.830    21456534.492     9816733.189 9 -18560868.836 9
  22140473.189    22140476.327    39475283.244 9 -39723127.142 9
  24677914.689    24677916.955   -19235317.474 9   4572874.228 9
 86  6 18  4  7 59.0800000  0  3G12G13G 7
  21458988.353    21458993.328     9829656.015 8 -18550799.106 9
  22142309.229    22142312.269    39484931.094 9 -39715609.339 9
  24676866.904    24676869.859   -19240822.885 9   4568584.306 9
 86  6 18  4  8  5.0800000  0  3G12G13G 7
  21461452.218    21461456.414     9842599.591 8 -18540713.190 9
  22144146.130    22144147.866    39494580.161 8 -39708090.572 9
                  24675828.229                     4564317.027 8
 86  6 18  4  8 11.0800000  0  3G12G13G 7
  21463919.065    21463923.649     9855563.983 9 -18530611.081 8
  22145982.802    22145983.864    39504230.477 9 -39700570.841 8
  24674789.685    24674794.049   -19282679.239 9   4560077.291 9
 86  6 18  4  8 17.0800000  0  3G12G13G 7
  21466389.677    21466393.926     9868549.188 9 -18520492.737 9
  22147818.269    22147821.565    39513882.119 8 -39693050.081 9
  24673761.997    24673764.773   -19288083.285 9   4555866.349 9
 86  6 18  4  8 23.0800000  0  3G12G13G 7
  21468864.494    21468869.731     9881555.139 9 -18510358.237 9
  22149653.825    22149657.692    39523535.026 9 -39685528.335 9
  24672739.950    24672743.175   -19293453.761 9   4551681.565 9
 86  6 18  4  8 29.0800000  0  3G12G13G 7
  21471344.155    21471347.493     9894581.861 8 -18500207.540 9
  22151491.297    22151494.807    39533189.154 9 -39678005.645 8
  24671723.954    24671726.364   -19298795.420 9   4547519.227 9
 86  6 18  4  8 35.0800000  0  3G12G13G 7
  21473826.915    21473831.322     9907629.247 8 -18490040.755 9
  22153329.455    22153332.781    39542844.486 8 -39670482.006 9
  24670711.815    24670714.563   -19304112.184 9   4543376.308 9
 86  6 18  4  8 41.0800000  0  3G12G13G 7
  21476313.102    21476317.424     9920697.325 9 -18479857.835 8
  22155166.840    22155169.536    39552501.062 8 -39662957.408 9
  24669703.381    24669706.938   -19309406.636 9   4539250.766 8
 86  6 18  4  8 47.0800000  0  3G12G13G 7
  21478803.900    21478807.778     9933786.022 9 -18469658.864 8
  22157003.683    22157007.636    39562158.803 9 -39655431.885 9
  24668700.315    24668704.092   -19314680.862 9   4535140.980 9
 86  6 18  4  8 53.0800000  0  3G12G13G 7
  21481298.879    21481303.797     9946895.385 8 -18459443.773 9
  22158841.956    22158845.510    39571817.851 9 -39647905.352 8
  24667700.190    24667704.483   -19319935.266 9   4531046.664 9
 86  6 18  4  8 59.0800000  0  3G12G13G 7
  21483798.879    21483801.972     9960025.403 9 -18449212.602 8
  22160680.916    22160683.783    39581478.085 9 -39640377.906 8
  24666704.420    24666708.334   -19325166.927 9   4526970.035 9
 86  6 18  4  9  5.0800000  0  3G12G13G 7
  21486300.492    21486304.815     9973175.990 9 -18438965.384 9
  22162518.275    22162522.015    39591139.464 9 -39632849.541 9
                  24665718.782                     4522916.478 8
 86  6 18  4  9 11.0800000  0  3G12G13G 7
  21488807.573    21488810.936     9986347.195 9 -18428702.110 9
  22164358.150    22164360.731    39600802.131 9 -39625320.190 8
  24664731.514    24664735.513   -19366749.879 9   4518890.749 9
 86  6 18  4  9 17.0800000  0  3G12G13G 7
  21491317.447    21491321.222     9999538.885 9 -18418422.869 8
  22166197.226    22166200.608    39610465.978 9 -39617789.919 9
  24663756.505    24663757.972   -19371879.384 9   4514893.727 9
 86  6 18  4  9 23.0800000  0  3G12G13G 7
  21493831.480    21493835.050    10012751.165 9 -18408127.587 9
  22168036.642    22168039.797    39620131.044 9 -39610258.698 9
  24662786.351    24662789.306   -19376975.961 9   4510922.771 9
 86  6 18  4  9 29.0800000  0  3G12G13G 7
  21496349.064    21496352.601    10025984.037 9 -18397816.259 8
  22169875.717    22169879.415    39629797.240 9 -39602726.598 8
  24661822.155    24661823.752   -19382043.346 9   4506974.157 9
 86  6 18  4  9 35.0800000  0  3G12G13G 7
  21498871.088    21498875.199    10039237.363 9 -18387488.993 9
  22171714.677    22171719.161    39639464.635 8 -39595193.567 9
  24660862.688    24660866.087   -19387085.818 9   4503044.966 8
 86  6 18  4  9 41.0800000  0  3G12G13G 7
  21501397.945    21501400.804    10052511.163 9 -18377145.770 9
  22173554.726    22173558.251    39649133.228 9 -39587659.595 9
  24659906.691    24659909.869   -19392106.121 9   4499133.043 9
 86  6 18  4  9 47.0800000  0  3G12G13G 7
  21503927.404    21503930.980    10065805.412 9 -18366786.620 8
  22175396.032    22175398.400    39658802.974 9 -39580124.724 8
  24658955.803    24658958.830   -19397106.139 9   4495236.936 9
 86  6 18  4  9 53.0800000  0  3G12G13G 7
  21506460.181    21506464.319    10079120.052 9 -18356411.567 8
  22177236.937    22177239.334    39668473.825 8 -39572588.995 9
  24658008.127    24658011.354   -19402086.175 9   4491356.396 9
 86  6 18  4  9 59.0800000  0  3G12G13G 7
  21508998.199    21509001.704    10092455.049 9 -18346020.663 8
  22179077.042    22179079.308    39678145.767 9 -39565052.412 8
  24657064.149    24657067.320   -19407043.146 9   4487493.821 9
 86  6 18  4 10  5.0800000  0  3G12G13G 7
  21511539.455    21511543.823    10105810.404 9 -18335613.896 8
  22180916.662    22180920.244    39687818.788 9 -39557514.994 9
                  24656129.160                     4483654.618 9
 86  6 18  4 10 11.0800000  0  3G12G13G 7
  21514085.152    21514088.003    10119186.114 9 -18325191.267 8
  22182758.084    22182761.308    39697492.898 8 -39549976.728 9
  24655196.572    24655199.327   -19448355.557 9   4479843.511 9
 86  6 18  4 10 17.0800000  0  3G12G13G 7
  21516634.551    21516637.609    10132582.134 9 -18314752.810 8
  22184598.587    22184601.685    39707168.152 9 -39542437.568 9
  24654272.879    24654275.296   -19453209.742 9   4476061.025 9
 86  6 18  4 10 23.0800000  0  3G12G13G 7
  21519186.764    21519190.741    10145998.470 9 -18304298.523 9
  22186439.093    22186442.720    39716844.528 9 -39534897.524 9
  24653354.801    24653358.036   -19458030.225 9   4472304.426 9
 86  6 18  4 10 29.0800000  0  3G12G13G 7
  21521743.938    21521747.723    10159435.116 9 -18293828.415 9
  22188280.859    22188284.498    39726522.059 9 -39527356.592 9
  24652443.042    24652446.376   -19462822.548 9   4468570.154 9
 86  6 18  4 10 35.0800000  0  3G12G13G 7
  21524304.901    21524308.285    10172892.079 9 -18283342.471 8
  22190123.655    22190127.022    39736200.813 9 -39519814.709 8
  24651536.183    24651539.632   -19467590.100 9   4464855.182 9
 86  6 18  4 10 41.0800000  0  3G12G13G 7
  21526868.688    21526872.732    10186369.371 9 -18272840.686 8
  22191965.820    22191968.944    39745880.804 8 -39512271.851 9
  24650632.987    24650635.892   -19472335.363 9   4461157.577 9
 86  6 18  4 10 47.0800000  0  3G12G13G 7
  21529437.608    21529441.409    10199866.971 9 -18262323.070 9
  22193807.982    22193811.597    39755562.037 8 -39504728.025 9
  24649733.733    24649736.931   -19477060.307 9   4457475.806 9
 86  6 18  4 10 53.0800000  0  3G12G13G 7
  21532010.249    21532013.973    10213384.783 9 -18251789.712 8
  22195650.149    22195654.548    39765244.527 9 -39497183.234 9
  24648838.493    24648841.239   -19481765.124 9   4453809.719 8
 86  6 18  4 10 59.0800000  0  3G12G13G 7
  21534588.014    21534589.935    10226922.809 8 -18241240.608 9
  22197493.518    22197496.398    39774928.230 9 -39489637.490 8
  24647948.054    24647949.909   -19486446.465 9   4450161.914 9
 86  6 18  4 11  5.0800000  0  3G12G13G 7
  21537167.478    21537170.805    10240481.064 9 -18230675.736 8
  22199335.339    22199340.067    39784613.104 9 -39482090.838 9
                  24647064.813                     4446537.971 8
 86  6 18  4 11 11.0800000  0  3G12G13G 7
  21539751.044    21539754.403    10254059.464 8 -18220095.166 9
  22201178.993    22201182.790    39794299.180 8 -39474543.236 9
  24646184.262    24646185.113   -19527483.953 9   4442942.442 9
 86  6 18  4 11 17.0800000  0  3G12G13G 7
  21542339.218    21542342.883    10267658.018 9 -18209498.902 8
  22203021.617    22203026.572    39803986.304 9 -39466994.832 8
  24645312.975    24645315.765   -19532061.435 9   4439375.584 9
 86  6 18  4 11 23.0800000  0  3G12G13G 7
  21544930.555    21544933.969    10281276.678 9 -18198886.948 9
  22204866.128    22204870.027    39813674.614 9 -39459445.492 9
  24644447.999    24644449.537   -19536606.325 9   4435834.497 9
 86  6 18  4 11 29.0800000  0  3G12G13G 7
  21547526.376    21547528.948    10294915.446 9 -18188259.347 8
  22206710.127    22206712.894    39823364.034 9 -39451895.297 9
  24643588.997    24643590.835   -19541122.447 9   4432315.451 9
 86  6 18  4 11 35.0800000  0  3G12G13G 7
  21550125.326    21550128.668    10308574.185 9 -18177616.176 8
  22208553.320    22208557.047    39833054.513 8 -39444344.273 9
  24642734.238    24642736.878   -19545613.900 9   4428815.624 8
 86  6 18  4 11 41.0800000  0  3G12G13G 7
  21552728.674    21552731.574    10322252.943 9 -18166957.402 9
  22210397.918    22210401.270    39842746.050 8 -39436792.420 9
  24641884.316    24641886.082   -19550083.153 9   4425333.082 8
 86  6 18  4 11 47.0800000  0  3G12G13G 7
  21555335.809    21555338.018    10335951.641 9 -18156283.107 8
  22212243.749    22212245.470    39852438.591 8 -39429239.783 8
  24641037.577    24641040.574   -19554532.368 9   4421866.159 9
 86  6 18  4 11 53.0800000  0  3G12G13G 7
  21557945.738    21557948.508    10349670.264 9 -18145593.266 9
  22214087.743    22214090.340    39862132.253 9 -39421686.278 9
  24640194.057    24640199.129   -19558961.316 9   4418415.037 9
 86  6 18  4 11 59.0800000  0  3G12G13G 7
  21560560.034    21560563.290    10363408.774 9 -18134887.944 8
  22215932.658    22215934.967    39871826.963 9 -39414131.956 8
                  24639359.689                     4414982.635 8
 86  6 18  4 12  5.0800000  0  3G12G13G 7
  21563178.187    21563181.243    10377167.194 9 -18124167.104 9
  22217776.769    22217780.267    39881522.774 9 -39406576.773 9
  24638477.334    24638528.661   -19599781.141 9   4411574.268 8
 86  6 18  4 12 11.0800000  0  3G12G13G 7
  21565799.993    21565803.746    10390945.588 9 -18113430.697 9
  22219624.201    22219626.181    39891219.597 9 -39399020.806 9
  24637700.209    24637702.550   -19604118.509 9   4408194.638 9
 86  6 18  4 12 17.0800000  0  3G12G13G 7
  21568426.195    21568428.602    10404743.851 9 -18102678.800 9
  22221468.828    22221471.551    39900917.466 9 -39391464.010 9
  24636880.272    24636883.891   -19608419.042 9   4404843.576 8
 86  6 18  4 12 23.0800000  0  3G12G13G 7
  21571055.124    21571058.722    10418562.029 9 -18091911.395 9
  22223314.138    22223316.693    39910616.502 9 -39383906.329 9
  24636068.353    24636071.517   -19612686.798 9   4401518.050 9
 86  6 18  4 12 29.0800000  0  3G12G13G 7
  21573689.138    21573691.847    10432400.078 9 -18081128.493 9
  22225161.056    22225163.395    39920316.627 8 -39376347.778 9
  24635260.244    24635265.366   -19616926.379 9   4398214.491 8
 86  6 18  4 12 35.0800000  0  3G12G13G 7
  21576325.285    21576329.088    10446257.931 8 -18070330.174 8
  22227006.142    22227009.896    39930017.880 9 -39368788.364 9
  24634458.751    24634462.570   -19621141.430 9   4394930.026 9
 86  6 18  4 12 41.0800000  0  3G12G13G 7
  21578966.698    21578969.060    10460135.540 9 -18059516.453 9
  22228852.083    22228856.039    39939720.220 9 -39361228.099 9
  24633661.357    24633663.875   -19625334.392 9   4391662.787 9
 86  6 18  4 12 47.0800000  0  3G12G13G 7
  21581610.751    21581614.261    10474032.936 9 -18048687.316 9
  22230698.258    22230703.571    39949423.659 9 -39353666.981 8
  24632868.456    24632870.016   -19629507.269 9   4388411.199 9
